[[{"header":{"parameterUnit":"m.s-1","parameterCategory":1,"la1":31.0,"la2":29.5877,"lo1":-88.7671,"lo2":-86.6584,"dy":0.0162,"dx":0.0185,"nx":115,"ny":88,"refTime":"2024-10-08T12:00:00:Z","depth":0,"parameterNumber":2,"parameterNumberName":"U-component_of_WINDS"},"data":[0.0,0.0,0.0,0.0,0.0,0.0,0.0,0.0,0.0,0.0,0.0,0.0,0.0,0.0,0.0,0.0,0.0,0.0,0.0,0.0,0.0,0.0,0.0,0.0,0.0,0.0,0.0,0.0,0.0,0.0,0.0,0.0,0.0,0.0,0.0,0.0,0.0,0.0,0.0,0.0,0.0,0.0,0.0,0.0,0.0,0.0,0.0,0.0,0.0,0.0,0.0,0.0,0.0,0.0,0.0,0.0,0.0,0.0,0.0,0.0,0.0,0.0,0.0,0.0,0.0,0.0,0.0,0.0,0.0,0.0,0.0,0.0,0.0,0.0,0.0,0.0,0.0,0.0,0.0,0.0,0.0,0.0,0.0,0.0,0.0,0.0,0.0,0.0,0.0,0.0,0.0,0.0,0.0,0.0,0.0,0.0,0.0,0.0,0.0,0.0,0.0,0.0,0.0,0.0,0.0,0.0,0.0,0.0,0.0,0.0,0.0,0.0,0.0,0.0,0.0,0.0,0.0,0.0,0.0,0.0,0.0,0.0,0.0,0.0,0.0,0.0,0.0,0.0,0.0,0.0,0.0,0.0,0.0,0.0,0.0,0.0,0.0,0.0,0.0,0.0,0.0,0.0,0.0,0.0,0.0,0.0,0.0,0.0,0.0,0.0,0.0,0.0,0.0,0.0,0.0,0.0,0.0,0.0,0.0,0.0,0.0,0.0,0.0,0.0,0.0,0.0,0.0,0.0,0.0,0.0,0.0,0.0,0.0,0.0,0.0,0.0,0.0,0.0,0.0,0.0,0.0,0.0,0.0,0.0,0.0,0.0,0.0,0.0,0.0,0.0,0.0,0.0,0.0,0.0,0.0,0.0,0.0,0.0,0.0,0.0,0.0,0.0,0.0,0.0,0.0,0.0,0.0,0.0,0.0,0.0,0.0,0.0,0.0,0.0,0.0,0.0,0.0,0.0,0.0,0.0,0.0,0.0,0.0,0.0,0.0,0.0,0.0,0.0,0.0,0.0,0.0,0.0,0.0,0.0,0.0,0.0,0.0,0.0,0.0,0.0,0.0,0.0,0.0,0.0,0.0,0.0,0.0,0.0,0.0,0.0,0.0,0.0,0.0,0.0,0.0,0.0,0.0,0.0,0.0,0.0,0.0,0.0,0.0,0.0,0.0,0.0,0.0,0.0,0.0,0.0,0.0,0.0,0.0,0.0,0.0,0.0,0.0,0.0,0.0,0.0,0.0,0.0,0.0,0.0,0.0,0.0,0.0,0.0,0.0,0.0,0.0,0.0,0.0,0.0,0.0,0.0,0.0,0.0,0.0,0.0,0.0,0.0,0.0,0.0,0.0,0.0,0.0,0.0,0.0,0.0,0.0,0.0,0.0,0.0,0.0,0.0,0.0,0.0,0.0,0.0,0.0,0.0,0.0,0.0,0.0,0.0,0.0,0.0,0.0,0.0,0.0,0.0,0.0,0.0,0.0,0.0,0.0,0.0,0.0,0.0,0.0,0.0,0.0,0.0,0.0,0.0,0.0,0.0,0.0,0.0,0.0,0.0,0.0,0.0,0.0,0.0,0.0,0.0,0.0,0.0,0.0,0.0,0.0,0.0,0.0,0.0,0.0,0.0,0.0,0.0,0.0,0.0,0.0,0.0,0.0,0.0,0.0,0.0,0.0,0.0,0.0,0.0,0.0,0.0,0.0,0.0,0.0,0.0,0.0,0.0,0.0,0.0,0.0,0.0,0.0,0.0,0.0,0.0,0.0,0.0,0.0,0.0,0.0,0.0,0.0,0.0,0.0,0.0,0.0,0.0,0.0,0.0,0.0,0.0,0.0,0.0,0.0,0.0,0.0,0.0,0.0,0.0,0.0,0.0,0.0,0.0,0.0,0.0,0.0,0.0,0.0,0.0,0.0,0.0,0.0,0.0,0.0,0.0,0.0,0.0,0.0,0.0,0.0,0.0,0.0,0.0,0.0,0.0,0.0,0.0,0.0,0.0,0.0,0.0,0.0,0.0,0.0,0.0,0.0,0.0,0.0,0.0,0.0,0.0,0.0,0.0,0.0,0.0,0.0,0.0,0.0,0.0,0.0,0.0,0.0,0.0,0.0,0.0,0.0,0.0,0.0,0.0,0.0,0.0,0.0,0.0,0.0,0.0,0.0,0.0,0.0,0.0,0.0,0.0,0.0,0.0,0.0,0.0,0.0,0.0,0.0,0.0,0.0,0.0,0.0,0.0,0.0,0.0,0.0,0.0,0.0,0.0,0.0,0.0,0.0,0.0,0.0,0.0,0.0,0.0,0.0,0.0,0.0,0.0,0.0,0.0,0.0,0.0,0.0,0.0,0.0,0.0,0.0,0.0,0.0,0.0,0.0,0.0,0.0,0.0,0.0,0.0,0.0,0.0,0.0,0.0,0.0,0.0,0.0,0.0,0.0,0.0,0.0,0.0,0.0,0.0,0.0,0.0,0.0,0.0,0.0,0.0,0.0,0.0,0.0,0.0,0.0,0.0,0.0,0.0,0.0,0.0,0.0,0.0,0.0,0.0,0.0,0.0,0.0,0.0,0.0,0.0,0.0,0.0,0.0,0.0,0.0,0.0,0.0,0.0,0.0,0.0,0.0,0.0,0.0,0.0,0.0,0.0,0.0,0.0,0.0,0.0,0.0,0.0,0.0,0.0,0.0,0.0,0.0,0.0,0.0,0.0,0.0,0.0,0.0,0.0,0.0,0.0,0.0,0.0,0.0,0.0,0.0,0.0,0.0,0.0,0.0,0.0,0.0,0.0,0.0,0.0,0.0,0.0,0.0,0.0,0.0,0.0,0.0,0.0,0.0,0.0,0.0,0.0,0.0,0.0,0.0,0.0,0.0,0.0,0.0,0.0,0.0,0.0,0.0,0.0,0.0,0.0,0.0,0.0,0.0,0.0,0.0,0.0,0.0,0.0,0.0,0.0,0.0,0.0,0.0,0.0,0.0,0.0,0.0,0.0,0.0,0.0,0.0,0.0,0.0,0.0,0.0,0.0,0.0,0.0,0.0,0.0,0.0,0.0,0.0,0.0,0.0,0.0,0.0,0.0,0.0,0.0,0.0,0.0,0.0,0.0,0.0,0.0,0.0,0.0,0.0,0.0,0.0,0.0,0.0,0.0,0.0,0.0,0.0,0.0,0.0,0.0,0.0,0.0,0.0,0.0,0.0,0.0,0.0,0.0,0.0,0.0,0.0,0.0,0.0,0.0,0.0,0.0,0.0,0.0,0.0,0.0,0.0,0.0,0.0,0.0,0.0,0.0,0.0,0.0,0.0,0.0,0.0,0.0,0.0,0.0,0.0,0.0,0.0,0.0,0.0,0.0,0.0,0.0,0.0,0.0,0.0,0.0,0.0,0.0,0.0,0.0,0.0,0.0,0.0,0.0,0.0,0.0,0.0,0.0,0.0,0.0,0.0,0.0,0.0,0.0,0.0,0.0,0.0,0.0,0.0,0.0,0.0,0.0,0.0,0.0,0.0,0.0,0.0,0.0,0.0,0.0,0.0,0.0,0.0,0.0,0.0,0.0,0.0,0.0,0.0,0.0,0.0,0.0,0.0,0.0,0.0,0.0,0.0,0.0,0.0,0.0,0.0,0.0,0.0,0.0,0.0,0.0,0.0,0.0,0.0,0.0,0.0,0.0,0.0,0.0,0.0,0.0,0.0,0.0,0.0,0.0,0.0,0.0,0.0,0.0,0.0,0.0,0.0,0.0,0.0,0.0,0.0,0.0,0.0,0.0,0.0,0.0,0.0,0.0,0.0,0.0,0.0,0.0,0.0,0.0,0.0,0.0,0.0,0.0,0.0,0.0,0.0,0.0,0.0,0.0,0.0,0.0,0.0,0.0,0.0,0.0,0.0,0.0,0.0,0.0,0.0,0.0,0.0,0.0,0.0,0.0,0.0,0.0,0.0,0.0,0.0,0.0,0.0,0.0,0.0,0.0,0.0,0.0,0.0,0.0,0.0,0.0,0.0,0.0,0.0,0.0,0.0,0.0,0.0,0.0,0.0,0.0,0.0,0.0,0.0,0.0,0.0,0.0,0.0,0.0,0.0,0.0,0.0,0.0,0.0,0.0,0.0,0.0,0.0,0.0,0.0,0.0,0.0,0.0,0.0,0.0,0.0,0.0,0.0,0.0,0.0,0.0,0.0,0.0,0.0,0.0,0.0,0.0,0.0,0.0,0.0,0.0,0.0,0.0,0.0,0.0,0.0,0.0,0.0,0.0,0.0,0.0,0.0,0.0,3.2988,0.0,0.0,0.0,0.0,0.0,0.0,0.0,0.0,0.0,0.0,0.0,0.0,0.0,0.0,0.0,0.0,0.0,0.0,0.0,0.0,0.0,0.0,0.0,0.0,0.0,0.0,0.0,0.0,0.0,0.0,0.0,0.0,0.0,0.0,0.0,0.0,0.0,0.0,0.0,0.0,0.0,0.0,0.0,0.0,0.0,0.0,0.0,0.0,0.0,0.0,0.0,0.0,0.0,0.0,0.0,0.0,0.0,0.0,0.0,0.0,0.0,0.0,0.0,0.0,0.0,0.0,0.0,0.0,0.0,0.0,0.0,0.0,0.0,0.0,0.0,0.0,0.0,0.0,0.0,0.0,0.0,0.0,0.0,0.0,0.0,0.0,0.0,0.0,0.0,0.0,0.0,0.0,0.0,0.0,0.0,0.0,0.0,0.0,0.0,0.0,0.0,0.0,0.0,0.0,0.0,0.0,0.0,0.0,0.0,0.0,3.57,3.5589,3.5311,3.4648,3.3559,0.0,0.0,0.0,0.0,0.0,0.0,0.0,0.0,0.0,0.0,0.0,0.0,0.0,0.0,0.0,0.0,0.0,0.0,0.0,0.0,0.0,0.0,0.0,0.0,0.0,0.0,0.0,0.0,0.0,0.0,0.0,0.0,0.0,0.0,0.0,0.0,0.0,0.0,0.0,0.0,0.0,0.0,0.0,0.0,0.0,0.0,0.0,0.0,0.0,0.0,0.0,0.0,0.0,0.0,0.0,0.0,0.0,0.0,0.0,0.0,0.0,0.0,0.0,0.0,0.0,0.0,0.0,0.0,0.0,0.0,0.0,0.0,0.0,0.0,0.0,0.0,0.0,0.0,0.0,0.0,0.0,0.0,0.0,0.0,0.0,0.0,0.0,0.0,0.0,0.0,0.0,0.0,0.0,0.0,0.0,0.0,0.0,0.0,0.0,0.0,0.0,0.0,0.0,0.0,0.0,0.0,0.0,0.0,0.0,0.0,0.0,0.0,3.5489,3.4874,3.3555,0.0,0.0,0.0,0.0,0.0,0.0,0.0,0.0,0.0,0.0,0.0,0.0,0.0,0.0,0.0,0.0,0.0,0.0,0.0,0.0,0.0,0.0,0.0,0.0,0.0,0.0,0.0,0.0,0.0,0.0,0.0,0.0,0.0,0.0,0.0,0.0,0.0,0.0,0.0,0.0,0.0,0.0,0.0,0.0,0.0,0.0,0.0,0.0,0.0,0.0,0.0,0.0,0.0,0.0,0.0,0.0,0.0,0.0,0.0,0.0,0.0,0.0,0.0,0.0,0.0,0.0,0.0,0.0,0.0,0.0,0.0,0.0,0.0,0.0,0.0,0.0,0.0,0.0,0.0,0.0,0.0,0.0,0.0,0.0,0.0,0.0,0.0,0.0,0.0,0.0,0.0,0.0,0.0,0.0,0.0,0.0,0.0,0.0,0.0,0.0,0.0,0.0,0.0,0.0,0.0,0.0,0.0,0.0,0.0,0.0,3.5489,3.5489,3.5481,0.0,3.2306,0.0,0.0,0.0,0.0,0.0,0.0,0.0,0.0,0.0,0.0,0.0,0.0,0.0,0.0,0.0,0.0,0.0,0.0,0.0,0.0,0.0,0.0,0.0,0.0,0.0,0.0,0.0,0.0,0.0,0.0,0.0,0.0,0.0,0.0,0.0,0.0,0.0,0.0,0.0,0.0,0.0,0.0,0.0,0.0,0.0,0.0,0.0,0.0,0.0,0.0,0.0,0.0,0.0,0.0,0.0,0.0,0.0,0.0,0.0,0.0,0.0,0.0,0.0,0.0,0.0,0.0,0.0,0.0,0.0,0.0,0.0,0.0,0.0,0.0,0.0,0.0,0.0,0.0,0.0,0.0,0.0,0.0,0.0,0.0,0.0,0.0,0.0,0.0,0.0,0.0,0.0,0.0,0.0,0.0,0.0,0.0,0.0,0.0,0.0,0.0,0.0,0.0,0.0,0.0,0.0,0.0,0.0,0.0,0.0,0.0,3.5908,3.5503,3.5217,3.4054,0.0,0.0,0.0,0.0,0.0,0.0,0.0,0.0,0.0,0.0,0.0,0.0,0.0,0.0,0.0,0.0,0.0,0.0,0.0,0.0,0.0,0.0,0.0,0.0,0.0,0.0,0.0,0.0,0.0,0.0,0.0,0.0,0.0,0.0,0.0,0.0,0.0,0.0,0.0,0.0,0.0,0.0,0.0,0.0,0.0,0.0,0.0,0.0,0.0,0.0,0.0,0.0,0.0,0.0,0.0,0.0,0.0,0.0,0.0,0.0,0.0,0.0,0.0,0.0,0.0,0.0,0.0,0.0,0.0,0.0,0.0,0.0,0.0,0.0,0.0,0.0,0.0,0.0,0.0,0.0,0.0,0.0,0.0,0.0,0.0,0.0,0.0,0.0,0.0,0.0,0.0,0.0,0.0,0.0,0.0,0.0,0.0,0.0,0.0,0.0,0.0,0.0,0.0,0.0,0.0,0.0,0.0,0.0,0.0,0.0,3.5878,3.599,3.5517,3.4763,3.3616,3.2049,0.0,0.0,0.0,0.0,0.0,0.0,0.0,0.0,0.0,0.0,0.0,0.0,0.0,0.0,0.0,0.0,0.0,0.0,0.0,0.0,0.0,0.0,0.0,0.0,0.0,0.0,0.0,0.0,0.0,0.0,0.0,0.0,0.0,0.0,0.0,0.0,0.0,0.0,0.0,0.0,0.0,0.0,0.0,0.0,0.0,0.0,0.0,0.0,0.0,0.0,0.0,0.0,0.0,0.0,0.0,0.0,0.0,0.0,0.0,0.0,0.0,0.0,0.0,0.0,0.0,0.0,0.0,0.0,0.0,0.0,0.0,0.0,0.0,0.0,0.0,0.0,0.0,0.0,0.0,0.0,0.0,0.0,0.0,0.0,0.0,0.0,0.0,0.0,0.0,0.0,0.0,0.0,0.0,0.0,0.0,0.0,0.0,0.0,0.0,0.0,0.0,0.0,0.0,0.0,0.0,0.0,0.0,0.0,0.0,3.5198,3.5533,3.5495,3.4244,3.3074,0.0,0.0,0.0,0.0,0.0,0.0,0.0,0.0,0.0,0.0,0.0,0.0,0.0,0.0,0.0,0.0,0.0,0.0,0.0,0.0,0.0,0.0,0.0,0.0,0.0,0.0,0.0,0.0,0.0,0.0,0.0,0.0,0.0,0.0,0.0,0.0,0.0,0.0,0.0,0.0,0.0,0.0,0.0,0.0,0.0,0.0,0.0,0.0,0.0,0.0,0.0,0.0,0.0,0.0,0.0,0.0,0.0,0.0,0.0,0.0,0.0,0.0,0.0,0.0,0.0,0.0,0.0,0.0,0.0,0.0,0.0,0.0,0.0,0.0,0.0,0.0,0.0,0.0,0.0,0.0,0.0,0.0,0.0,0.0,0.0,0.0,0.0,0.0,0.0,0.0,0.0,0.0,0.0,0.0,0.0,0.0,0.0,0.0,0.0,0.0,0.0,0.0,0.0,0.0,0.0,0.0,0.0,0.0,0.0,3.4496,3.5168,3.5699,3.6071,3.4519,3.3106,0.0,0.0,0.0,0.0,0.0,0.0,0.0,0.0,0.0,0.0,0.0,0.0,0.0,0.0,0.0,0.0,0.0,0.0,0.0,0.0,0.0,0.0,0.0,0.0,0.0,0.0,0.0,0.0,0.0,0.0,0.0,0.0,0.0,0.0,0.0,0.0,0.0,0.0,0.0,0.0,0.0,0.0,0.0,0.0,0.0,0.0,0.0,0.0,0.0,0.0,0.0,0.0,0.0,0.0,0.0,0.0,0.0,0.0,0.0,0.0,0.0,0.0,0.0,0.0,0.0,0.0,0.0,0.0,0.0,0.0,0.0,0.0,0.0,0.0,0.0,0.0,0.0,0.0,0.0,0.0,0.0,0.0,0.0,0.0,0.0,0.0,0.0,0.0,0.0,0.0,0.0,0.0,0.0,0.0,0.0,0.0,0.0,0.0,0.0,0.0,0.0,0.0,0.0,0.0,0.0,0.0,0.0,0.0,0.0,3.4458,0.0,3.5699,0.0,3.4394,3.2979,0.0,0.0,0.0,0.0,0.0,0.0,0.0,0.0,0.0,0.0,0.0,0.0,0.0,0.0,0.0,0.0,0.0,0.0,0.0,0.0,0.0,0.0,0.0,0.0,0.0,0.0,0.0,0.0,0.0,0.0,0.0,0.0,0.0,0.0,0.0,0.0,0.0,0.0,0.0,0.0,0.0,0.0,0.0,0.0,0.0,0.0,0.0,0.0,0.0,0.0,0.0,0.0,0.0,0.0,0.0,0.0,0.0,0.0,0.0,0.0,0.0,0.0,0.0,0.0,0.0,0.0,0.0,0.0,0.0,0.0,0.0,0.0,0.0,0.0,0.0,0.0,0.0,0.0,0.0,0.0,0.0,0.0,0.0,0.0,0.0,0.0,0.0,0.0,0.0,0.0,0.0,0.0,0.0,0.0,0.0,0.0,0.0,0.0,0.0,0.0,0.0,0.0,0.0,0.0,0.0,0.0,0.0,0.0,3.3193,3.4474,3.5168,3.5519,3.5481,3.379,3.265,0.0,0.0,0.0,0.0,0.0,0.0,0.0,0.0,0.0,0.0,0.0,0.0,0.0,0.0,0.0,0.0,0.0,0.0,0.0,0.0,0.0,0.0,0.0,0.0,0.0,0.0,0.0,0.0,0.0,0.0,0.0,0.0,0.0,0.0,0.0,0.0,0.0,0.0,0.0,0.0,0.0,0.0,0.0,0.0,0.0,0.0,0.0,0.0,0.0,0.0,0.0,0.0,0.0,0.0,0.0,0.0,0.0,0.0,0.0,0.0,0.0,0.0,0.0,0.0,0.0,0.0,0.0,0.0,0.0,0.0,0.0,0.0,0.0,0.0,0.0,0.0,0.0,0.0,0.0,0.0,0.0,0.0,0.0,0.0,0.0,0.0,0.0,0.0,0.0,0.0,0.0,0.0,0.0,0.0,0.0,0.0,0.0,0.0,0.0,0.0,0.0,0.0,0.0,0.0,0.0,0.0,0.0,0.0,0.0,3.4623,3.5186,3.5489,3.5443,3.3826,3.274,0.0,0.0,0.0,0.0,0.0,0.0,0.0,0.0,0.0,0.0,0.0,0.0,0.0,0.0,0.0,0.0,0.0,0.0,0.0,0.0,0.0,0.0,0.0,0.0,0.0,0.0,0.0,0.0,0.0,0.0,0.0,0.0,0.0,0.0,0.0,0.0,0.0,0.0,0.0,0.0,0.0,0.0,0.0,0.0,0.0,0.0,0.0,0.0,0.0,0.0,0.0,0.0,0.0,0.0,0.0,0.0,0.0,0.0,0.0,0.0,0.0,0.0,0.0,0.0,0.0,0.0,0.0,0.0,0.0,0.0,0.0,0.0,0.0,0.0,0.0,0.0,0.0,0.0,0.0,0.0,0.0,0.0,0.0,0.0,0.0,0.0,0.0,0.0,0.0,0.0,0.0,0.0,0.0,0.0,0.0,0.0,0.0,0.0,0.0,0.0,0.0,0.0,0.0,0.0,0.0,0.0,0.0,0.0,0.0,3.5888,3.6113,3.6319,3.6567,3.4742,3.3512,3.2996,0.0,0.0,0.0,0.0,0.0,0.0,0.0,0.0,0.0,0.0,0.0,0.0,0.0,0.0,0.0,0.0,0.0,0.0,0.0,0.0,0.0,0.0,0.0,0.0,0.0,0.0,0.0,0.0,0.0,0.0,0.0,0.0,0.0,0.0,0.0,0.0,0.0,0.0,0.0,0.0,0.0,0.0,0.0,0.0,0.0,0.0,0.0,0.0,0.0,0.0,0.0,0.0,0.0,0.0,0.0,0.0,0.0,0.0,0.0,0.0,0.0,0.0,0.0,0.0,0.0,0.0,0.0,0.0,0.0,0.0,0.0,0.0,0.0,0.0,0.0,0.0,0.0,0.0,0.0,0.0,0.0,0.0,0.0,0.0,0.0,0.0,0.0,0.0,0.0,0.0,0.0,0.0,0.0,0.0,0.0,0.0,0.0,0.0,0.0,0.0,0.0,0.0,0.0,0.0,0.0,0.0,0.0,0.0,3.8048,3.7785,3.7892,3.8302,3.6187,3.4765,0.0,0.0,0.0,0.0,0.0,0.0,0.0,0.0,0.0,0.0,0.0,0.0,0.0,0.0,0.0,0.0,0.0,0.0,0.0,0.0,0.0,0.0,0.0,0.0,0.0,0.0,0.0,0.0,0.0,0.0,0.0,0.0,0.0,0.0,0.0,0.0,0.0,0.0,0.0,0.0,0.0,0.0,0.0,0.0,0.0,0.0,0.0,0.0,0.0,0.0,0.0,0.0,0.0,0.0,0.0,0.0,0.0,0.0,0.0,0.0,0.0,0.0,0.0,0.0,0.0,0.0,0.0,0.0,0.0,0.0,0.0,0.0,0.0,0.0,0.0,0.0,0.0,0.0,0.0,0.0,0.0,0.0,0.0,0.0,0.0,0.0,0.0,0.0,0.0,0.0,0.0,0.0,0.0,0.0,0.0,0.0,0.0,0.0,0.0,0.0,0.0,0.0,0.0,0.0,0.0,0.0,0.0,0.0,0.0,4.0058,4.026,3.9727,3.8422,3.6542,3.5098,0.0,0.0,0.0,0.0,0.0,0.0,0.0,0.0,0.0,0.0,0.0,0.0,0.0,0.0,0.0,0.0,0.0,0.0,0.0,0.0,0.0,0.0,0.0,0.0,0.0,0.0,0.0,0.0,0.0,0.0,0.0,0.0,0.0,0.0,0.0,0.0,0.0,0.0,0.0,0.0,0.0,0.0,0.0,0.0,0.0,0.0,0.0,0.0,0.0,0.0,0.0,0.0,0.0,0.0,0.0,0.0,0.0,0.0,0.0,0.0,0.0,0.0,0.0,0.0,0.0,0.0,0.0,0.0,0.0,0.0,0.0,0.0,0.0,0.0,0.0,0.0,0.0,0.0,0.0,0.0,0.0,0.0,0.0,0.0,0.0,0.0,0.0,0.0,0.0,0.0,0.0,0.0,0.0,0.0,0.0,0.0,0.0,0.0,0.0,0.0,0.0,0.0,0.0,0.0,0.0,0.0,0.0,0.0,3.9864,4.1301,4.1894,4.1644,4.0468,3.8134,3.6192,0.0,0.0,0.0,0.0,0.0,0.0,0.0,0.0,0.0,0.0,0.0,0.0,0.0,0.0,0.0,0.0,0.0,0.0,0.0,0.0,0.0,0.0,0.0,0.0,0.0,0.0,0.0,0.0,0.0,0.0,0.0,0.0,0.0,0.0,0.0,0.0,0.0,0.0,0.0,0.0,0.0,0.0,0.0,0.0,0.0,0.0,0.0,0.0,0.0,0.0,0.0,0.0,0.0,0.0,0.0,0.0,0.0,0.0,0.0,0.0,0.0,0.0,0.0,0.0,0.0,0.0,0.0,0.0,0.0,0.0,0.0,0.0,0.0,0.0,0.0,0.0,0.0,0.0,0.0,0.0,0.0,0.0,0.0,0.0,0.0,0.0,0.0,0.0,0.0,0.0,0.0,0.0,0.0,0.0,0.0,0.0,0.0,0.0,0.0,0.0,0.0,0.0,0.0,0.0,0.0,0.0,0.0,0.0,4.0992,4.2213,4.2996,4.3349,4.322,4.0212,3.7624,0.0,0.0,0.0,0.0,0.0,0.0,0.0,0.0,0.0,0.0,0.0,0.0,0.0,0.0,0.0,0.0,0.0,0.0,0.0,0.0,0.0,0.0,0.0,0.0,0.0,0.0,0.0,0.0,0.0,0.0,0.0,0.0,0.0,0.0,0.0,0.0,0.0,0.0,0.0,0.0,0.0,0.0,0.0,0.0,0.0,0.0,0.0,0.0,0.0,0.0,0.0,0.0,0.0,0.0,0.0,0.0,0.0,0.0,0.0,0.0,0.0,0.0,0.0,0.0,0.0,0.0,0.0,0.0,0.0,0.0,0.0,0.0,0.0,0.0,0.0,0.0,0.0,0.0,0.0,0.0,0.0,0.0,0.0,0.0,0.0,0.0,0.0,0.0,0.0,0.0,0.0,0.0,0.0,0.0,0.0,0.0,0.0,0.0,0.0,0.0,0.0,0.0,0.0,0.0,0.0,0.0,0.0,0.0,4.2619,4.4288,4.4183,4.3848,4.329,4.0383,3.8006,0.0,0.0,0.0,0.0,0.0,0.0,0.0,0.0,0.0,0.0,0.0,0.0,0.0,0.0,0.0,0.0,0.0,0.0,0.0,0.0,0.0,0.0,0.0,0.0,0.0,0.0,0.0,0.0,0.0,0.0,0.0,0.0,0.0,0.0,0.0,0.0,0.0,0.0,0.0,0.0,0.0,0.0,0.0,0.0,0.0,0.0,0.0,0.0,3.6959,0.0,0.0,0.0,0.0,0.0,0.0,0.0,0.0,0.0,0.0,0.0,0.0,0.0,0.0,0.0,0.0,0.0,0.0,0.0,0.0,0.0,0.0,0.0,0.0,0.0,0.0,0.0,0.0,0.0,0.0,0.0,0.0,0.0,0.0,0.0,0.0,0.0,0.0,0.0,0.0,0.0,0.0,0.0,0.0,0.0,0.0,0.0,0.0,0.0,0.0,0.0,0.0,0.0,0.0,0.0,0.0,0.0,0.0,0.0,4.3196,4.5199,4.4971,4.4616,4.4136,4.1068,3.8383,0.0,0.0,0.0,0.0,0.0,0.0,0.0,0.0,0.0,0.0,0.0,0.0,0.0,0.0,0.0,0.0,0.0,0.0,0.0,0.0,0.0,0.0,0.0,0.0,0.0,0.0,0.0,0.0,0.0,0.0,0.0,0.0,0.0,0.0,0.0,0.0,0.0,0.0,0.0,0.0,0.0,0.0,0.0,0.0,0.0,0.0,0.0,0.0,0.0,0.0,0.0,0.0,0.0,0.0,0.0,0.0,0.0,0.0,0.0,0.0,0.0,0.0,0.0,0.0,0.0,0.0,0.0,0.0,0.0,0.0,0.0,0.0,0.0,0.0,0.0,0.0,0.0,0.0,0.0,0.0,0.0,0.0,0.0,0.0,0.0,0.0,0.0,0.0,0.0,0.0,0.0,0.0,0.0,0.0,0.0,0.0,0.0,0.0,0.0,0.0,0.0,0.0,0.0,0.0,0.0,0.0,0.0,4.1793,4.3569,4.5778,4.562,4.5394,4.5254,4.1788,3.8702,3.6143,0.0,0.0,0.0,0.0,0.0,0.0,0.0,0.0,0.0,0.0,0.0,0.0,0.0,0.0,0.0,0.0,0.0,0.0,0.0,0.0,0.0,0.0,0.0,0.0,0.0,0.0,0.0,0.0,0.0,0.0,0.0,0.0,0.0,0.0,0.0,0.0,0.0,0.0,3.4184,3.6038,0.0,0.0,0.0,0.0,0.0,0.0,0.0,0.0,3.8178,0.0,0.0,0.0,0.0,0.0,0.0,0.0,0.0,0.0,0.0,0.0,0.0,0.0,0.0,0.0,0.0,0.0,0.0,0.0,0.0,0.0,0.0,0.0,0.0,0.0,0.0,0.0,0.0,0.0,0.0,0.0,0.0,0.0,0.0,0.0,0.0,0.0,0.0,0.0,0.0,0.0,0.0,0.0,0.0,0.0,0.0,0.0,0.0,0.0,0.0,0.0,0.0,0.0,0.0,0.0,0.0,4.1915,4.3042,4.4822,4.7281,4.6563,4.5862,4.5243,4.1788,3.892,3.6731,0.0,0.0,0.0,0.0,0.0,0.0,0.0,0.0,0.0,0.0,0.0,0.0,0.0,0.0,0.0,0.0,0.0,0.0,0.0,0.0,0.0,0.0,0.0,0.0,0.0,0.0,0.0,0.0,0.0,0.0,0.0,0.0,0.0,0.0,0.0,0.0,0.0,0.0,0.0,3.7076,3.7717,0.0,0.0,0.0,0.0,0.0,0.0,0.0,0.0,3.8454,0.0,0.0,0.0,0.0,0.0,0.0,0.0,0.0,0.0,0.0,0.0,0.0,0.0,0.0,0.0,0.0,0.0,0.0,0.0,0.0,0.0,0.0,0.0,0.0,0.0,0.0,0.0,0.0,0.0,0.0,0.0,0.0,0.0,0.0,0.0,0.0,0.0,0.0,0.0,0.0,0.0,0.0,0.0,0.0,0.0,0.0,0.0,0.0,0.0,0.0,0.0,0.0,0.0,0.0,0.0,4.2031,4.3623,4.5425,4.739,4.7046,4.6341,4.5273,4.2077,3.9296,0.0,0.0,0.0,0.0,0.0,0.0,0.0,0.0,0.0,0.0,0.0,0.0,0.0,0.0,0.0,0.0,0.0,0.0,0.0,0.0,0.0,0.0,0.0,0.0,0.0,0.0,0.0,0.0,0.0,0.0,0.0,0.0,0.0,0.0,0.0,0.0,0.0,0.0,0.0,0.0,3.8226,3.8594,3.8509,0.0,0.0,0.0,0.0,0.0,0.0,3.8881,3.8969,0.0,0.0,0.0,0.0,0.0,0.0,0.0,0.0,0.0,0.0,0.0,0.0,0.0,0.0,0.0,0.0,0.0,0.0,0.0,0.0,0.0,0.0,0.0,0.0,0.0,0.0,0.0,0.0,0.0,0.0,0.0,0.0,0.0,0.0,0.0,0.0,0.0,0.0,0.0,0.0,0.0,0.0,0.0,0.0,0.0,0.0,0.0,0.0,0.0,0.0,0.0,0.0,0.0,0.0,0.0,4.2035,4.4043,4.5775,4.723,4.7298,4.664,4.5284,4.2489,3.9692,0.0,0.0,0.0,0.0,0.0,0.0,0.0,0.0,0.0,0.0,0.0,0.0,0.0,0.0,0.0,0.0,0.0,0.0,0.0,0.0,0.0,0.0,0.0,0.0,0.0,0.0,0.0,0.0,0.0,0.0,0.0,0.0,0.0,0.0,0.0,0.0,0.0,0.0,0.0,0.0,0.0,3.9831,3.9757,4.0006,0.0,0.0,0.0,0.0,3.922,3.9861,0.0,0.0,0.0,0.0,0.0,0.0,0.0,0.0,0.0,0.0,0.0,0.0,0.0,0.0,0.0,0.0,0.0,0.0,0.0,0.0,0.0,0.0,0.0,0.0,0.0,0.0,0.0,0.0,0.0,0.0,0.0,0.0,0.0,0.0,0.0,0.0,0.0,0.0,0.0,0.0,0.0,0.0,0.0,0.0,0.0,0.0,0.0,0.0,0.0,0.0,0.0,0.0,0.0,0.0,0.0,0.0,4.253,4.4509,4.6112,4.723,4.7298,4.6681,4.5334,4.2779,4.0079,0.0,0.0,0.0,0.0,0.0,0.0,0.0,0.0,0.0,0.0,0.0,0.0,0.0,0.0,0.0,0.0,0.0,0.0,0.0,0.0,0.0,0.0,0.0,0.0,0.0,0.0,0.0,0.0,0.0,0.0,0.0,0.0,0.0,0.0,0.0,0.0,0.0,0.0,0.0,0.0,0.0,4.1528,4.015,4.1026,4.1108,0.0,0.0,4.0325,4.0312,4.1605,0.0,0.0,0.0,0.0,0.0,0.0,0.0,0.0,0.0,0.0,0.0,0.0,0.0,0.0,0.0,0.0,0.0,0.0,0.0,0.0,0.0,0.0,0.0,0.0,0.0,0.0,0.0,0.0,0.0,0.0,0.0,0.0,0.0,0.0,0.0,0.0,0.0,0.0,0.0,0.0,0.0,0.0,0.0,0.0,0.0,0.0,0.0,0.0,0.0,0.0,0.0,0.0,0.0,0.0,0.0,4.0933,4.2602,4.4839,4.6426,4.7249,4.7298,4.6651,4.5345,4.2832,4.009,0.0,0.0,0.0,0.0,0.0,0.0,0.0,0.0,0.0,0.0,0.0,0.0,0.0,0.0,0.0,0.0,0.0,0.0,0.0,0.0,0.0,0.0,0.0,0.0,0.0,0.0,0.0,0.0,0.0,0.0,0.0,0.0,0.0,0.0,0.0,0.0,0.0,0.0,0.0,0.0,0.0,0.0,4.1735,4.259,0.0,0.0,0.0,4.1945,4.1907,0.0,0.0,0.0,0.0,0.0,0.0,0.0,0.0,0.0,0.0,0.0,0.0,0.0,0.0,0.0,0.0,0.0,0.0,0.0,0.0,0.0,0.0,0.0,0.0,0.0,0.0,0.0,0.0,0.0,0.0,0.0,0.0,0.0,0.0,0.0,0.0,0.0,0.0,0.0,0.0,0.0,0.0,0.0,0.0,0.0,0.0,0.0,0.0,0.0,0.0,0.0,0.0,0.0,0.0,0.0,0.0,0.0,4.2805,4.5266,4.679,4.7279,4.7298,4.664,4.5313,4.2727,0.0,0.0,0.0,0.0,0.0,0.0,0.0,0.0,0.0,0.0,0.0,0.0,0.0,0.0,0.0,0.0,0.0,0.0,0.0,0.0,0.0,0.0,0.0,0.0,0.0,0.0,0.0,2.892,0.0,0.0,0.0,0.0,0.0,0.0,0.0,0.0,0.0,0.0,0.0,0.0,0.0,0.0,4.3773,4.3379,4.4368,4.4625,0.0,0.0,4.3528,4.3266,4.3254,4.2724,0.0,0.0,0.0,0.0,0.0,0.0,0.0,0.0,0.0,0.0,0.0,0.0,0.0,0.0,0.0,0.0,0.0,0.0,0.0,0.0,0.0,0.0,0.0,0.0,0.0,0.0,0.0,0.0,0.0,0.0,0.0,0.0,0.0,0.0,0.0,0.0,0.0,0.0,0.0,0.0,0.0,0.0,0.0,0.0,0.0,0.0,0.0,0.0,0.0,0.0,0.0,0.0,0.0,0.0,0.0,4.3289,4.5873,4.7238,4.7298,4.7298,4.6681,4.5303,4.2397,3.961,0.0,0.0,0.0,0.0,0.0,0.0,0.0,0.0,0.0,0.0,0.0,0.0,0.0,0.0,0.0,0.0,0.0,0.0,0.0,0.0,0.0,0.0,0.0,0.0,0.0,0.0,0.0,0.0,0.0,0.0,0.0,0.0,0.0,0.0,0.0,0.0,0.0,0.0,0.0,0.0,0.0,4.6316,4.4723,4.6398,4.7015,0.0,0.0,4.4959,4.393,4.502,4.4794,4.1152,0.0,0.0,0.0,0.0,0.0,0.0,0.0,0.0,0.0,0.0,0.0,0.0,0.0,0.0,0.0,0.0,0.0,0.0,0.0,0.0,0.0,0.0,0.0,0.0,0.0,0.0,0.0,0.0,0.0,0.0,0.0,0.0,0.0,0.0,0.0,0.0,0.0,0.0,0.0,0.0,0.0,0.0,0.0,0.0,0.0,0.0,0.0,0.0,0.0,0.0,0.0,0.0,0.0,4.2022,4.33,4.5952,4.7298,4.7298,4.7298,4.686,4.5942,4.2969,4.008,0.0,0.0,0.0,0.0,0.0,0.0,0.0,0.0,0.0,0.0,0.0,0.0,0.0,0.0,0.0,0.0,0.0,0.0,0.0,0.0,0.0,0.0,0.0,0.0,0.0,0.0,0.0,0.0,3.1451,3.1888,3.2667,0.0,0.0,0.0,0.0,0.0,0.0,0.0,0.0,0.0,0.0,4.6884,4.6944,4.7392,0.0,0.0,4.5834,4.5849,4.5422,4.5282,4.4629,4.2836,4.2019,0.0,0.0,0.0,0.0,0.0,0.0,0.0,0.0,0.0,0.0,0.0,0.0,0.0,0.0,0.0,0.0,0.0,0.0,0.0,0.0,0.0,0.0,0.0,0.0,0.0,0.0,0.0,0.0,0.0,0.0,0.0,0.0,0.0,0.0,0.0,0.0,0.0,0.0,0.0,0.0,0.0,0.0,0.0,0.0,0.0,0.0,0.0,0.0,0.0,0.0,0.0,0.0,4.2022,4.33,4.5952,4.7298,4.7298,4.7298,4.6797,4.5707,4.299,4.015,0.0,0.0,0.0,0.0,0.0,0.0,0.0,0.0,0.0,0.0,0.0,0.0,0.0,0.0,0.0,0.0,0.0,0.0,0.0,0.0,0.0,0.0,0.0,0.0,0.0,0.0,0.0,0.0,3.2407,3.2616,3.304,0.0,0.0,0.0,0.0,0.0,0.0,0.0,0.0,0.0,0.0,4.7216,4.7809,4.7825,4.7487,4.6662,4.6537,4.6486,4.6336,4.5633,4.4815,4.394,0.0,0.0,0.0,0.0,0.0,0.0,0.0,0.0,0.0,0.0,0.0,0.0,0.0,0.0,0.0,0.0,0.0,0.0,0.0,0.0,0.0,0.0,0.0,0.0,0.0,0.0,0.0,0.0,0.0,0.0,3.1511,0.0,0.0,0.0,0.0,0.0,0.0,0.0,0.0,0.0,0.0,0.0,0.0,0.0,0.0,0.0,0.0,0.0,0.0,0.0,0.0,0.0,0.0,4.2043,4.3319,4.5952,4.7298,4.7298,4.7298,4.6398,4.454,4.2248,3.9618,3.6597,0.0,0.0,0.0,0.0,0.0,0.0,0.0,0.0,0.0,0.0,0.0,0.0,0.0,0.0,0.0,0.0,0.0,0.0,0.0,0.0,0.0,0.0,0.0,0.0,0.0,0.0,3.2544,3.2901,3.309,0.0,0.0,0.0,0.0,0.0,0.0,0.0,0.0,0.0,0.0,4.606,4.7473,4.6918,4.7742,4.8112,4.7252,4.7099,4.6898,4.6411,4.6286,4.5708,0.0,0.0,0.0,0.0,0.0,0.0,0.0,0.0,0.0,0.0,0.0,0.0,0.0,0.0,0.0,0.0,0.0,0.0,0.0,0.0,0.0,0.0,0.0,0.0,0.0,0.0,0.0,3.5148,3.4524,0.0,0.0,0.0,0.0,0.0,0.0,0.0,0.0,0.0,0.0,0.0,3.9409,4.0077,0.0,0.0,0.0,0.0,0.0,0.0,0.0,0.0,0.0,0.0,0.0,0.0,4.269,4.3997,4.6172,4.7298,4.7298,4.7298,4.6594,4.5083,4.3183,3.9979,3.5446,0.0,0.0,0.0,0.0,0.0,0.0,0.0,0.0,0.0,0.0,0.0,0.0,0.0,0.0,0.0,0.0,0.0,0.0,0.0,0.0,0.0,0.0,0.0,0.0,0.0,3.2684,0.0,0.0,0.0,0.0,0.0,0.0,0.0,0.0,0.0,0.0,0.0,4.3133,4.5776,4.6864,4.7765,4.8858,4.8485,4.8131,0.0,0.0,0.0,0.0,0.0,0.0,0.0,0.0,0.0,0.0,0.0,0.0,0.0,0.0,4.7923,4.606,4.5583,4.5422,4.5192,0.0,0.0,0.0,0.0,0.0,0.0,0.0,0.0,0.0,0.0,0.0,0.0,0.0,0.0,0.0,0.0,3.6169,0.0,0.0,0.0,0.0,0.0,0.0,0.0,0.0,4.0068,4.1145,4.1773,4.2432,4.278,0.0,4.2531,4.1753,0.0,0.0,0.0,0.0,0.0,0.0,0.0,0.0,4.3249,4.4337,4.6281,4.7298,4.7298,4.7298,4.6465,4.4777,4.2352,3.9242,3.5424,3.352,3.2074,0.0,0.0,0.0,0.0,0.0,0.0,0.0,0.0,0.0,0.0,0.0,0.0,0.0,0.0,0.0,0.0,0.0,0.0,0.0,0.0,0.0,0.0,0.0,3.3717,0.0,0.0,0.0,0.0,0.0,0.0,0.0,0.0,0.0,4.1142,4.2887,4.4908,4.6958,4.7353,4.7926,4.923,0.0,0.0,0.0,0.0,0.0,0.0,0.0,4.8143,4.867,4.8821,4.9197,5.0309,5.1088,5.18,5.2528,0.0,0.0,4.9307,4.8695,4.857,4.857,4.9147,4.9715,4.9907,5.0535,5.1122,0.0,0.0,0.0,0.0,0.0,0.0,0.0,0.0,3.8901,3.8272,0.0,3.7635,0.0,0.0,0.0,0.0,0.0,3.926,0.0,0.0,4.3728,4.4975,4.4396,4.5005,4.5334,4.5304,4.4725,4.4396,4.4247,4.1853,0.0,0.0,0.0,0.0,0.0,0.0,4.3718,4.4426,4.6381,4.7358,4.7298,4.7328,4.6128,4.3559,4.0,3.7599,3.6496,3.5367,3.4288,3.3251,3.211,0.0,0.0,0.0,0.0,0.0,0.0,0.0,0.0,0.0,0.0,0.0,0.0,0.0,0.0,0.0,0.0,0.0,0.0,0.0,0.0,3.4535,0.0,0.0,0.0,0.0,0.0,0.0,0.0,0.0,0.0,0.0,4.3366,4.5049,4.6562,4.7129,0.0,0.0,0.0,0.0,4.8868,4.8903,4.9346,4.969,4.9707,4.969,4.9875,5.0427,0.0,0.0,5.3582,5.3808,5.3858,5.3858,5.4737,5.4805,5.2678,5.185,5.149,5.149,5.2302,5.2812,5.2477,5.3155,5.3858,4.2383,0.0,0.0,0.0,0.0,4.1913,4.2462,4.2901,4.2691,4.1992,4.0963,4.0963,0.0,0.0,0.0,0.0,0.0,0.0,4.2292,4.323,4.4636,4.5454,4.5732,4.6401,4.6711,4.6741,4.701,4.689,4.6431,4.6172,4.4417,4.1313,0.0,0.0,0.0,0.0,4.5523,4.5822,4.7709,4.8259,4.7298,4.7769,4.656,4.3551,4.0354,3.8517,3.819,3.7098,3.6168,3.5452,3.4008,0.0,0.0,0.0,0.0,0.0,0.0,0.0,0.0,0.0,0.0,0.0,0.0,0.0,0.0,0.0,0.0,0.0,0.0,0.0,3.5261,3.685,3.7511,0.0,0.0,0.0,0.0,0.0,0.0,0.0,0.0,0.0,4.7672,4.7531,4.7807,0.0,0.0,4.9248,4.9624,4.9841,5.0092,5.051,5.1038,0.0,0.0,5.1707,5.2134,5.2661,5.4017,5.5121,5.5422,5.6143,5.6696,5.6671,5.6947,5.6947,5.6369,5.544,5.482,5.4863,5.5372,5.5756,5.568,5.6219,5.6671,4.5546,4.4399,4.3677,4.3297,4.3229,4.3828,4.4337,4.4666,4.4416,4.3868,4.3179,4.314,4.2561,4.1594,4.1545,0.0,0.0,0.0,4.4077,4.5144,4.6052,4.67,4.7119,4.7788,4.8098,4.8087,4.8487,4.8487,4.8098,4.8498,4.751,4.5196,0.0,0.0,4.4545,4.6221,4.7089,4.7149,4.8558,4.8768,4.7717,4.6861,4.5233,4.2798,4.0445,3.922,3.9195,3.8341,3.7612,3.7048,3.5867,3.465,0.0,0.0,0.0,0.0,0.0,0.0,0.0,0.0,0.0,0.0,0.0,3.2426,3.21,0.0,0.0,0.0,3.4333,3.5867,3.7892,3.9264,0.0,0.0,0.0,0.0,0.0,0.0,0.0,4.6994,4.8501,4.9732,5.0469,5.0193,4.9975,5.0243,5.0284,5.0393,5.072,0.0,5.1281,5.185,5.2385,5.2804,5.3055,5.3532,5.416,5.4895,5.6018,5.6846,5.6878,5.7474,5.7876,5.7926,5.8058,5.8208,5.8208,5.7801,5.7349,5.6972,5.7305,5.7606,5.7405,5.7807,5.8227,4.8268,4.732,4.565,4.4808,4.4606,4.5185,4.5454,4.5434,4.4815,4.4516,4.4446,4.4446,4.4157,4.3629,4.3638,0.0,4.4636,4.5274,4.5892,4.657,4.7829,4.8368,4.8397,4.9007,4.9288,4.9288,4.9348,4.9366,4.9366,4.9468,4.9527,4.9498,4.8368,4.7358,4.6659,4.7818,4.8427,4.8397,4.9108,4.9082,4.825,4.5204,4.2988,4.1707,4.0389,3.971,3.9672,3.9245,3.8705,3.8165,3.76,3.6307,3.4349,0.0,0.0,0.0,0.0,0.0,0.0,0.0,0.0,0.0,0.0,0.0,0.0,0.0,0.0,3.4963,3.6782,0.0,4.0932,4.1743,0.0,0.0,0.0,4.5357,4.6436,4.7531,4.8611,4.9741,0.0,0.0,5.2151,5.2711,5.2678,5.1691,5.1565,5.1565,5.1582,5.2,5.246,5.2945,5.3507,5.4052,5.4579,5.5182,5.5892,5.6778,5.7556,5.7926,5.8027,5.8127,5.8102,5.8278,5.8585,5.8956,5.8911,5.9307,5.9307,5.8303,5.8434,5.861,5.8183,5.8504,5.8886,4.9053,4.8809,4.8374,4.7573,4.661,4.677,4.683,4.683,4.667,4.6311,4.5822,4.5832,4.5743,4.5642,4.6121,4.67,4.735,4.7519,4.7959,4.8588,4.8929,4.9037,4.9078,4.9228,4.9288,4.9318,4.9763,4.9979,5.0039,5.102,5.1498,5.151,5.169,5.0732,4.8697,4.9363,4.9512,4.9067,5.0193,4.9927,4.8218,4.5628,4.3612,4.2238,4.0594,3.971,3.971,3.9584,3.9434,3.927,3.8329,3.7563,3.7061,3.5317,0.0,0.0,0.0,0.0,0.0,0.0,0.0,0.0,0.0,3.5831,3.5831,0.0,3.7673,0.0,3.955,4.1449,4.2947,4.4393,0.0,0.0,4.7129,4.8074,4.8736,4.9791,5.0921,5.1983,5.2603,5.3181,5.3901,5.4102,5.4102,5.3843,5.3818,5.3818,5.3801,5.3901,5.4027,5.4202,5.4655,5.5189,5.5792,5.6671,5.7374,5.765,5.8177,5.8654,5.9056,5.9483,5.9885,6.0306,6.0487,6.0588,6.0563,6.0733,6.0532,5.9885,5.9533,5.9282,5.9156,5.9533,5.9915,4.9288,4.9288,4.9288,4.8858,4.8188,4.8188,4.8199,4.8188,4.8188,4.7978,4.7638,4.7649,4.7649,4.7668,4.8038,4.8409,4.8738,4.8738,4.8947,4.9318,4.9565,4.9714,4.9733,5.0002,5.0283,5.0582,5.0918,5.1236,5.1576,5.2288,5.2648,5.2648,5.3007,5.248,5.1103,5.1079,5.0769,5.0152,4.9952,4.9044,4.7351,4.4875,4.2913,4.1583,4.0349,3.971,3.971,3.971,3.971,3.9685,3.9094,3.8542,3.8002,3.6622,3.5442,0.0,0.0,0.0,0.0,0.0,0.0,0.0,0.0,0.0,0.0,0.0,4.0784,4.1707,4.3141,4.4589,4.6072,4.7505,4.8602,4.9264,5.0318,5.1188,5.1766,5.2369,5.2997,5.3582,5.3909,5.4245,5.4572,5.5031,5.5308,5.5333,5.576,5.5709,5.4798,5.4597,5.4748,5.5232,5.5566,5.6168,5.7129,5.7832,5.8353,5.8604,5.9056,5.9514,5.979,6.0337,6.0814,6.1115,6.119,6.119,6.119,6.119,6.1065,6.0788,6.0462,6.0186,5.991,6.0311,6.0713,4.9617,4.9546,4.9546,4.9546,4.9546,4.9546,4.9468,4.9288,4.9288,4.9288,4.9288,4.9288,4.9288,4.9288,4.9288,4.9348,4.9396,4.9426,4.9468,4.9576,5.0069,5.0357,5.0476,5.1056,5.1666,5.2306,5.2336,5.2648,5.3198,5.3276,5.3348,5.3336,5.3438,5.3426,5.3306,5.2755,5.2037,5.1194,4.9318,4.7742,4.6407,4.3993,4.2008,4.068,4.0086,3.9785,3.971,3.971,3.971,3.971,3.9772,3.9333,3.8291,3.7851,3.7161,0.0,3.6564,0.0,0.0,0.0,0.0,0.0,0.0,0.0,0.0,4.2402,4.3949,4.617,4.6959,4.7972,4.9536,5.07,5.1647,5.2361,5.3256,5.4034,5.4622,5.4647,5.4647,5.4798,5.4823,5.4805,5.4981,5.5792,5.6445,5.6495,5.7148,5.7047,5.5509,5.5132,5.5527,5.6319,5.6477,5.7104,5.8259,5.8685,5.8987,5.9508,5.9935,6.0342,6.0518,6.0964,6.1316,6.1411,6.1466,6.1441,6.1391,6.1436,6.1411,6.1336,6.1336,6.1165,6.0638,6.0889,6.1285,5.1319,5.084,5.0828,5.0828,5.0828,5.084,5.0253,4.9288,4.9288,4.9288,4.9288,4.9288,4.9288,4.9288,4.9288,4.9565,5.0051,5.0039,5.032,5.084,5.0978,5.1307,5.1828,5.1935,5.2366,5.2977,5.3007,5.3067,5.3198,5.3743,5.4012,5.403,5.4563,5.4551,5.403,0.0,0.0,0.0,4.9966,4.8545,4.6952,4.5194,4.3258,4.1232,4.0638,0.0,3.9722,3.971,3.971,3.9697,4.0111,0.0,0.0,0.0,0.0,0.0,0.0,0.0,0.0,0.0,0.0,0.0,4.5904,4.5465,4.4387,4.6068,4.7682,4.8797,5.0047,5.1166,5.2127,5.3217,5.3971,5.412,5.4321,5.4629,5.5157,5.4881,5.4924,5.5792,5.5892,5.6068,5.6477,5.7173,5.7575,5.76,5.7775,5.7725,5.7374,5.7198,5.7323,5.7575,5.7857,5.8309,5.8641,5.9106,5.9583,6.0016,6.0191,6.0668,6.1441,6.1718,6.2044,6.235,6.2501,6.2476,6.245,6.2501,6.23,6.1943,6.2174,6.2199,6.1266,6.1486,6.1843,5.2486,0.0,5.2187,5.2187,0.0,5.2187,5.1798,5.1204,5.0522,5.0253,5.0253,5.0223,5.0242,5.0242,5.0253,5.0391,5.0686,5.1026,5.1355,5.1708,5.2025,5.2366,5.2677,5.2707,5.3037,5.3683,5.3695,5.3875,5.4204,5.485,5.5192,5.5222,5.582,5.5807,5.5192,5.4521,5.3171,5.1141,4.9898,4.8488,4.692,4.4913,4.3299,4.216,0.0,0.0,0.0,0.0,0.0,0.0,0.0,0.0,0.0,0.0,0.0,4.1756,4.2757,4.3675,4.4396,4.5715,4.6895,4.7876,4.9071,4.9178,4.7751,4.9229,5.0633,5.154,5.2555,5.3404,5.4077,5.4888,5.5491,5.5767,5.6061,5.6363,5.6545,5.6413,5.6445,5.6897,5.7047,5.7129,5.7405,5.8202,5.8654,5.873,5.9182,5.9483,5.9408,5.8554,5.7976,5.8278,5.8987,5.9489,5.9558,5.996,6.0387,6.0713,6.0944,6.1346,6.1893,6.2225,6.2501,6.2752,6.2802,6.2802,6.2802,6.2802,6.2701,6.2501,6.2581,6.2656,6.2074,6.2199,6.24,5.3306,5.3198,5.3198,5.3198,5.3198,5.3198,5.3198,5.3109,0.0,0.0,0.0,5.1265,5.1265,5.1367,5.1355,5.1445,5.1606,5.2139,5.2366,5.2408,5.2959,5.3246,5.3378,5.3486,5.3905,5.4551,5.467,5.4999,5.5538,5.6102,5.6372,5.6402,5.6855,5.6868,5.6312,5.5269,5.3723,5.1727,5.0159,4.865,4.7071,4.4914,4.3576,4.314,4.2244,4.1704,4.1603,4.1603,4.1667,4.1754,4.2283,4.2663,4.2802,4.3804,4.4403,4.4583,4.5708,4.6581,4.7019,4.8201,4.9131,4.9638,5.1423,5.2151,5.1222,5.1983,5.2955,5.3934,5.4454,5.4981,5.5634,5.605,5.6552,5.7104,5.7625,5.7901,5.8001,5.7951,5.7851,5.8027,5.8008,5.8077,5.8227,5.9031,5.9709,5.9885,6.0507,6.119,6.0984,5.9703,5.883,5.9232,5.996,6.0437,6.0512,6.0788,6.121,6.1336,6.1692,6.2019,6.2174,6.2501,6.2777,6.2802,6.2802,6.2802,6.2802,6.2802,6.2802,6.2802,6.2802,6.2802,6.2802,6.2802,6.2777,5.3743,5.3198,5.3198,5.3198,5.3198,5.3198,5.3198,5.3126,5.2366,5.2067,5.2037,5.1457,5.1517,5.2067,5.2067,5.2366,5.2917,5.3019,5.3037,0.0,5.3169,5.3516,5.4059,5.4653,5.5251,5.591,5.6419,5.6748,5.6825,5.6928,5.6987,5.6987,5.7047,5.7064,5.6958,5.6795,5.592,5.4369,5.2289,5.0365,4.8622,4.7349,4.5717,4.3814,4.3539,4.3237,4.276,4.276,4.2975,4.3424,4.3976,4.4478,4.5035,4.6035,4.6863,4.7305,4.802,4.8809,4.975,5.0493,5.1515,5.2896,5.3793,5.417,5.4027,5.4152,5.4504,5.5089,5.5257,5.5691,5.6627,5.6835,5.7136,5.77,5.7851,5.8077,5.851,5.8208,5.8133,5.856,5.8585,5.8805,5.9257,5.9815,6.0412,6.0858,6.1185,6.124,6.126,6.0959,6.0783,6.0833,6.0959,6.1085,6.109,6.1135,6.1441,6.1818,6.1969,6.2174,6.2551,6.2727,6.2802,6.2802,6.2802,6.2802,6.2802,6.2802,6.2802,6.2802,6.2802,6.2802,6.2802,6.2802,6.2802,5.4551,5.4294,5.4281,5.4306,5.4294,5.4294,5.4294,5.4204,5.3563,5.3084,5.2737,5.2396,5.2468,5.2737,5.2737,5.2929,5.3216,5.3575,5.3755,5.3815,5.4503,5.4982,5.5354,5.594,5.6376,5.6701,5.6958,5.7094,5.7124,5.7453,5.7649,5.7649,5.7649,5.7663,5.762,5.7274,5.6776,5.6068,5.4327,5.2181,4.9714,4.8905,4.7577,4.5642,4.5307,4.5045,4.4794,4.4794,4.5045,4.5583,4.6085,4.6677,4.727,4.8294,4.8981,4.9273,5.0352,5.123,5.1732,5.2578,5.3524,5.4536,5.4881,5.5157,5.5458,5.5207,5.5257,5.5792,5.6075,5.6602,5.7405,5.7757,5.8158,5.8704,5.8755,5.888,5.9056,5.8956,5.8961,5.9483,5.9564,5.9809,6.0337,6.0889,6.1291,6.1617,6.1843,6.2044,6.2044,6.2044,6.1843,6.1361,6.1416,6.1617,6.1642,6.1893,6.2124,6.2425,6.2425,6.2526,6.2777,6.2802,6.2802,6.2802,6.2802,6.2802,6.2802,6.2802,6.2802,6.2802,6.2802,6.2802,6.2802,6.2802,6.2802,5.5628,5.5641,5.5641,5.5641,5.5641,5.5641,5.5628,5.5568,5.5102,5.4503,5.3875,5.3438,5.3276,5.3426,5.3426,5.3575,5.3905,5.4401,5.473,5.497,5.591,5.6402,5.6492,5.7034,5.7393,5.7556,5.7693,5.7855,5.8052,5.8547,5.8786,5.8756,5.8637,5.8547,5.8547,5.7889,5.7543,5.7477,5.6431,5.4373,5.1463,5.0581,4.9504,4.8121,4.7278,4.6928,4.7014,4.7054,4.729,4.7817,4.8243,4.8786,4.9506,5.0444,5.1005,5.1256,5.2485,5.3264,5.3339,5.4228,5.5024,5.5516,5.5691,5.5993,5.6451,5.6219,5.6043,5.6376,5.6709,5.7255,5.7983,5.8554,5.9087,5.9608,5.9809,5.9904,5.9904,5.9885,6.0035,6.0437,6.0493,6.0713,6.1266,6.1743,6.2019,6.2195,6.2551,6.2777,6.2802,6.2802,6.24,6.1943,6.1918,6.2149,6.222,6.2476,6.2727,6.2802,6.2777,6.2777,6.2802,6.2802,6.2802,6.2802,6.2802,6.2802,6.2802,6.2802,6.2802,6.2802,6.2802,6.2802,6.2802,6.2802,6.2802,5.6915,5.6928,5.6855,5.6915,5.6855,5.6885,5.6855,5.6855,5.6825,5.6509,5.5713,5.4007,5.3605,5.4072,5.4132,5.4773,5.582,5.597,5.6282,5.6705,5.6958,5.7017,5.7094,5.7709,5.8338,5.8919,5.9472,5.9997,6.0462,6.0671,6.0791,6.0761,6.0206,5.9891,5.9831,5.9249,5.8906,5.8919,5.8798,5.7345,5.459,5.2994,5.1759,5.0849,4.9366,4.8802,4.9316,4.9305,4.954,5.0051,5.0126,5.067,5.1674,5.2335,5.287,5.3356,5.4052,5.4429,5.4479,5.5006,5.5591,5.6093,5.6577,5.7054,5.7625,5.765,5.7405,5.7129,5.6985,5.7537,5.8485,5.9087,5.9633,6.0091,6.0638,6.104,6.0959,6.1059,6.1085,6.111,6.109,6.1316,6.1818,6.2019,6.2199,6.2601,6.2727,6.2802,6.2802,6.2802,6.2802,6.2626,6.2701,6.2676,6.2701,6.2752,6.2802,6.2802,6.2802,6.2802,6.2802,6.2802,6.2802,6.2802,6.2802,6.2802,6.2802,6.2802,6.2802,6.2802,6.2802,6.2802,6.2802,6.2852,6.2877,5.7094,5.7094,5.7094,5.7094,5.7094,5.7094,5.7094,5.7094,5.7094,5.6958,5.6658,5.585,5.5461,5.5371,5.5371,5.588,5.6688,5.6731,5.6838,5.7124,5.7513,5.7902,5.8321,5.8979,5.9638,6.0252,6.0551,6.0821,6.106,6.109,6.109,6.109,6.0805,6.0671,6.0685,6.0416,6.0282,6.0296,6.0282,5.9694,5.8507,5.6593,5.4939,5.3667,5.2401,5.1847,5.1952,5.1166,5.0845,5.1331,5.1406,5.19,5.2962,5.3256,5.3632,5.4228,5.5082,5.586,5.6495,5.6764,5.6972,5.7198,5.7399,5.7631,5.7851,5.7901,5.7901,5.8008,5.8008,5.8234,5.871,5.9463,6.006,6.0362,6.0839,6.119,6.119,6.119,6.1291,6.1612,6.1667,6.1868,6.2325,6.2476,6.2576,6.2777,6.2802,6.2802,6.2802,6.2802,6.2802,6.2802,6.2802,6.2802,6.2802,6.2802,6.2802,6.2802,6.2802,6.2802,6.2802,6.2802,6.2802,6.2802,6.2802,6.2802,6.2802,6.2802,6.2802,6.2852,6.2827,6.2802,6.2802,6.3078,6.3299,5.7633,5.7633,5.7646,5.7646,5.7633,5.7633,5.7646,5.7663,5.7633,5.7543,5.7393,5.7393,5.7137,5.6718,5.6539,5.6778,5.7334,5.7573,5.7752,5.7962,5.8607,5.9175,5.9684,6.0146,6.0715,6.1269,6.1359,6.1493,6.1613,6.1642,6.1628,6.1642,6.1449,6.1373,6.1359,6.121,6.109,6.109,6.109,6.0894,6.0209,5.8972,5.7415,5.5841,5.4613,5.3892,5.3524,5.2393,5.1925,5.2302,5.2452,5.2879,5.3632,5.4135,5.4712,5.5458,5.6219,5.7022,5.7851,5.7901,5.7951,5.8083,5.8127,5.8183,5.8322,5.8328,5.8504,5.8836,5.9037,5.9137,5.9238,6.001,6.0543,6.0744,6.1291,6.1642,6.1667,6.1617,6.1818,6.2124,6.2199,6.235,6.2701,6.2777,6.2777,6.2802,6.2802,6.2802,6.2802,6.2802,6.2802,6.2802,6.2802,6.2802,6.2802,6.2802,6.2802,6.2802,6.2802,6.2802,6.2802,6.2802,6.2802,6.2802,6.2802,6.2827,6.2877,6.2852,6.3103,6.3153,6.3078,6.2978,6.3078,6.335,6.3475,5.9009,5.8979,5.9009,5.8979,5.9009,5.9009,5.8996,5.8996,5.8979,5.8667,5.8145,5.8055,5.8025,5.7979,5.7453,5.7453,5.8115,5.8697,5.9279,5.9861,6.0521,6.094,6.103,6.106,6.1389,6.2002,6.2061,6.2345,6.2884,6.2958,6.3018,6.2958,6.2345,6.2032,6.1986,6.1509,6.115,6.1269,6.1239,6.0399,5.9044,5.9213,5.8562,5.68,5.5382,5.4107,5.3173,5.2898,5.2837,5.287,5.3306,5.3632,5.3858,5.5239,5.6527,5.7524,5.775,5.7826,5.7951,5.8027,5.8202,5.8585,5.871,5.8905,5.9307,5.9357,5.9408,5.9483,5.9915,6.0166,6.0292,6.0788,6.1316,6.1748,6.2325,6.2601,6.2676,6.2551,6.2701,6.2727,6.2701,6.2701,6.2802,6.2802,6.2802,6.2802,6.2802,6.2802,6.2802,6.2802,6.2802,6.2802,6.2802,6.2802,6.2802,6.2802,6.2802,6.2802,6.2802,6.2802,6.2802,6.2802,6.2802,6.2802,6.2802,6.2852,6.2927,6.3203,6.3626,6.3676,6.3329,6.3254,6.34,6.3103,6.34,5.9099,5.9159,5.9578,5.9741,5.9801,6.0206,6.0372,6.0342,5.9921,5.9621,5.9308,5.8936,5.8979,5.9368,5.9142,5.9142,5.9398,5.9638,6.0086,6.0701,6.1,6.1329,6.1732,6.1718,6.2091,6.2674,6.2734,6.2854,6.3078,6.3108,6.3108,6.3078,6.2898,6.2734,6.2704,6.2495,6.2375,6.2375,6.2375,6.1524,5.9878,6.0033,5.8859,5.6133,5.543,5.4912,5.4508,5.3495,5.3063,5.3389,5.359,5.4185,5.529,5.6545,5.7606,5.8284,5.8409,5.8579,5.8905,5.9238,5.9338,5.9232,5.9558,5.9765,5.9985,6.0016,6.0161,6.0532,6.0713,6.0989,6.1321,6.1572,6.1793,6.2019,6.2476,6.2802,6.2802,6.2802,6.2802,6.2802,6.2802,6.2802,6.2802,6.2802,6.2802,6.2802,6.2802,6.2802,6.2802,6.2802,6.2802,6.2802,6.2802,6.2802,6.2802,6.2802,6.2802,6.2802,6.2802,6.2802,6.2802,6.2802,6.2802,6.2802,6.2802,6.2927,6.3028,6.3329,6.3802,6.3676,6.3354,6.3525,6.3701,6.3701,6.4128,5.9548,5.9787,5.9997,6.025,6.0475,6.088,6.109,6.103,6.0625,6.0416,6.0326,5.9937,6.0027,6.0386,6.0429,6.0579,6.0729,6.0745,6.0984,6.1419,6.1628,6.2002,6.2375,6.2435,6.2644,6.3048,6.3108,6.3108,6.3108,6.3108,6.3108,6.3108,6.3108,6.3108,6.3108,6.3108,6.3108,6.305,6.257,6.1392,5.9887,5.9151,5.7537,5.5091,5.4747,5.4851,5.4834,5.3749,5.3432,5.3934,5.431,5.5247,5.6878,5.7732,5.8485,5.9087,5.9238,5.9463,5.9985,6.0387,6.0412,6.0105,6.0362,6.0568,6.0588,6.0613,6.0814,6.111,6.1386,6.1617,6.1918,6.2124,6.225,6.2275,6.2601,6.2802,6.2802,6.2802,6.2802,6.2802,6.2802,6.2802,6.2802,6.2802,6.2802,6.2802,6.2802,6.2802,6.2802,6.2802,6.2802,6.2802,6.2802,6.2802,6.2802,6.2802,6.2802,6.2802,6.2802,6.2802,6.2802,6.2802,6.2802,6.2802,6.2877,6.3028,6.3229,6.3525,6.3576,6.3505,6.3601,6.3797,6.4099,6.45,6.4802,6.0475,6.088,6.0386,6.0565,6.109,6.1239,6.118,6.1253,6.115,6.109,6.106,6.103,6.094,6.1104,6.109,6.1463,6.1942,6.2016,6.2016,6.2151,6.2674,6.2958,6.3018,6.2988,6.3018,6.3108,6.3108,6.3108,6.3108,6.3108,6.3108,6.3108,6.3108,6.3108,6.3108,6.3108,6.3108,6.2803,6.16,5.9872,5.8068,5.665,5.5015,5.3349,5.3547,5.3859,5.3822,5.376,5.4009,5.4655,5.5541,5.6928,5.8208,5.866,5.9162,5.9966,6.0217,6.0563,6.1034,6.116,6.1165,6.1034,6.116,6.1165,6.119,6.1185,6.126,6.1436,6.1743,6.2044,6.2124,6.245,6.2727,6.2781,6.2802,6.2802,6.2802,6.2802,6.2802,6.2802,6.2802,6.2802,6.2802,6.2802,6.2802,6.2802,6.2802,6.2802,6.2802,6.2802,6.2802,6.2802,6.2802,6.2802,6.2802,6.2802,6.2802,6.2802,6.2802,6.2802,6.2802,6.2802,6.2802,6.2802,6.2802,6.2978,6.3802,6.4073,6.4103,6.4078,6.4099,6.4099,6.435,6.4701,6.5053,6.091,6.1164,6.1403,6.1583,6.1852,6.2285,6.2465,6.2405,6.2016,6.1778,6.1702,6.1299,6.1373,6.1732,6.1792,6.2151,6.2764,6.2794,6.2764,6.2824,6.3003,6.3108,6.3108,6.3108,6.3108,6.3108,6.3108,6.3108,6.3108,6.3108,6.3108,6.3108,6.3108,6.3108,6.3138,6.3108,6.3108,6.289,6.1377,5.9675,5.8036,5.6304,5.4601,5.3161,5.3414,5.3901,5.4278,5.4328,5.478,5.5641,5.6,5.6953,5.8384,5.9037,5.9583,6.0191,6.0292,6.0563,6.114,6.1542,6.1612,6.1386,6.1517,6.1743,6.1743,6.1743,6.1918,6.222,6.245,6.2551,6.2601,6.2656,6.2802,6.2802,6.2802,6.2827,6.2852,6.2827,6.2802,6.2802,6.2802,6.2802,6.2827,6.2827,6.2827,6.2902,6.2877,6.2852,6.2827,6.2877,6.2802,6.2802,6.2802,6.2802,6.2802,6.2802,6.2802,6.2877,6.2902,6.2978,6.2952,6.2927,6.2902,6.2927,6.2902,6.3324,6.4124,6.4425,6.4425,6.4605,6.4655,6.4651,6.4601,6.4953,6.5505,6.1613,6.1852,6.2032,6.2241,6.2495,6.2944,6.3108,6.3048,6.2674,6.2465,6.2375,6.2032,6.2061,6.2405,6.2465,6.2704,6.3078,6.3108,6.3108,6.3108,6.3108,6.3108,6.3108,6.3108,6.3108,6.3168,6.3333,6.3317,6.3123,6.3303,6.3303,6.3168,6.3333,6.3452,6.3482,6.3692,6.3707,6.3206,6.1342,5.9617,5.8132,5.6206,5.4586,5.3781,5.4059,5.4604,5.5157,5.5383,5.5792,5.6451,5.6878,5.7832,5.9162,5.9639,6.0136,6.0769,6.097,6.1215,6.1743,6.2144,6.2195,6.1918,6.2119,6.2275,6.23,6.232,6.2476,6.2727,6.2802,6.2802,6.2802,6.2802,6.2802,6.2802,6.2802,6.2902,6.3028,6.3128,6.3153,6.3174,6.3153,6.3128,6.3128,6.2902,6.3028,6.3254,6.3254,6.3128,6.3128,6.3153,6.3078,6.2927,6.2802,6.2802,6.2802,6.2802,6.2802,6.2927,6.3053,6.3178,6.3299,6.3299,6.3274,6.34,6.3425,6.3952,6.4701,6.4551,6.45,6.4827,6.5157,6.5057,6.5078,6.5832,6.6359,6.2525,6.3018,6.2435,6.2525,6.3018,6.3108,6.3108,6.3108,6.3078,6.3003,6.3048,6.2958,6.2988,6.3078,6.2988,6.3048,6.3108,6.3108,6.3108,6.3138,6.3168,6.3227,6.3108,6.3108,6.3168,6.3317,6.3722,6.3722,6.3452,6.3827,6.3709,6.3117,6.3666,6.3904,6.3861,6.4546,6.459,6.3788,6.1288,5.9511,5.8725,5.6071,5.4635,5.4597,5.5082,5.5616,5.6143,5.6778,5.7111,5.7236,5.8158,5.9137,6.0041,6.0317,6.0839,6.1768,6.1969,6.2195,6.2601,6.2676,6.2701,6.2651,6.2752,6.2807,6.2752,6.2877,6.2978,6.2978,6.3003,6.3003,6.3028,6.3028,6.3028,6.2952,6.3003,6.3178,6.3576,6.3697,6.3726,6.3747,6.3726,6.3726,6.3726,6.3304,6.355,6.3973,6.3973,6.3797,6.3726,6.3651,6.345,6.3324,6.3229,6.3274,6.3425,6.3425,6.345,6.355,6.3605,6.368,6.3701,6.3651,6.3852,6.3977,6.4023,6.4601,6.4978,6.4902,6.4953,6.5304,6.5434,6.5358,6.576,6.6485,6.689,6.2944,6.3063,6.2884,6.2944,6.3108,6.3108,6.3108,6.3108,6.3108,6.3108,6.3108,6.3108,6.3108,6.3108,6.3108,6.3108,6.3108,6.3108,6.3108,6.3197,6.3602,6.3452,6.3197,6.3138,6.3363,6.3752,6.3977,6.4156,6.447,6.465,6.3995,6.2639,6.4055,6.4054,6.316,6.4366,6.4875,6.4308,6.145,5.9756,5.9106,5.6331,5.4851,5.5207,5.5717,5.6276,5.6878,5.8133,5.861,5.8359,5.9288,5.9966,6.0367,6.0738,6.1291,6.1868,6.2044,6.2225,6.2701,6.2827,6.2827,6.2852,6.3249,6.3274,6.2877,6.3576,6.3751,6.3651,6.3797,6.4023,6.4023,6.3977,6.4002,6.3998,6.3701,6.3576,6.3776,6.4048,6.4274,6.432,6.43,6.43,6.4249,6.4128,6.4128,6.4425,6.4425,6.432,6.43,6.4274,6.4124,6.4128,6.4103,6.4099,6.4099,6.4099,6.4149,6.4274,6.4329,6.4404,6.4279,6.4099,6.4454,6.4781,6.4475,6.4802,6.5279,6.5459,6.566,6.5735,6.5886,6.5936,6.6384,6.6962,6.7241,6.3108,6.3108,6.3108,6.3108,6.3108,6.3108,6.3108,6.3108,6.3108,6.3108,6.3108,6.3108,6.3108,6.3108,6.3108,6.3108,6.3108,6.3108,6.3257,6.3602,6.4126,6.4216,6.3917,6.3692,6.3812,6.4366,6.4425,6.462,6.4964,6.5278,6.4632,6.3956,6.4753,6.4826,6.4203,6.5077,6.5652,6.4914,6.2256,6.0447,5.9918,5.7198,5.5988,5.6143,5.6646,5.723,5.8083,5.9232,5.9583,5.9382,6.006,6.0769,6.102,6.1316,6.1793,6.2275,6.2325,6.2576,6.3053,6.3178,6.3279,6.35,6.3898,6.3847,6.3701,6.4174,6.43,6.4124,6.435,6.445,6.45,6.45,6.45,6.4425,6.4425,6.4354,6.4375,6.445,6.4622,6.4773,6.4827,6.4852,6.4827,6.4651,6.4777,6.5003,6.5003,6.4902,6.4827,6.4827,6.4777,6.4701,6.4626,6.45,6.45,6.45,6.4626,6.4752,6.5028,6.5082,6.4957,6.4752,6.5003,6.5279,6.5003,6.5028,6.5631,6.5986,6.5886,6.6033,6.6287,6.6739,6.7188,6.7565,6.7794,6.3108,6.3108,6.3108,6.3108,6.3108,6.3108,6.3108,6.3108,6.3108,6.3108,6.3108,6.3108,6.3108,6.3108,6.3108,6.3108,6.3108,6.3108,6.3572,6.4096,6.474,6.5084,6.5159,6.4425,6.453,6.5009,6.5084,6.5203,6.5488,6.5906,6.5665,6.5213,6.5737,6.5994,6.5714,6.6514,6.6578,6.5272,6.2981,6.1123,6.0151,5.8118,5.7064,5.7255,5.7926,5.8654,5.9483,6.0191,6.0317,5.9809,6.0758,6.1416,6.1873,6.1974,6.2275,6.2676,6.2852,6.3128,6.3576,6.3701,6.3948,6.4274,6.445,6.4547,6.4496,6.4722,6.4923,6.4601,6.4726,6.5103,6.5128,6.4953,6.4953,6.5074,6.5254,6.5308,6.5283,6.4953,6.4852,6.5304,6.5383,6.5383,6.5258,6.5078,6.5028,6.5534,6.5509,6.5434,6.5383,6.5383,6.5229,6.5003,6.4902,6.4798,6.4827,6.4877,6.5049,6.5225,6.558,6.5731,6.5735,6.5609,6.566,6.5731,6.5756,6.5957,6.6338,6.6438,6.6338,6.6739,6.7292,6.7693,6.8067,6.8324,6.86,6.3108,6.3108,6.3108,6.3108,6.3108,6.3108,6.3138,6.3138,6.3138,6.3227,6.3138,6.3138,6.3168,6.3168,6.3227,6.3108,6.3227,6.3317,6.3692,6.4829,6.5458,6.6086,6.6191,6.5368,6.5218,6.5637,6.5787,6.6056,6.649,6.6608,6.6291,6.5648,6.6712,6.6872,6.5991,6.7086,6.6689,6.4819,6.3016,6.148,6.0004,5.8624,5.7907,5.8334,5.9238,6.006,6.0763,6.1366,6.1567,6.1567,6.1692,6.1994,6.2169,6.245,6.2727,6.2952,6.3324,6.3576,6.3751,6.4124,6.4396,6.4597,6.4978,6.4953,6.4647,6.5756,6.5882,6.5656,6.6262,6.6789,6.6789,6.6635,6.6409,6.6284,6.6112,6.5986,6.5936,6.5789,6.571,6.5886,6.5936,6.5914,6.5939,6.5886,6.5886,6.6065,6.6036,6.5936,6.5936,6.5936,6.5886,6.5731,6.5781,6.5781,6.5807,6.5807,6.5781,6.5832,6.6108,6.6434,6.6413,6.6388,6.6388,6.6513,6.6686,6.689,6.7015,6.7292,6.7267,6.7819,6.8321,6.8748,6.9074,6.9253,6.9406,6.3707,6.3947,6.3647,6.3707,6.3977,6.3977,6.3977,6.3977,6.4006,6.4006,6.4006,6.3977,6.3977,6.4006,6.3977,6.4006,6.4096,6.4336,6.4814,6.5547,6.6146,6.664,6.6819,6.64,6.6146,6.646,6.646,6.6849,6.7343,6.77,6.7701,6.7083,6.8012,6.8014,6.7206,6.7918,6.7234,6.5367,6.3611,6.1998,6.0248,5.8936,5.873,5.9413,6.0286,6.0989,6.1542,6.1793,6.2119,6.235,6.2621,6.2797,6.2822,6.3073,6.3299,6.3626,6.3827,6.4224,6.4475,6.4726,6.4978,6.5254,6.5781,6.5857,6.5932,6.6764,6.7037,6.6811,6.7191,6.7794,6.7794,6.7593,6.7414,6.7339,6.7091,6.689,6.6789,6.6262,6.6011,6.6312,6.6513,6.6689,6.6764,6.6614,6.6538,6.6614,6.6165,6.6112,6.6513,6.6564,6.6786,6.6786,6.6887,6.689,6.689,6.6815,6.6686,6.6635,6.6635,6.6965,6.7166,6.7116,6.7041,6.7216,6.7367,6.7392,6.7568,6.7844,6.8271,6.8675,6.9152,6.9727,7.0129,7.028,7.0405,6.447,6.4964,6.4381,6.447,6.4934,6.4964,6.4934,6.4934,6.4994,6.4845,6.4994,6.4994,6.4815,6.4934,6.4904,6.4964,6.5114,6.5547,6.5832,6.5951,6.658,6.6999,6.7134,6.7119,6.7178,6.7284,6.7194,6.7523,6.8151,6.869,6.8774,6.9014,6.9106,6.8997,6.909,6.8633,6.7383,6.5295,6.3574,6.1916,6.0441,5.9325,5.9591,6.0468,6.0989,6.1567,6.1974,6.2199,6.2375,6.2902,6.3425,6.3726,6.3902,6.3873,6.3998,6.445,6.4626,6.4957,6.5308,6.5609,6.5961,6.6366,6.6764,6.7062,6.7188,6.7493,6.7769,6.7919,6.812,6.8321,6.8271,6.8371,6.8246,6.812,6.807,6.802,6.7668,6.6564,6.6485,6.6861,6.7091,6.7216,6.7317,6.7292,6.7213,6.7037,6.6564,6.6391,6.684,6.7087,6.7213,6.7389,6.7392,6.7618,6.7646,6.7646,6.7543,6.7417,6.7317,6.7543,6.7869,6.8023,6.7998,6.7897,6.7973,6.8098,6.8422,6.8921,6.9275,6.9554,6.9956,7.0531,7.0907,7.1257,7.1384,6.4904,6.4994,6.4889,6.4904,6.4994,6.5024,6.5084,6.4994,6.5114,6.5024,6.5054,6.5024,6.5114,6.5084,6.5024,6.5024,6.5338,6.5817,6.6101,6.6191,6.6759,6.7284,6.7688,6.7822,6.8092,6.8391,6.8211,6.8271,6.869,6.8974,6.9453,6.9768,6.9828,6.9828,6.9381,6.8288,6.6574,6.4684,6.2963,6.1251,5.9919,5.9937,6.0487,6.1446,6.1743,6.2144,6.2551,6.2701,6.2952,6.35,6.3646,6.4199,6.4705,6.4651,6.4597,6.4802,6.5383,6.586,6.6086,6.6815,6.7267,6.7543,6.7643,6.7693,6.7819,6.8196,6.8625,6.8701,6.9027,6.9479,7.0453,6.9951,6.9577,6.9328,6.9127,6.9002,6.8525,6.802,6.7514,6.7866,6.7844,6.7794,6.802,6.802,6.7744,6.754,6.7141,6.7141,6.7518,6.7493,6.7414,6.7568,6.7744,6.807,6.8324,6.8374,6.8324,6.8196,6.8145,6.8196,6.8525,6.8926,6.9002,6.8826,6.8901,6.9152,6.9526,6.9901,7.038,7.0734,7.1058,7.1284,7.1736,7.2138,7.2389,6.5727,6.6011,6.5667,6.5727,6.6011,6.6041,6.6041,6.6026,6.6041,6.6026,6.6026,6.6026,6.6026,6.6026,6.6041,6.6026,6.6146,6.6311,6.652,6.667,6.7194,6.7658,6.8107,6.8347,6.89,6.9259,6.9199,6.9139,6.9528,6.9871,7.0081,7.0366,7.0486,7.047,7.0022,6.8635,6.6639,6.4729,6.3093,6.1535,6.0155,6.0769,6.1497,6.1848,6.23,6.2701,6.3128,6.3254,6.355,6.4048,6.44,6.4978,6.5459,6.5781,6.5803,6.5882,6.6309,6.6714,6.6915,6.7568,6.7744,6.7844,6.8271,6.86,6.8851,6.9351,6.9828,6.9953,7.0029,7.048,7.0956,7.088,7.0604,7.038,7.0282,7.0156,6.9903,6.9627,6.9351,6.9021,6.8622,6.8648,6.9072,6.8871,6.8371,6.802,6.7719,6.7919,6.8249,6.817,6.8042,6.8472,6.8748,6.8848,6.9102,6.9077,6.9102,6.8977,6.8751,6.8826,6.9125,6.9504,6.9677,6.9627,6.9853,7.0106,7.0179,7.0378,7.1156,7.1786,7.1736,7.1836,7.2539,7.3042,7.3167,6.6745,6.7164,6.6759,6.6819,6.7164,6.7194,6.7164,6.7194,6.6999,6.6909,6.6999,6.6969,6.6999,6.7178,6.7343,6.7403,6.7403,6.7433,6.7448,6.7553,6.7942,6.8241,6.8586,6.893,6.9528,7.0067,7.0111,7.0171,7.0247,7.053,7.0799,7.0919,7.0949,7.0758,7.0103,6.8491,6.7214,6.5519,6.3792,6.2238,6.1708,6.1768,6.2074,6.2149,6.2576,6.3053,6.355,6.3626,6.4023,6.4551,6.5053,6.5559,6.6212,6.6736,6.7138,6.7414,6.7367,6.7568,6.7844,6.8321,6.8569,6.8645,6.9278,6.9629,6.9983,7.0608,7.1359,7.1435,7.1585,7.1535,7.1636,7.1585,7.1535,7.146,7.1535,7.1558,7.1359,7.1133,7.0907,7.0405,6.9627,6.9351,6.9577,6.9451,6.8899,6.8974,6.8698,6.8974,6.9228,6.9125,6.9172,6.9677,6.9953,6.9878,6.9903,6.983,6.9805,6.9752,6.9378,6.9177,6.9602,7.0029,7.0152,7.0277,7.0631,7.0857,7.0855,7.1006,7.1711,7.2114,7.2087,7.2464,7.3268,7.3544,7.3594,6.7808,6.7928,6.8421,6.8345,6.7912,6.7868,6.7898,6.7792,6.7343,6.6999,6.7178,6.7089,6.7433,6.7882,6.8451,6.8675,6.8675,6.8585,6.8525,6.8525,6.8764,6.9139,6.9618,6.9798,7.0201,7.0679,7.0783,7.0799,7.0739,7.0829,7.0949,7.1038,7.1343,7.0986,6.9507,6.8071,6.6147,6.4338,6.2508,6.1679,6.1898,6.2019,6.2275,6.2576,6.2827,6.3153,6.3726,6.3877,6.4325,6.5179,6.5329,6.5882,6.6686,6.6937,6.7844,6.85,6.8728,6.845,6.8751,6.9348,6.98,6.985,7.0455,7.0807,7.1234,7.1838,7.2516,7.2541,7.2892,7.2941,7.2692,7.2943,7.2941,7.2866,7.2841,7.2742,7.2566,7.2163,7.2012,7.1585,7.0734,7.0031,6.9805,6.9629,6.9454,6.9627,6.9803,7.0054,7.0204,7.0129,6.9976,7.0405,7.0932,7.0932,7.0681,7.0631,7.0556,7.0506,7.0104,6.9705,7.0129,7.0579,7.0704,7.0905,7.1284,7.1585,7.1636,7.1887,7.2365,7.2591,7.2717,7.3294,7.4047,7.4122,7.4072,6.89,6.8585,6.8884,6.8824,6.86,6.8571,6.8571,6.8511,6.8271,6.8136,6.8136,6.8136,6.8315,6.863,6.8914,6.8974,6.9004,6.9064,6.9004,6.9199,6.9409,6.9738,7.0097,7.0666,7.1158,7.1098,7.1501,7.1471,7.1232,7.0992,7.1038,7.1474,7.1625,7.1128,6.9227,6.7787,6.6214,6.4577,6.308,6.2301,6.24,6.2476,6.2576,6.2807,6.3103,6.3576,6.4053,6.4526,6.5153,6.6033,6.6237,6.6764,6.7693,6.8246,6.8876,6.97,7.0003,7.0029,7.0129,7.0529,7.0704,7.0905,7.1284,7.1786,7.2414,7.3142,7.3645,7.367,7.3895,7.387,7.3696,7.3896,7.387,7.387,7.3946,7.3595,7.3344,7.3117,7.2791,7.2339,7.1888,7.1286,7.0759,7.0706,7.0606,7.0455,7.0681,7.0983,7.1158,7.1234,7.1033,7.0907,7.146,7.1888,7.161,7.1384,7.1261,7.1184,7.0807,7.0581,7.0807,7.1106,7.1232,7.151,7.1937,7.2164,7.234,7.2516,7.2767,7.3093,7.3419,7.3896,7.4373,7.4775,7.4775,6.9947,6.9482,6.9482,6.9393,6.9243,6.9243,6.9259,6.9243,6.9004,6.8974,6.9064,6.9123,6.9213,6.9333,6.9453,6.9602,6.9542,6.9482,6.9482,6.9708,7.0097,7.0486,7.0905,7.1564,7.1876,7.1381,7.2279,7.2279,7.1787,7.1517,7.1727,7.1903,7.1609,7.0694,6.927,6.7506,6.5799,6.4142,6.3179,6.2763,6.2752,6.2777,6.2877,6.3103,6.35,6.4023,6.4651,6.5204,6.5986,6.6686,6.7087,6.7543,6.8374,6.8926,6.9579,7.0405,7.0958,7.1535,7.1485,7.1583,7.141,7.1661,7.2213,7.3018,7.382,7.4423,7.4599,7.4524,7.4549,7.4524,7.4449,7.4449,7.4549,7.4599,7.4749,7.4347,7.3996,7.387,7.3569,7.3067,7.2765,7.2715,7.2288,7.2113,7.1836,7.1435,7.156,7.1912,7.2163,7.2389,7.2389,7.2238,7.2539,7.2993,7.2742,7.2464,7.224,7.1861,7.1485,7.141,7.1636,7.1711,7.1761,7.2138,7.2466,7.2692,7.2866,7.2968,7.3118,7.3394,7.3694,7.4097,7.4549,7.5026,7.5377,7.0829,7.0769,7.0723,7.038,6.9947,6.9933,6.9947,6.9887,6.9303,6.9123,6.9273,6.9648,6.9917,7.0037,7.035,7.0603,7.0739,7.0769,7.0769,7.0979,7.1384,7.1607,7.1936,7.2325,7.2774,7.2654,7.3057,7.3027,7.2657,7.2254,7.2186,7.1921,7.1376,6.985,6.8217,6.6614,6.4907,6.3542,6.2899,6.2843,6.2827,6.2902,6.3124,6.35,6.3726,6.4153,6.5183,6.576,6.6438,6.7163,6.7665,6.8142,6.8851,6.9504,7.0257,7.1133,7.2012,7.2615,7.2866,7.2539,7.224,7.2742,7.347,7.4198,7.475,7.5026,7.5127,7.5151,7.5151,7.4951,7.4825,7.48,7.5101,7.5202,7.5251,7.5,7.4774,7.475,7.4398,7.3821,7.3569,7.3468,7.3595,7.3368,7.2791,7.2339,7.2715,7.3043,7.3468,7.372,7.3846,7.3871,7.3996,7.4122,7.4022,7.3721,7.3244,7.2767,7.2339,7.2339,7.2464,7.2439,7.2213,7.2365,7.2641,7.2993,7.3318,7.3343,7.3418,7.3644,7.3971,7.4397,7.4925,7.5477,7.5778,7.0903,7.0903,7.0903,7.0769,7.0576,7.053,7.053,7.0546,7.029,7.0155,7.0141,7.044,7.056,7.062,7.0739,7.1158,7.1457,7.1517,7.1727,7.2086,7.2385,7.2505,7.2774,7.3043,7.3313,7.3223,7.3582,7.3552,7.2887,7.276,7.1922,7.1365,7.1002,7.0003,6.8295,6.5653,6.3776,6.3209,6.2827,6.2827,6.2877,6.3178,6.3475,6.3651,6.4505,6.4982,6.576,6.6338,6.7091,6.7844,6.8447,6.8999,6.9602,7.0332,7.116,7.1962,7.2817,7.3494,7.3971,7.3669,7.357,7.3795,7.4423,7.5001,7.5302,7.5527,7.5703,7.5778,7.5703,7.5502,7.5602,7.5603,7.5753,7.5804,7.5703,7.5527,7.5352,7.5252,7.5001,7.4298,7.4197,7.4171,7.4373,7.4574,7.3871,7.3318,7.377,7.4172,7.4523,7.4749,7.4774,7.4799,7.4849,7.4749,7.4623,7.4373,7.4147,7.367,7.3167,7.3067,7.2991,7.2692,7.2541,7.2692,7.2792,7.3092,7.3343,7.3519,7.382,7.4247,7.4473,7.4699,7.5301,7.5878,7.6029,7.1009,7.1158,7.1009,7.0903,7.0903,7.0903,7.0903,7.0903,7.0873,7.0903,7.0903,7.1068,7.1052,7.1038,7.1427,7.1517,7.1923,7.2102,7.2475,7.2774,7.2997,7.3163,7.3432,7.3732,7.4031,7.3821,7.4197,7.4287,7.3664,7.3051,7.2332,7.1517,7.0506,6.9355,6.7359,6.4836,6.2877,6.3028,6.3053,6.3178,6.3375,6.3701,6.4103,6.4228,6.4906,6.5584,6.6262,6.694,6.7618,6.8424,6.9152,6.9803,7.0531,7.1334,7.2215,7.2842,7.3544,7.4222,7.4523,7.4624,7.4624,7.4649,7.5126,7.5402,7.5603,7.5878,7.6004,7.6054,7.6079,7.6104,7.6104,7.6029,7.6004,7.5979,7.5979,7.5828,7.5527,7.5352,7.5101,7.475,7.4849,7.5025,7.4975,7.5177,7.4925,7.4347,7.4449,7.4849,7.5151,7.5351,7.5352,7.5352,7.5352,7.5201,7.5025,7.4825,7.4649,7.4373,7.392,7.3519,7.3343,7.3043,7.2767,7.2742,7.2867,7.3167,7.3443,7.377,7.4347,7.4976,7.5151,7.5276,7.5527,7.6054,7.6054,7.1278,7.1773,7.1158,7.0919,7.0962,7.0903,7.0903,7.0919,7.0979,7.1038,7.1188,7.1637,7.1577,7.1427,7.2159,7.2415,7.2342,7.2684,7.2997,7.3266,7.3702,7.3851,7.4078,7.4407,7.4587,7.4826,7.4856,7.4796,7.4676,7.3914,7.3088,7.1185,6.9328,6.7629,6.5811,6.3907,6.3165,6.3576,6.3601,6.3923,6.4174,6.4425,6.4806,6.5107,6.5534,6.6259,6.7166,6.7543,6.8221,6.9052,6.9828,7.0328,7.0654,7.1962,7.2717,7.2968,7.4298,7.5001,7.5177,7.5177,7.5202,7.5251,7.5653,7.5878,7.6029,7.6104,7.6104,7.6104,7.6104,7.6104,7.6104,7.6104,7.6104,7.6104,7.6104,7.6054,7.5753,7.5603,7.5427,7.5301,7.5703,7.6004,7.5803,7.5678,7.5653,7.5477,7.5352,7.5502,7.5728,7.5778,7.5753,7.5753,7.5728,7.5678,7.5527,7.5352,7.5151,7.4925,7.4624,7.4247,7.382,7.347,7.3194,7.2917,7.3194,7.3669,7.3895,7.4071,7.4674,7.5277,7.5728,7.5928,7.6079,7.6104,7.6104,7.1308,7.1833,7.1188,7.1158,7.1474,7.1068,7.0903,7.0979,7.1368,7.1816,7.2206,7.2505,7.2505,7.2505,7.2654,7.3043,7.3253,7.3359,7.3672,7.421,7.442,7.4527,7.4646,7.4706,7.4886,7.4886,7.4886,7.4886,7.4826,7.3882,7.1884,6.9784,6.7325,6.5014,6.4091,6.3308,6.3571,6.3747,6.3998,6.4346,6.4597,6.5153,6.5634,6.5886,6.6463,6.7317,6.8274,6.8399,6.8876,6.9878,7.0679,7.093,7.1382,7.2615,7.3394,7.3771,7.4875,7.5377,7.5653,7.5803,7.5778,7.5878,7.5929,7.6104,7.6104,7.6104,7.6104,7.6104,7.6104,7.6104,7.6104,7.6104,7.6104,7.6104,7.6104,7.6104,7.5929,7.5954,7.5904,7.5853,7.6079,7.6104,7.5979,7.5904,7.5904,7.5803,7.5603,7.5678,7.5878,7.5978,7.6004,7.6004,7.6004,7.6054,7.6004,7.5753,7.5653,7.5502,7.5252,7.4925,7.4474,7.3972,7.3821,7.3696,7.3947,7.4247,7.4548,7.4849,7.5076,7.5527,7.5878,7.6079,7.6104,7.6104,7.6104,7.1653,7.2116,7.1278,7.1427,7.2056,7.1517,7.1368,7.1637,7.2056,7.2535,7.2877,7.3086,7.3073,7.3073,7.3432,7.3492,7.3971,7.4197,7.4317,7.4886,7.4886,7.4826,7.4856,7.4886,7.4886,7.4886,7.4886,7.4886,7.48,7.2876,7.0521,6.7791,6.5192,6.4088,6.3498,6.3713,6.4124,6.435,6.4676,6.4927,6.5304,6.581,6.6363,6.6664,6.7267,6.8221,6.8977,6.9353,6.9577,7.0706,7.1307,7.1533,7.2163,7.3092,7.3946,7.4449,7.5151,7.5628,7.5979,7.6079,7.6004,7.6079,7.6104,7.6104,7.6104,7.6104,7.6104,7.6104,7.6104,7.6104,7.6104,7.6104,7.6104,7.6104,7.6104,7.6104,7.6129,7.613,7.6205,7.6205,7.6255,7.6205,7.6104,7.6104,7.6054,7.5929,7.5803,7.5904,7.6029,7.6079,7.6104,7.6104,7.6104,7.6104,7.6104,7.6054,7.6004,7.6054,7.5728,7.5327,7.4976,7.4449,7.4449,7.4473,7.4574,7.4849,7.5352,7.5678,7.5678,7.5753,7.5904,7.6054,7.6104,7.6154,7.6179,7.2325,7.2668,7.1517,7.1757,7.2698,7.2372,7.2415,7.2907,7.2907,7.2984,7.3057,7.3732,7.3702,7.3386,7.427,7.4467,7.4197,7.4587,7.4766,7.4856,7.4886,7.4886,7.4886,7.4886,7.4886,7.4886,7.4886,7.4852,7.4663,7.2278,6.9365,6.6915,6.4948,6.4082,6.3977,6.4379,6.4802,6.4982,6.5383,6.5681,6.6061,6.6736,6.7091,6.7417,6.797,6.8798,6.9403,6.973,7.0257,7.1033,7.161,7.1861,7.2489,7.3544,7.4121,7.4774,7.5602,7.5904,7.6104,7.6104,7.6104,7.6104,7.6104,7.6104,7.6104,7.6104,7.6104,7.6104,7.6104,7.6104,7.6104,7.6104,7.6104,7.6104,7.6104,7.6154,7.6205,7.628,7.6406,7.6431,7.6506,7.6456,7.6179,7.6104,7.6104,7.6054,7.5954,7.6004,7.6079,7.6079,7.6104,7.6104,7.6104,7.6104,7.6104,7.6104,7.6104,7.6104,7.5804,7.5428,7.5126,7.5026,7.5025,7.505,7.5101,7.5377,7.5728,7.5929,7.6029,7.6079,7.6029,7.6054,7.6104,7.628,7.6305,7.2997,7.3492,7.2668,7.2834,7.3582,7.3898,7.3898,7.3642,7.3642,7.3821,7.4347,7.4527,7.436,7.4407,7.4753,7.4706,7.4736,7.4766,7.4856,7.4886,7.4886,7.4886,7.4886,7.4886,7.4886,7.4886,7.4886,7.4864,7.4097,7.1841,7.0026,6.8461,6.5441,6.4704,6.4856,6.5358,6.5459,6.5634,6.6086,6.6388,6.689,6.7543,6.7869,6.8246,6.8946,6.9702,7.0305,7.0531,7.1133,7.2012,7.1962,7.2163,7.3192,7.3971,7.4573,7.5552,7.5978,7.6104,7.6104,7.6104,7.6104,7.6104,7.6104,7.6104,7.6104,7.6104,7.6104,7.6104,7.6179,7.623,7.6205,7.6179,7.6154,7.6129,7.6179,7.628,7.638,7.6607,7.6682,7.6481,7.6557,7.6456,7.6205,7.6104,7.6104,7.6104,7.6104,7.6104,7.6104,7.6104,7.6104,7.6104,7.6104,7.6104,7.6104,7.6104,7.6104,7.6079,7.5828,7.5703,7.5703,7.5627,7.5602,7.5578,7.5578,7.5753,7.5979,7.6104,7.6104,7.6104,7.6079,7.6104,7.6154,7.6305,7.6557,7.3552,7.3791,7.3176,7.3266,7.3941,7.4616,7.4646,7.4317,7.4287,7.4557,7.4856,7.4886,7.4886,7.4826,7.4856,7.4886,7.4886,7.4856,7.4886,7.4886,7.4886,7.4886,7.4886,7.4886,7.4886,7.4886,7.4946,7.5048,7.4032,7.1587,6.9481,6.7117,6.5252,6.5437,6.5606,6.6086,6.6388,6.6513,6.6714,6.6962,6.7417,6.8095,6.855,6.91,6.9926,7.0629,7.1309,7.141,7.1937,7.2566,7.229,7.2616,7.3594,7.4297,7.505,7.5878,7.6079,7.6104,7.6104,7.6104,7.6104,7.6129,7.6129,7.6104,7.6104,7.6104,7.6104,7.6129,7.628,7.6406,7.633,7.6255,7.6205,7.6129,7.628,7.6406,7.6682,7.6958,7.6808,7.6531,7.6456,7.6355,7.623,7.6154,7.6104,7.6104,7.6104,7.6104,7.6104,7.6104,7.6104,7.6104,7.6104,7.6104,7.6104,7.6104,7.6104,7.6104,7.6054,7.5979,7.6104,7.6054,7.5878,7.5929,7.6054,7.6104,7.6104,7.6104,7.6104,7.6104,7.6129,7.6129,7.6154,7.6205,7.6557,7.3971,7.3941,7.3313,7.3492,7.4001,7.4646,7.4886,7.4886,7.4826,7.4886,7.4886,7.4886,7.4886,7.4886,7.4886,7.4886,7.4886,7.4886,7.4886,7.4886,7.4886,7.4886,7.4886,7.4886,7.4886,7.4869,7.455,7.4008,7.4029,7.1906,6.8652,6.4965,6.5188,6.5634,6.6187,6.6739,6.7113,6.7339,6.7317,6.7392,6.7593,6.8173,6.8977,6.9504,7.0204,7.093,7.1711,7.2064,7.2288,7.2641,7.2943,7.3219,7.3921,7.4749,7.5527,7.5853,7.6104,7.6104,7.6104,7.6104,7.6104,7.6129,7.6129,7.6255,7.633,7.6154,7.6104,7.6129,7.628,7.6456,7.6456,7.6557,7.6557,7.6657,7.6833,7.6933,7.7084,7.7185,7.7059,7.6783,7.6531,7.6431,7.6205,7.6104,7.6104,7.6104,7.6104,7.6104,7.6104,7.6104,7.6104,7.6104,7.6104,7.6104,7.6104,7.6104,7.6104,7.6104,7.6104,7.6104,7.6104,7.6104,7.6104,7.6104,7.6104,7.6104,7.6104,7.6104,7.6104,7.6104,7.6129,7.6154,7.6179,7.623,7.6506,7.4646,7.4646,7.4497,7.4527,7.4646,7.4826,7.4886,7.4886,7.4886,7.4886,7.4886,7.4886,7.4886,7.4886,7.4886,7.4886,7.4886,7.4886,7.4886,7.4886,7.4886,7.4886,7.4886,7.4886,7.4916,7.4357,7.3603,7.2638,7.1771,7.0684,6.9705,6.7404,6.6644,6.6212,6.684,6.7439,6.7819,6.8142,6.8321,6.8296,6.8472,6.9197,7.0026,7.0378,7.088,7.1661,7.239,7.2917,7.3418,7.3871,7.3972,7.4298,7.4801,7.5502,7.5878,7.6079,7.6104,7.6104,7.6104,7.6104,7.6104,7.628,7.638,7.6607,7.6632,7.6305,7.6154,7.6205,7.6331,7.6531,7.6657,7.6833,7.6984,7.7159,7.7385,7.7411,7.7486,7.7411,7.731,7.6984,7.6682,7.6456,7.623,7.6104,7.6104,7.6104,7.6104,7.6104,7.6104,7.6104,7.6104,7.6104,7.6104,7.6104,7.6104,7.6104,7.6104,7.6104,7.6104,7.6104,7.6104,7.6104,7.6104,7.6104,7.6104,7.6104,7.6104,7.6104,7.6104,7.6104,7.6129,7.6154,7.628,7.6355,7.6557,7.4886,7.4886,7.4886,7.4886,7.4886,7.4886,7.4886,7.4886,7.4886,7.4886,7.4886,7.4886,7.4886,7.4886,7.4886,7.4886,7.4886,7.4886,7.4886,7.4886,7.4886,7.4886,7.4886,7.4916,7.5215,7.4761,7.3812,7.2523,7.0162,6.9715,6.9197,6.7908,6.684,6.6915,6.7618,6.8199,6.8648,6.8949,6.9353,6.9554,6.9526,6.9928,7.0328,7.0656,7.1282,7.2113,7.2916,7.3468,7.3821,7.4323,7.4549,7.4775,7.5202,7.5678,7.6029,7.6104,7.6104,7.6104,7.6104,7.6104,7.6104,7.628,7.6582,7.6808,7.6908,7.6682,7.6958,7.7059,7.7411,7.7637,7.7109,7.7084,7.7059,7.7159,7.7461,7.7662,7.7888,7.8013,7.7586,7.6984,7.6707,7.6531,7.6305,7.6104,7.6104,7.6104,7.6104,7.6104,7.6104,7.6104,7.6104,7.6104,7.6104,7.6104,7.6104,7.6104,7.6104,7.6104,7.6104,7.6104,7.6104,7.6104,7.6104,7.6104,7.6104,7.6104,7.6104,7.6104,7.6104,7.6104,7.6154,7.6179,7.6305,7.638,7.6456,7.4886,7.4886,7.4886,7.4886,7.4886,7.4886,7.4886,7.4886,7.4886,7.4886,7.4886,7.4886,7.4886,7.4886,7.4886,7.4886,7.4886,7.4886,7.4886,7.4886,7.4886,7.5065,7.5065,7.5006,7.4691,7.4881,7.4686,7.1989,6.916,6.9696,6.9683,6.7665,6.7389,6.7769,6.86,6.9303,6.978,7.0152,7.0529,7.088,7.0631,7.0257,7.0583,7.0958,7.1483,7.2236,7.3217,7.387,7.4097,7.4598,7.5126,7.5301,7.5477,7.5853,7.6004,7.6104,7.6104,7.6104,7.6104,7.6104,7.6104,7.6255,7.6657,7.6908,7.7009,7.731,7.7586,7.7862,7.8239,7.8063,7.7511,7.7235,7.721,7.736,7.7687,7.8038,7.8314,7.8414,7.7737,7.7084,7.6958,7.6758,7.6481,7.6255,7.6154,7.6154,7.6104,7.6104,7.6104,7.6104,7.6104,7.6104,7.6104,7.6104,7.6104,7.6104,7.6104,7.6104,7.6104,7.6104,7.6104,7.6104,7.6104,7.6104,7.6104,7.6104,7.6104,7.6104,7.6104,7.6104,7.6129,7.6154,7.6154,7.623,7.6179,7.4886,7.4886,7.4886,7.4886,7.4886,7.4886,7.4886,7.4886,7.4886,7.4886,7.4886,7.4886,7.4886,7.4886,7.4886,7.4886,7.4916,7.4946,7.4916,7.4886,7.5006,7.5305,7.5269,7.4791,7.3147,7.3367,7.396,7.2532,6.9682,7.0799,7.0544,6.7349,6.8656,6.9089,6.93,7.0233,7.1439,7.1649,7.1519,7.1721,7.1543,7.1373,7.1535,7.2037,7.2665,7.3418,7.4171,7.4649,7.5201,7.5627,7.5803,7.5828,7.5904,7.5979,7.6079,7.6104,7.6104,7.6104,7.6104,7.6104,7.6104,7.6154,7.6531,7.6883,7.7185,7.7737,7.7963,7.8139,7.8264,7.7963,7.7536,7.7461,7.7436,7.7812,7.8163,7.854,7.8867,7.844,7.7812,7.7611,7.7561,7.7235,7.6758,7.6581,7.638,7.6305,7.6129,7.6104,7.6104,7.6104,7.6104,7.6104,7.6129,7.6104,7.6104,7.6104,7.6104,7.6104,7.6104,7.6104,7.6104,7.6104,7.6104,7.6104,7.6104,7.6104,7.6104,7.6104,7.6104,7.6104,7.6104,7.6129,7.6104,7.6104,7.6104]},{"header":{"parameterUnit":"m.s-1","parameterCategory":1,"la1":31.0,"la2":29.5877,"lo1":-88.7671,"lo2":-86.6584,"dy":0.0162,"dx":0.0185,"nx":115,"ny":88,"refTime":"2024-10-08T12:00:00:Z","depth":0,"parameterNumber":3,"parameterNumberName":"V-component_of_WINDS"},"data":[0.0,0.0,0.0,0.0,0.0,0.0,0.0,0.0,0.0,0.0,0.0,0.0,0.0,0.0,0.0,0.0,0.0,0.0,0.0,0.0,0.0,0.0,0.0,0.0,0.0,0.0,0.0,0.0,0.0,0.0,0.0,0.0,0.0,0.0,0.0,0.0,0.0,0.0,0.0,0.0,0.0,0.0,0.0,0.0,0.0,0.0,0.0,0.0,0.0,0.0,0.0,0.0,0.0,0.0,0.0,0.0,0.0,0.0,0.0,0.0,0.0,0.0,0.0,0.0,0.0,0.0,0.0,0.0,0.0,0.0,0.0,0.0,0.0,0.0,0.0,0.0,0.0,0.0,0.0,0.0,0.0,0.0,0.0,0.0,0.0,0.0,0.0,0.0,0.0,0.0,0.0,0.0,0.0,0.0,0.0,0.0,0.0,0.0,0.0,0.0,0.0,0.0,0.0,0.0,0.0,0.0,0.0,0.0,0.0,0.0,0.0,0.0,0.0,0.0,0.0,0.0,0.0,0.0,0.0,0.0,0.0,0.0,0.0,0.0,0.0,0.0,0.0,0.0,0.0,0.0,0.0,0.0,0.0,0.0,0.0,0.0,0.0,0.0,0.0,0.0,0.0,0.0,0.0,0.0,0.0,0.0,0.0,0.0,0.0,0.0,0.0,0.0,0.0,0.0,0.0,0.0,0.0,0.0,0.0,0.0,0.0,0.0,0.0,0.0,0.0,0.0,0.0,0.0,0.0,0.0,0.0,0.0,0.0,0.0,0.0,0.0,0.0,0.0,0.0,0.0,0.0,0.0,0.0,0.0,0.0,0.0,0.0,0.0,0.0,0.0,0.0,0.0,0.0,0.0,0.0,0.0,0.0,0.0,0.0,0.0,0.0,0.0,0.0,0.0,0.0,0.0,0.0,0.0,0.0,0.0,0.0,0.0,0.0,0.0,0.0,0.0,0.0,0.0,0.0,0.0,0.0,0.0,0.0,0.0,0.0,0.0,0.0,0.0,0.0,0.0,0.0,0.0,0.0,0.0,0.0,0.0,0.0,0.0,0.0,0.0,0.0,0.0,0.0,0.0,0.0,0.0,0.0,0.0,0.0,0.0,0.0,0.0,0.0,0.0,0.0,0.0,0.0,0.0,0.0,0.0,0.0,0.0,0.0,0.0,0.0,0.0,0.0,0.0,0.0,0.0,0.0,0.0,0.0,0.0,0.0,0.0,0.0,0.0,0.0,0.0,0.0,0.0,0.0,0.0,0.0,0.0,0.0,0.0,0.0,0.0,0.0,0.0,0.0,0.0,0.0,0.0,0.0,0.0,0.0,0.0,0.0,0.0,0.0,0.0,0.0,0.0,0.0,0.0,0.0,0.0,0.0,0.0,0.0,0.0,0.0,0.0,0.0,0.0,0.0,0.0,0.0,0.0,0.0,0.0,0.0,0.0,0.0,0.0,0.0,0.0,0.0,0.0,0.0,0.0,0.0,0.0,0.0,0.0,0.0,0.0,0.0,0.0,0.0,0.0,0.0,0.0,0.0,0.0,0.0,0.0,0.0,0.0,0.0,0.0,0.0,0.0,0.0,0.0,0.0,0.0,0.0,0.0,0.0,0.0,0.0,0.0,0.0,0.0,0.0,0.0,0.0,0.0,0.0,0.0,0.0,0.0,0.0,0.0,0.0,0.0,0.0,0.0,0.0,0.0,0.0,0.0,0.0,0.0,0.0,0.0,0.0,0.0,0.0,0.0,0.0,0.0,0.0,0.0,0.0,0.0,0.0,0.0,0.0,0.0,0.0,0.0,0.0,0.0,0.0,0.0,0.0,0.0,0.0,0.0,0.0,0.0,0.0,0.0,0.0,0.0,0.0,0.0,0.0,0.0,0.0,0.0,0.0,0.0,0.0,0.0,0.0,0.0,0.0,0.0,0.0,0.0,0.0,0.0,0.0,0.0,0.0,0.0,0.0,0.0,0.0,0.0,0.0,0.0,0.0,0.0,0.0,0.0,0.0,0.0,0.0,0.0,0.0,0.0,0.0,0.0,0.0,0.0,0.0,0.0,0.0,0.0,0.0,0.0,0.0,0.0,0.0,0.0,0.0,0.0,0.0,0.0,0.0,0.0,0.0,0.0,0.0,0.0,0.0,0.0,0.0,0.0,0.0,0.0,0.0,0.0,0.0,0.0,0.0,0.0,0.0,0.0,0.0,0.0,0.0,0.0,0.0,0.0,0.0,0.0,0.0,0.0,0.0,0.0,0.0,0.0,0.0,0.0,0.0,0.0,0.0,0.0,0.0,0.0,0.0,0.0,0.0,0.0,0.0,0.0,0.0,0.0,0.0,0.0,0.0,0.0,0.0,0.0,0.0,0.0,0.0,0.0,0.0,0.0,0.0,0.0,0.0,0.0,0.0,0.0,0.0,0.0,0.0,0.0,0.0,0.0,0.0,0.0,0.0,0.0,0.0,0.0,0.0,0.0,0.0,0.0,0.0,0.0,0.0,0.0,0.0,0.0,0.0,0.0,0.0,0.0,0.0,0.0,0.0,0.0,0.0,0.0,0.0,0.0,0.0,0.0,0.0,0.0,0.0,0.0,0.0,0.0,0.0,0.0,0.0,0.0,0.0,0.0,0.0,0.0,0.0,0.0,0.0,0.0,0.0,0.0,0.0,0.0,0.0,0.0,0.0,0.0,0.0,0.0,0.0,0.0,0.0,0.0,0.0,0.0,0.0,0.0,0.0,0.0,0.0,0.0,0.0,0.0,0.0,0.0,0.0,0.0,0.0,0.0,0.0,0.0,0.0,0.0,0.0,0.0,0.0,0.0,0.0,0.0,0.0,0.0,0.0,0.0,0.0,0.0,0.0,0.0,0.0,0.0,0.0,0.0,0.0,0.0,0.0,0.0,0.0,0.0,0.0,0.0,0.0,0.0,0.0,0.0,0.0,0.0,0.0,0.0,0.0,0.0,0.0,0.0,0.0,0.0,0.0,0.0,0.0,0.0,0.0,0.0,0.0,0.0,0.0,0.0,0.0,0.0,0.0,0.0,0.0,0.0,0.0,0.0,0.0,0.0,0.0,0.0,0.0,0.0,0.0,0.0,0.0,0.0,0.0,0.0,0.0,0.0,0.0,0.0,0.0,0.0,0.0,0.0,0.0,0.0,0.0,0.0,0.0,0.0,0.0,0.0,0.0,0.0,0.0,0.0,0.0,0.0,0.0,0.0,0.0,0.0,0.0,0.0,0.0,0.0,0.0,0.0,0.0,0.0,0.0,0.0,0.0,0.0,0.0,0.0,0.0,0.0,0.0,0.0,0.0,0.0,0.0,0.0,0.0,0.0,0.0,0.0,0.0,0.0,0.0,0.0,0.0,0.0,0.0,0.0,0.0,0.0,0.0,0.0,0.0,0.0,0.0,0.0,0.0,0.0,0.0,0.0,0.0,0.0,0.0,0.0,0.0,0.0,0.0,0.0,0.0,0.0,0.0,0.0,0.0,0.0,0.0,0.0,0.0,0.0,0.0,0.0,0.0,0.0,0.0,0.0,0.0,0.0,0.0,0.0,0.0,0.0,0.0,0.0,0.0,0.0,0.0,0.0,0.0,0.0,0.0,0.0,0.0,0.0,0.0,0.0,0.0,0.0,0.0,0.0,0.0,0.0,0.0,0.0,0.0,0.0,0.0,0.0,0.0,0.0,0.0,0.0,0.0,0.0,0.0,0.0,0.0,0.0,0.0,0.0,0.0,0.0,0.0,0.0,0.0,0.0,0.0,0.0,0.0,0.0,0.0,0.0,0.0,0.0,0.0,0.0,0.0,0.0,0.0,0.0,0.0,0.0,0.0,0.0,0.0,0.0,0.0,0.0,0.0,0.0,0.0,0.0,0.0,0.0,0.0,0.0,0.0,0.0,0.0,0.0,0.0,0.0,0.0,0.0,0.0,0.0,0.0,0.0,0.0,0.0,0.0,0.0,0.0,0.0,0.0,0.0,0.0,0.0,0.0,0.0,0.0,0.0,0.0,0.0,0.0,0.0,0.0,0.0,0.0,0.0,0.0,0.0,0.0,0.0,0.0,0.0,0.0,0.0,0.0,0.0,0.0,0.0,0.0,0.0,0.0,0.0,0.0,0.0,0.0,0.0,0.0,0.0,0.0,0.0,0.0,0.0,0.0,0.0,0.0,0.0,0.0,0.0,0.0,0.0,0.0,0.0,0.0,0.0,0.0,0.0,0.0,0.0,0.0,0.0,0.0,0.0,0.0,0.0,0.0,0.0,0.0,0.0,0.0,0.0,2.844,0.0,0.0,0.0,0.0,0.0,0.0,0.0,0.0,0.0,0.0,0.0,0.0,0.0,0.0,0.0,0.0,0.0,0.0,0.0,0.0,0.0,0.0,0.0,0.0,0.0,0.0,0.0,0.0,0.0,0.0,0.0,0.0,0.0,0.0,0.0,0.0,0.0,0.0,0.0,0.0,0.0,0.0,0.0,0.0,0.0,0.0,0.0,0.0,0.0,0.0,0.0,0.0,0.0,0.0,0.0,0.0,0.0,0.0,0.0,0.0,0.0,0.0,0.0,0.0,0.0,0.0,0.0,0.0,0.0,0.0,0.0,0.0,0.0,0.0,0.0,0.0,0.0,0.0,0.0,0.0,0.0,0.0,0.0,0.0,0.0,0.0,0.0,0.0,0.0,0.0,0.0,0.0,0.0,0.0,0.0,0.0,0.0,0.0,0.0,0.0,0.0,0.0,0.0,0.0,0.0,0.0,0.0,0.0,0.0,0.0,2.9527,2.9599,2.9384,2.9202,2.9092,0.0,0.0,0.0,0.0,0.0,0.0,0.0,0.0,0.0,0.0,0.0,0.0,0.0,0.0,0.0,0.0,0.0,0.0,0.0,0.0,0.0,0.0,0.0,0.0,0.0,0.0,0.0,0.0,0.0,0.0,0.0,0.0,0.0,0.0,0.0,0.0,0.0,0.0,0.0,0.0,0.0,0.0,0.0,0.0,0.0,0.0,0.0,0.0,0.0,0.0,0.0,0.0,0.0,0.0,0.0,0.0,0.0,0.0,0.0,0.0,0.0,0.0,0.0,0.0,0.0,0.0,0.0,0.0,0.0,0.0,0.0,0.0,0.0,0.0,0.0,0.0,0.0,0.0,0.0,0.0,0.0,0.0,0.0,0.0,0.0,0.0,0.0,0.0,0.0,0.0,0.0,0.0,0.0,0.0,0.0,0.0,0.0,0.0,0.0,0.0,0.0,0.0,0.0,0.0,0.0,0.0,0.0,0.0,0.0,0.0,0.0,0.0,2.9779,2.972,2.9573,0.0,0.0,0.0,0.0,0.0,0.0,0.0,0.0,0.0,0.0,0.0,0.0,0.0,0.0,0.0,0.0,0.0,0.0,0.0,0.0,0.0,0.0,0.0,0.0,0.0,0.0,0.0,0.0,0.0,0.0,0.0,0.0,0.0,0.0,0.0,0.0,0.0,0.0,0.0,0.0,0.0,0.0,0.0,0.0,0.0,0.0,0.0,0.0,0.0,0.0,0.0,0.0,0.0,0.0,0.0,0.0,0.0,0.0,0.0,0.0,0.0,0.0,0.0,0.0,0.0,0.0,0.0,0.0,0.0,0.0,0.0,0.0,0.0,0.0,0.0,0.0,0.0,0.0,0.0,0.0,0.0,0.0,0.0,0.0,0.0,0.0,0.0,0.0,0.0,0.0,0.0,0.0,0.0,0.0,0.0,0.0,0.0,0.0,0.0,0.0,0.0,0.0,0.0,0.0,0.0,0.0,0.0,0.0,0.0,0.0,2.9779,2.9779,2.9789,0.0,2.9733,0.0,0.0,0.0,0.0,0.0,0.0,0.0,0.0,0.0,0.0,0.0,0.0,0.0,0.0,0.0,0.0,0.0,0.0,0.0,0.0,0.0,0.0,0.0,0.0,0.0,0.0,0.0,0.0,0.0,0.0,0.0,0.0,0.0,0.0,0.0,0.0,0.0,0.0,0.0,0.0,0.0,0.0,0.0,0.0,0.0,0.0,0.0,0.0,0.0,0.0,0.0,0.0,0.0,0.0,0.0,0.0,0.0,0.0,0.0,0.0,0.0,0.0,0.0,0.0,0.0,0.0,0.0,0.0,0.0,0.0,0.0,0.0,0.0,0.0,0.0,0.0,0.0,0.0,0.0,0.0,0.0,0.0,0.0,0.0,0.0,0.0,0.0,0.0,0.0,0.0,0.0,0.0,0.0,0.0,0.0,0.0,0.0,0.0,0.0,0.0,0.0,0.0,0.0,0.0,0.0,0.0,0.0,0.0,0.0,0.0,3.0131,2.9824,3.0161,3.0128,0.0,0.0,0.0,0.0,0.0,0.0,0.0,0.0,0.0,0.0,0.0,0.0,0.0,0.0,0.0,0.0,0.0,0.0,0.0,0.0,0.0,0.0,0.0,0.0,0.0,0.0,0.0,0.0,0.0,0.0,0.0,0.0,0.0,0.0,0.0,0.0,0.0,0.0,0.0,0.0,0.0,0.0,0.0,0.0,0.0,0.0,0.0,0.0,0.0,0.0,0.0,0.0,0.0,0.0,0.0,0.0,0.0,0.0,0.0,0.0,0.0,0.0,0.0,0.0,0.0,0.0,0.0,0.0,0.0,0.0,0.0,0.0,0.0,0.0,0.0,0.0,0.0,0.0,0.0,0.0,0.0,0.0,0.0,0.0,0.0,0.0,0.0,0.0,0.0,0.0,0.0,0.0,0.0,0.0,0.0,0.0,0.0,0.0,0.0,0.0,0.0,0.0,0.0,0.0,0.0,0.0,0.0,0.0,0.0,0.0,3.0105,3.0216,2.9868,3.0269,3.0268,2.9723,0.0,0.0,0.0,0.0,0.0,0.0,0.0,0.0,0.0,0.0,0.0,0.0,0.0,0.0,0.0,0.0,0.0,0.0,0.0,0.0,0.0,0.0,0.0,0.0,0.0,0.0,0.0,0.0,0.0,0.0,0.0,0.0,0.0,0.0,0.0,0.0,0.0,0.0,0.0,0.0,0.0,0.0,0.0,0.0,0.0,0.0,0.0,0.0,0.0,0.0,0.0,0.0,0.0,0.0,0.0,0.0,0.0,0.0,0.0,0.0,0.0,0.0,0.0,0.0,0.0,0.0,0.0,0.0,0.0,0.0,0.0,0.0,0.0,0.0,0.0,0.0,0.0,0.0,0.0,0.0,0.0,0.0,0.0,0.0,0.0,0.0,0.0,0.0,0.0,0.0,0.0,0.0,0.0,0.0,0.0,0.0,0.0,0.0,0.0,0.0,0.0,0.0,0.0,0.0,0.0,0.0,0.0,0.0,0.0,2.9518,2.9849,2.9833,3.0031,2.9993,0.0,0.0,0.0,0.0,0.0,0.0,0.0,0.0,0.0,0.0,0.0,0.0,0.0,0.0,0.0,0.0,0.0,0.0,0.0,0.0,0.0,0.0,0.0,0.0,0.0,0.0,0.0,0.0,0.0,0.0,0.0,0.0,0.0,0.0,0.0,0.0,0.0,0.0,0.0,0.0,0.0,0.0,0.0,0.0,0.0,0.0,0.0,0.0,0.0,0.0,0.0,0.0,0.0,0.0,0.0,0.0,0.0,0.0,0.0,0.0,0.0,0.0,0.0,0.0,0.0,0.0,0.0,0.0,0.0,0.0,0.0,0.0,0.0,0.0,0.0,0.0,0.0,0.0,0.0,0.0,0.0,0.0,0.0,0.0,0.0,0.0,0.0,0.0,0.0,0.0,0.0,0.0,0.0,0.0,0.0,0.0,0.0,0.0,0.0,0.0,0.0,0.0,0.0,0.0,0.0,0.0,0.0,0.0,0.0,2.8897,2.9493,2.9955,3.0301,3.0073,2.9841,0.0,0.0,0.0,0.0,0.0,0.0,0.0,0.0,0.0,0.0,0.0,0.0,0.0,0.0,0.0,0.0,0.0,0.0,0.0,0.0,0.0,0.0,0.0,0.0,0.0,0.0,0.0,0.0,0.0,0.0,0.0,0.0,0.0,0.0,0.0,0.0,0.0,0.0,0.0,0.0,0.0,0.0,0.0,0.0,0.0,0.0,0.0,0.0,0.0,0.0,0.0,0.0,0.0,0.0,0.0,0.0,0.0,0.0,0.0,0.0,0.0,0.0,0.0,0.0,0.0,0.0,0.0,0.0,0.0,0.0,0.0,0.0,0.0,0.0,0.0,0.0,0.0,0.0,0.0,0.0,0.0,0.0,0.0,0.0,0.0,0.0,0.0,0.0,0.0,0.0,0.0,0.0,0.0,0.0,0.0,0.0,0.0,0.0,0.0,0.0,0.0,0.0,0.0,0.0,0.0,0.0,0.0,0.0,0.0,2.8881,0.0,2.9955,0.0,2.98,2.9515,0.0,0.0,0.0,0.0,0.0,0.0,0.0,0.0,0.0,0.0,0.0,0.0,0.0,0.0,0.0,0.0,0.0,0.0,0.0,0.0,0.0,0.0,0.0,0.0,0.0,0.0,0.0,0.0,0.0,0.0,0.0,0.0,0.0,0.0,0.0,0.0,0.0,0.0,0.0,0.0,0.0,0.0,0.0,0.0,0.0,0.0,0.0,0.0,0.0,0.0,0.0,0.0,0.0,0.0,0.0,0.0,0.0,0.0,0.0,0.0,0.0,0.0,0.0,0.0,0.0,0.0,0.0,0.0,0.0,0.0,0.0,0.0,0.0,0.0,0.0,0.0,0.0,0.0,0.0,0.0,0.0,0.0,0.0,0.0,0.0,0.0,0.0,0.0,0.0,0.0,0.0,0.0,0.0,0.0,0.0,0.0,0.0,0.0,0.0,0.0,0.0,0.0,0.0,0.0,0.0,0.0,0.0,0.0,2.7837,2.8863,2.9493,2.9804,2.9789,2.9244,2.9062,0.0,0.0,0.0,0.0,0.0,0.0,0.0,0.0,0.0,0.0,0.0,0.0,0.0,0.0,0.0,0.0,0.0,0.0,0.0,0.0,0.0,0.0,0.0,0.0,0.0,0.0,0.0,0.0,0.0,0.0,0.0,0.0,0.0,0.0,0.0,0.0,0.0,0.0,0.0,0.0,0.0,0.0,0.0,0.0,0.0,0.0,0.0,0.0,0.0,0.0,0.0,0.0,0.0,0.0,0.0,0.0,0.0,0.0,0.0,0.0,0.0,0.0,0.0,0.0,0.0,0.0,0.0,0.0,0.0,0.0,0.0,0.0,0.0,0.0,0.0,0.0,0.0,0.0,0.0,0.0,0.0,0.0,0.0,0.0,0.0,0.0,0.0,0.0,0.0,0.0,0.0,0.0,0.0,0.0,0.0,0.0,0.0,0.0,0.0,0.0,0.0,0.0,0.0,0.0,0.0,0.0,0.0,0.0,0.0,2.8684,2.9411,2.9779,2.9773,2.9082,2.8902,0.0,0.0,0.0,0.0,0.0,0.0,0.0,0.0,0.0,0.0,0.0,0.0,0.0,0.0,0.0,0.0,0.0,0.0,0.0,0.0,0.0,0.0,0.0,0.0,0.0,0.0,0.0,0.0,0.0,0.0,0.0,0.0,0.0,0.0,0.0,0.0,0.0,0.0,0.0,0.0,0.0,0.0,0.0,0.0,0.0,0.0,0.0,0.0,0.0,0.0,0.0,0.0,0.0,0.0,0.0,0.0,0.0,0.0,0.0,0.0,0.0,0.0,0.0,0.0,0.0,0.0,0.0,0.0,0.0,0.0,0.0,0.0,0.0,0.0,0.0,0.0,0.0,0.0,0.0,0.0,0.0,0.0,0.0,0.0,0.0,0.0,0.0,0.0,0.0,0.0,0.0,0.0,0.0,0.0,0.0,0.0,0.0,0.0,0.0,0.0,0.0,0.0,0.0,0.0,0.0,0.0,0.0,0.0,0.0,2.942,3.0068,3.0492,3.0683,2.9755,2.9503,3.0021,0.0,0.0,0.0,0.0,0.0,0.0,0.0,0.0,0.0,0.0,0.0,0.0,0.0,0.0,0.0,0.0,0.0,0.0,0.0,0.0,0.0,0.0,0.0,0.0,0.0,0.0,0.0,0.0,0.0,0.0,0.0,0.0,0.0,0.0,0.0,0.0,0.0,0.0,0.0,0.0,0.0,0.0,0.0,0.0,0.0,0.0,0.0,0.0,0.0,0.0,0.0,0.0,0.0,0.0,0.0,0.0,0.0,0.0,0.0,0.0,0.0,0.0,0.0,0.0,0.0,0.0,0.0,0.0,0.0,0.0,0.0,0.0,0.0,0.0,0.0,0.0,0.0,0.0,0.0,0.0,0.0,0.0,0.0,0.0,0.0,0.0,0.0,0.0,0.0,0.0,0.0,0.0,0.0,0.0,0.0,0.0,0.0,0.0,0.0,0.0,0.0,0.0,0.0,0.0,0.0,0.0,0.0,0.0,3.0914,3.1356,3.1777,3.2139,3.1009,3.0622,0.0,0.0,0.0,0.0,0.0,0.0,0.0,0.0,0.0,0.0,0.0,0.0,0.0,0.0,0.0,0.0,0.0,0.0,0.0,0.0,0.0,0.0,0.0,0.0,0.0,0.0,0.0,0.0,0.0,0.0,0.0,0.0,0.0,0.0,0.0,0.0,0.0,0.0,0.0,0.0,0.0,0.0,0.0,0.0,0.0,0.0,0.0,0.0,0.0,0.0,0.0,0.0,0.0,0.0,0.0,0.0,0.0,0.0,0.0,0.0,0.0,0.0,0.0,0.0,0.0,0.0,0.0,0.0,0.0,0.0,0.0,0.0,0.0,0.0,0.0,0.0,0.0,0.0,0.0,0.0,0.0,0.0,0.0,0.0,0.0,0.0,0.0,0.0,0.0,0.0,0.0,0.0,0.0,0.0,0.0,0.0,0.0,0.0,0.0,0.0,0.0,0.0,0.0,0.0,0.0,0.0,0.0,0.0,0.0,3.2528,3.3391,3.3298,3.224,3.1556,3.1189,0.0,0.0,0.0,0.0,0.0,0.0,0.0,0.0,0.0,0.0,0.0,0.0,0.0,0.0,0.0,0.0,0.0,0.0,0.0,0.0,0.0,0.0,0.0,0.0,0.0,0.0,0.0,0.0,0.0,0.0,0.0,0.0,0.0,0.0,0.0,0.0,0.0,0.0,0.0,0.0,0.0,0.0,0.0,0.0,0.0,0.0,0.0,0.0,0.0,0.0,0.0,0.0,0.0,0.0,0.0,0.0,0.0,0.0,0.0,0.0,0.0,0.0,0.0,0.0,0.0,0.0,0.0,0.0,0.0,0.0,0.0,0.0,0.0,0.0,0.0,0.0,0.0,0.0,0.0,0.0,0.0,0.0,0.0,0.0,0.0,0.0,0.0,0.0,0.0,0.0,0.0,0.0,0.0,0.0,0.0,0.0,0.0,0.0,0.0,0.0,0.0,0.0,0.0,0.0,0.0,0.0,0.0,0.0,3.1834,3.3538,3.4785,3.4963,3.3994,3.3058,3.2427,0.0,0.0,0.0,0.0,0.0,0.0,0.0,0.0,0.0,0.0,0.0,0.0,0.0,0.0,0.0,0.0,0.0,0.0,0.0,0.0,0.0,0.0,0.0,0.0,0.0,0.0,0.0,0.0,0.0,0.0,0.0,0.0,0.0,0.0,0.0,0.0,0.0,0.0,0.0,0.0,0.0,0.0,0.0,0.0,0.0,0.0,0.0,0.0,0.0,0.0,0.0,0.0,0.0,0.0,0.0,0.0,0.0,0.0,0.0,0.0,0.0,0.0,0.0,0.0,0.0,0.0,0.0,0.0,0.0,0.0,0.0,0.0,0.0,0.0,0.0,0.0,0.0,0.0,0.0,0.0,0.0,0.0,0.0,0.0,0.0,0.0,0.0,0.0,0.0,0.0,0.0,0.0,0.0,0.0,0.0,0.0,0.0,0.0,0.0,0.0,0.0,0.0,0.0,0.0,0.0,0.0,0.0,0.0,3.2863,3.4088,3.566,3.6455,3.6366,3.4956,3.3989,0.0,0.0,0.0,0.0,0.0,0.0,0.0,0.0,0.0,0.0,0.0,0.0,0.0,0.0,0.0,0.0,0.0,0.0,0.0,0.0,0.0,0.0,0.0,0.0,0.0,0.0,0.0,0.0,0.0,0.0,0.0,0.0,0.0,0.0,0.0,0.0,0.0,0.0,0.0,0.0,0.0,0.0,0.0,0.0,0.0,0.0,0.0,0.0,0.0,0.0,0.0,0.0,0.0,0.0,0.0,0.0,0.0,0.0,0.0,0.0,0.0,0.0,0.0,0.0,0.0,0.0,0.0,0.0,0.0,0.0,0.0,0.0,0.0,0.0,0.0,0.0,0.0,0.0,0.0,0.0,0.0,0.0,0.0,0.0,0.0,0.0,0.0,0.0,0.0,0.0,0.0,0.0,0.0,0.0,0.0,0.0,0.0,0.0,0.0,0.0,0.0,0.0,0.0,0.0,0.0,0.0,0.0,0.0,3.3579,3.4041,3.5999,3.6833,3.6405,3.559,3.4845,0.0,0.0,0.0,0.0,0.0,0.0,0.0,0.0,0.0,0.0,0.0,0.0,0.0,0.0,0.0,0.0,0.0,0.0,0.0,0.0,0.0,0.0,0.0,0.0,0.0,0.0,0.0,0.0,0.0,0.0,0.0,0.0,0.0,0.0,0.0,0.0,0.0,0.0,0.0,0.0,0.0,0.0,0.0,0.0,0.0,0.0,0.0,0.0,4.3997,0.0,0.0,0.0,0.0,0.0,0.0,0.0,0.0,0.0,0.0,0.0,0.0,0.0,0.0,0.0,0.0,0.0,0.0,0.0,0.0,0.0,0.0,0.0,0.0,0.0,0.0,0.0,0.0,0.0,0.0,0.0,0.0,0.0,0.0,0.0,0.0,0.0,0.0,0.0,0.0,0.0,0.0,0.0,0.0,0.0,0.0,0.0,0.0,0.0,0.0,0.0,0.0,0.0,0.0,0.0,0.0,0.0,0.0,0.0,3.436,3.5732,3.6948,3.7437,3.7158,3.6877,3.6048,0.0,0.0,0.0,0.0,0.0,0.0,0.0,0.0,0.0,0.0,0.0,0.0,0.0,0.0,0.0,0.0,0.0,0.0,0.0,0.0,0.0,0.0,0.0,0.0,0.0,0.0,0.0,0.0,0.0,0.0,0.0,0.0,0.0,0.0,0.0,0.0,0.0,0.0,0.0,0.0,0.0,0.0,0.0,0.0,0.0,0.0,0.0,0.0,0.0,0.0,0.0,0.0,0.0,0.0,0.0,0.0,0.0,0.0,0.0,0.0,0.0,0.0,0.0,0.0,0.0,0.0,0.0,0.0,0.0,0.0,0.0,0.0,0.0,0.0,0.0,0.0,0.0,0.0,0.0,0.0,0.0,0.0,0.0,0.0,0.0,0.0,0.0,0.0,0.0,0.0,0.0,0.0,0.0,0.0,0.0,0.0,0.0,0.0,0.0,0.0,0.0,0.0,0.0,0.0,0.0,0.0,0.0,3.33,3.5144,3.7443,3.7942,3.809,3.8014,3.8061,3.713,3.5056,0.0,0.0,0.0,0.0,0.0,0.0,0.0,0.0,0.0,0.0,0.0,0.0,0.0,0.0,0.0,0.0,0.0,0.0,0.0,0.0,0.0,0.0,0.0,0.0,0.0,0.0,0.0,0.0,0.0,0.0,0.0,0.0,0.0,0.0,0.0,0.0,0.0,0.0,4.0717,4.2782,0.0,0.0,0.0,0.0,0.0,0.0,0.0,0.0,4.5473,0.0,0.0,0.0,0.0,0.0,0.0,0.0,0.0,0.0,0.0,0.0,0.0,0.0,0.0,0.0,0.0,0.0,0.0,0.0,0.0,0.0,0.0,0.0,0.0,0.0,0.0,0.0,0.0,0.0,0.0,0.0,0.0,0.0,0.0,0.0,0.0,0.0,0.0,0.0,0.0,0.0,0.0,0.0,0.0,0.0,0.0,0.0,0.0,0.0,0.0,0.0,0.0,0.0,0.0,0.0,0.0,3.1353,3.3989,3.5893,3.694,3.8149,3.8504,3.8027,3.8061,3.7298,3.5684,0.0,0.0,0.0,0.0,0.0,0.0,0.0,0.0,0.0,0.0,0.0,0.0,0.0,0.0,0.0,0.0,0.0,0.0,0.0,0.0,0.0,0.0,0.0,0.0,0.0,0.0,0.0,0.0,0.0,0.0,0.0,0.0,0.0,0.0,0.0,0.0,0.0,0.0,0.0,4.3386,4.3918,0.0,0.0,0.0,0.0,0.0,0.0,0.0,0.0,4.5802,0.0,0.0,0.0,0.0,0.0,0.0,0.0,0.0,0.0,0.0,0.0,0.0,0.0,0.0,0.0,0.0,0.0,0.0,0.0,0.0,0.0,0.0,0.0,0.0,0.0,0.0,0.0,0.0,0.0,0.0,0.0,0.0,0.0,0.0,0.0,0.0,0.0,0.0,0.0,0.0,0.0,0.0,0.0,0.0,0.0,0.0,0.0,0.0,0.0,0.0,0.0,0.0,0.0,0.0,0.0,3.2746,3.4952,3.6825,3.8247,3.8976,3.8906,3.8052,3.8324,3.7639,0.0,0.0,0.0,0.0,0.0,0.0,0.0,0.0,0.0,0.0,0.0,0.0,0.0,0.0,0.0,0.0,0.0,0.0,0.0,0.0,0.0,0.0,0.0,0.0,0.0,0.0,0.0,0.0,0.0,0.0,0.0,0.0,0.0,0.0,0.0,0.0,0.0,0.0,0.0,0.0,4.451,4.4915,4.4988,0.0,0.0,0.0,0.0,0.0,0.0,4.6311,4.6441,0.0,0.0,0.0,0.0,0.0,0.0,0.0,0.0,0.0,0.0,0.0,0.0,0.0,0.0,0.0,0.0,0.0,0.0,0.0,0.0,0.0,0.0,0.0,0.0,0.0,0.0,0.0,0.0,0.0,0.0,0.0,0.0,0.0,0.0,0.0,0.0,0.0,0.0,0.0,0.0,0.0,0.0,0.0,0.0,0.0,0.0,0.0,0.0,0.0,0.0,0.0,0.0,0.0,0.0,0.0,3.4306,3.5924,3.7692,3.9609,3.971,3.9157,3.8039,3.851,3.779,0.0,0.0,0.0,0.0,0.0,0.0,0.0,0.0,0.0,0.0,0.0,0.0,0.0,0.0,0.0,0.0,0.0,0.0,0.0,0.0,0.0,0.0,0.0,0.0,0.0,0.0,0.0,0.0,0.0,0.0,0.0,0.0,0.0,0.0,0.0,0.0,0.0,0.0,0.0,0.0,0.0,4.5393,4.5509,4.6276,0.0,0.0,0.0,0.0,4.6689,4.7478,0.0,0.0,0.0,0.0,0.0,0.0,0.0,0.0,0.0,0.0,0.0,0.0,0.0,0.0,0.0,0.0,0.0,0.0,0.0,0.0,0.0,0.0,0.0,0.0,0.0,0.0,0.0,0.0,0.0,0.0,0.0,0.0,0.0,0.0,0.0,0.0,0.0,0.0,0.0,0.0,0.0,0.0,0.0,0.0,0.0,0.0,0.0,0.0,0.0,0.0,0.0,0.0,0.0,0.0,0.0,0.0,3.5059,3.6711,3.8266,3.9609,3.971,3.917,3.804,3.8245,3.7436,0.0,0.0,0.0,0.0,0.0,0.0,0.0,0.0,0.0,0.0,0.0,0.0,0.0,0.0,0.0,0.0,0.0,0.0,0.0,0.0,0.0,0.0,0.0,0.0,0.0,0.0,0.0,0.0,0.0,0.0,0.0,0.0,0.0,0.0,0.0,0.0,0.0,0.0,0.0,0.0,0.0,4.3738,4.5058,4.5216,4.5406,0.0,0.0,4.8057,4.8068,4.9583,0.0,0.0,0.0,0.0,0.0,0.0,0.0,0.0,0.0,0.0,0.0,0.0,0.0,0.0,0.0,0.0,0.0,0.0,0.0,0.0,0.0,0.0,0.0,0.0,0.0,0.0,0.0,0.0,0.0,0.0,0.0,0.0,0.0,0.0,0.0,0.0,0.0,0.0,0.0,0.0,0.0,0.0,0.0,0.0,0.0,0.0,0.0,0.0,0.0,0.0,0.0,0.0,0.0,0.0,0.0,3.3987,3.5216,3.7292,3.8805,3.9647,3.971,3.9145,3.8028,3.8187,3.7425,0.0,0.0,0.0,0.0,0.0,0.0,0.0,0.0,0.0,0.0,0.0,0.0,0.0,0.0,0.0,0.0,0.0,0.0,0.0,0.0,0.0,0.0,0.0,0.0,0.0,0.0,0.0,0.0,0.0,0.0,0.0,0.0,0.0,0.0,0.0,0.0,0.0,0.0,0.0,0.0,0.0,0.0,4.5521,4.6327,0.0,0.0,0.0,4.9961,4.9942,0.0,0.0,0.0,0.0,0.0,0.0,0.0,0.0,0.0,0.0,0.0,0.0,0.0,0.0,0.0,0.0,0.0,0.0,0.0,0.0,0.0,0.0,0.0,0.0,0.0,0.0,0.0,0.0,0.0,0.0,0.0,0.0,0.0,0.0,0.0,0.0,0.0,0.0,0.0,0.0,0.0,0.0,0.0,0.0,0.0,0.0,0.0,0.0,0.0,0.0,0.0,0.0,0.0,0.0,0.0,0.0,0.0,3.5522,3.7878,3.9283,3.9672,3.971,3.9157,3.8065,3.8303,0.0,0.0,0.0,0.0,0.0,0.0,0.0,0.0,0.0,0.0,0.0,0.0,0.0,0.0,0.0,0.0,0.0,0.0,0.0,0.0,0.0,0.0,0.0,0.0,0.0,0.0,0.0,3.4067,0.0,0.0,0.0,0.0,0.0,0.0,0.0,0.0,0.0,0.0,0.0,0.0,0.0,0.0,4.4666,4.6341,4.7449,4.8807,0.0,0.0,5.1846,5.1505,5.1463,5.0888,0.0,0.0,0.0,0.0,0.0,0.0,0.0,0.0,0.0,0.0,0.0,0.0,0.0,0.0,0.0,0.0,0.0,0.0,0.0,0.0,0.0,0.0,0.0,0.0,0.0,0.0,0.0,0.0,0.0,0.0,0.0,0.0,0.0,0.0,0.0,0.0,0.0,0.0,0.0,0.0,0.0,0.0,0.0,0.0,0.0,0.0,0.0,0.0,0.0,0.0,0.0,0.0,0.0,0.0,0.0,3.6344,3.8492,3.966,3.971,3.971,3.917,3.8077,3.8553,3.7876,0.0,0.0,0.0,0.0,0.0,0.0,0.0,0.0,0.0,0.0,0.0,0.0,0.0,0.0,0.0,0.0,0.0,0.0,0.0,0.0,0.0,0.0,0.0,0.0,0.0,0.0,0.0,0.0,0.0,0.0,0.0,0.0,0.0,0.0,0.0,0.0,0.0,0.0,0.0,0.0,0.0,4.4654,4.749,4.7889,4.9139,0.0,0.0,5.3551,5.2324,5.3653,5.3384,4.9097,0.0,0.0,0.0,0.0,0.0,0.0,0.0,0.0,0.0,0.0,0.0,0.0,0.0,0.0,0.0,0.0,0.0,0.0,0.0,0.0,0.0,0.0,0.0,0.0,0.0,0.0,0.0,0.0,0.0,0.0,0.0,0.0,0.0,0.0,0.0,0.0,0.0,0.0,0.0,0.0,0.0,0.0,0.0,0.0,0.0,0.0,0.0,0.0,0.0,0.0,0.0,0.0,0.0,3.5241,3.6393,3.858,3.971,3.971,3.971,3.932,3.8592,3.9201,3.8515,0.0,0.0,0.0,0.0,0.0,0.0,0.0,0.0,0.0,0.0,0.0,0.0,0.0,0.0,0.0,0.0,0.0,0.0,0.0,0.0,0.0,0.0,0.0,0.0,0.0,0.0,0.0,0.0,3.7503,3.8003,3.8931,0.0,0.0,0.0,0.0,0.0,0.0,0.0,0.0,0.0,0.0,4.6807,4.8665,4.9805,0.0,0.0,5.4653,5.464,5.4132,5.3994,5.3216,5.105,5.0103,0.0,0.0,0.0,0.0,0.0,0.0,0.0,0.0,0.0,0.0,0.0,0.0,0.0,0.0,0.0,0.0,0.0,0.0,0.0,0.0,0.0,0.0,0.0,0.0,0.0,0.0,0.0,0.0,0.0,0.0,0.0,0.0,0.0,0.0,0.0,0.0,0.0,0.0,0.0,0.0,0.0,0.0,0.0,0.0,0.0,0.0,0.0,0.0,0.0,0.0,0.0,0.0,3.5241,3.6393,3.858,3.971,3.971,3.971,3.9638,3.947,3.987,3.9284,0.0,0.0,0.0,0.0,0.0,0.0,0.0,0.0,0.0,0.0,0.0,0.0,0.0,0.0,0.0,0.0,0.0,0.0,0.0,0.0,0.0,0.0,0.0,0.0,0.0,0.0,0.0,0.0,3.8536,3.8871,3.9331,0.0,0.0,0.0,0.0,0.0,0.0,0.0,0.0,0.0,0.0,4.9,5.0325,5.1595,5.3118,5.5181,5.5491,5.5431,5.5251,5.4413,5.3468,5.2366,0.0,0.0,0.0,0.0,0.0,0.0,0.0,0.0,0.0,0.0,0.0,0.0,0.0,0.0,0.0,0.0,0.0,0.0,0.0,0.0,0.0,0.0,0.0,0.0,0.0,0.0,0.0,0.0,0.0,0.0,2.6499,0.0,0.0,0.0,0.0,0.0,0.0,0.0,0.0,0.0,0.0,0.0,0.0,0.0,0.0,0.0,0.0,0.0,0.0,0.0,0.0,0.0,0.0,3.5278,3.643,3.858,3.971,3.971,3.971,4.0045,4.0724,4.0599,4.0206,3.9526,0.0,0.0,0.0,0.0,0.0,0.0,0.0,0.0,0.0,0.0,0.0,0.0,0.0,0.0,0.0,0.0,0.0,0.0,0.0,0.0,0.0,0.0,0.0,0.0,0.0,0.0,3.8062,3.8886,3.9391,0.0,0.0,0.0,0.0,0.0,0.0,0.0,0.0,0.0,0.0,4.9556,5.0909,5.2683,5.2994,5.3817,5.591,5.6192,5.5953,5.5341,5.5192,5.4503,0.0,0.0,0.0,0.0,0.0,0.0,0.0,0.0,0.0,0.0,0.0,0.0,0.0,0.0,0.0,0.0,0.0,0.0,0.0,0.0,0.0,0.0,0.0,0.0,0.0,0.0,0.0,2.9395,2.8985,0.0,0.0,0.0,0.0,0.0,0.0,0.0,0.0,0.0,0.0,0.0,3.3068,3.361,0.0,0.0,0.0,0.0,0.0,0.0,0.0,0.0,0.0,0.0,0.0,0.0,3.5782,3.6959,3.8743,3.971,3.971,3.971,4.0236,4.1288,4.1656,4.149,4.0821,0.0,0.0,0.0,0.0,0.0,0.0,0.0,0.0,0.0,0.0,0.0,0.0,0.0,0.0,0.0,0.0,0.0,0.0,0.0,0.0,0.0,0.0,0.0,0.0,0.0,3.789,0.0,0.0,0.0,0.0,0.0,0.0,0.0,0.0,0.0,0.0,0.0,4.8887,4.9819,5.1735,5.3341,5.4144,5.5104,5.6137,0.0,0.0,0.0,0.0,0.0,0.0,0.0,0.0,0.0,0.0,0.0,0.0,0.0,0.0,5.7081,5.4922,5.4354,5.4132,5.3917,0.0,0.0,0.0,0.0,0.0,0.0,0.0,0.0,0.0,0.0,0.0,0.0,0.0,0.0,0.0,0.0,3.0366,0.0,0.0,0.0,0.0,0.0,0.0,0.0,0.0,3.3621,3.4525,3.5052,3.5604,3.5857,0.0,3.5668,3.5015,0.0,0.0,0.0,0.0,0.0,0.0,0.0,0.0,3.627,3.7223,3.8856,3.971,3.971,3.971,4.0503,4.2191,4.305,4.3037,4.2124,3.9948,3.8204,0.0,0.0,0.0,0.0,0.0,0.0,0.0,0.0,0.0,0.0,0.0,0.0,0.0,0.0,0.0,0.0,0.0,0.0,0.0,0.0,0.0,0.0,0.0,3.9217,0.0,0.0,0.0,0.0,0.0,0.0,0.0,0.0,0.0,4.8492,5.0187,5.1746,5.2439,5.4175,5.5437,5.5645,0.0,0.0,0.0,0.0,0.0,0.0,0.0,5.7406,5.8035,5.8215,5.8664,5.9923,6.0851,6.1732,6.26,0.0,0.0,5.8827,5.8065,5.7915,5.7915,5.8604,5.9249,5.9444,6.0192,6.0924,0.0,0.0,0.0,0.0,0.0,0.0,0.0,0.0,3.2641,3.2114,0.0,3.1597,0.0,0.0,0.0,0.0,0.0,3.2943,0.0,0.0,3.6672,3.7739,3.7274,3.7764,3.804,3.8015,3.755,3.7274,3.7148,3.5139,0.0,0.0,0.0,0.0,0.0,0.0,3.6745,3.7299,3.8919,3.976,3.971,3.9735,4.0946,4.3393,4.4669,4.4735,4.3519,4.2172,4.0885,3.9562,3.8225,0.0,0.0,0.0,0.0,0.0,0.0,0.0,0.0,0.0,0.0,0.0,0.0,0.0,0.0,0.0,0.0,0.0,0.0,0.0,0.0,4.0368,0.0,0.0,0.0,0.0,0.0,0.0,0.0,0.0,0.0,0.0,5.1624,5.3628,5.5521,5.6166,0.0,0.0,0.0,0.0,5.8175,5.8248,5.8743,5.9219,5.9205,5.9219,5.9472,6.013,0.0,0.0,6.3857,6.4126,6.4186,6.4186,6.5233,6.5278,6.278,6.1792,6.1329,6.1329,6.2331,6.2974,6.254,6.3348,6.4186,3.4745,0.0,0.0,0.0,0.0,3.5189,3.5689,3.6018,3.5842,3.5216,3.4315,3.4315,0.0,0.0,0.0,0.0,0.0,0.0,3.5467,3.6294,3.7475,3.814,3.8416,3.8956,3.9195,3.922,3.9446,3.9346,3.8982,3.8743,3.7249,3.4628,0.0,0.0,0.0,0.0,3.824,3.8492,4.001,4.0449,3.971,4.0061,4.1283,4.3456,4.5138,4.5852,4.5463,4.4187,4.308,4.2203,4.0507,0.0,0.0,0.0,0.0,0.0,0.0,0.0,0.0,0.0,0.0,0.0,0.0,0.0,0.0,0.0,0.0,0.0,0.0,0.0,4.0877,4.172,4.2491,0.0,0.0,0.0,0.0,0.0,0.0,0.0,0.0,0.0,5.6782,5.6645,5.6974,0.0,0.0,5.8723,5.9172,5.9398,5.9697,6.0162,6.0791,0.0,0.0,6.1657,6.2165,6.2794,6.441,6.5727,6.6086,6.6909,6.7567,6.7537,6.7867,6.7867,6.7178,6.6071,6.5368,6.5383,6.6026,6.6521,6.6431,6.6999,6.7537,3.7047,3.6905,3.6185,3.597,3.6234,3.6796,3.7223,3.75,3.7311,3.681,3.6172,3.6158,3.5693,3.4901,3.4899,0.0,0.0,0.0,3.6985,3.7902,3.8642,3.9208,3.9559,4.0099,4.0337,4.035,4.0663,4.0663,4.0337,4.065,3.9822,3.784,0.0,0.0,3.7461,3.8806,3.9534,3.9584,4.07,4.0876,4.0062,4.1119,4.2505,4.4198,4.5841,4.6689,4.6659,4.5642,4.4775,4.4127,4.2721,4.1294,0.0,0.0,0.0,0.0,0.0,0.0,0.0,0.0,0.0,0.0,0.0,3.8622,3.8234,0.0,0.0,0.0,4.0489,4.1902,4.4024,4.4747,0.0,0.0,0.0,0.0,0.0,0.0,0.0,5.5974,5.7769,5.9235,6.0146,5.9817,5.9591,5.9877,5.9893,6.0057,6.0446,0.0,6.1148,6.1792,6.2465,6.2929,6.3228,6.3797,6.4545,6.5458,6.6759,6.7747,6.7822,6.8495,6.8974,6.9034,6.9229,6.9409,6.9409,6.8884,6.8345,6.7897,6.8331,6.869,6.8451,6.893,6.9393,3.8588,3.9684,3.7967,3.7329,3.7449,3.7914,3.814,3.8103,3.7625,3.7374,3.7336,3.7336,3.7073,3.6609,3.6658,0.0,3.7475,3.799,3.8529,3.912,4.0111,4.0563,4.0588,4.1076,4.1289,4.1289,4.1339,4.1378,4.1378,4.1439,4.149,4.1464,4.0563,3.976,3.9195,4.0124,4.0613,4.0588,4.1138,4.123,4.0824,4.2593,4.4177,4.5441,4.6668,4.7298,4.7279,4.6719,4.6102,4.5484,4.4785,4.3269,4.0935,0.0,0.0,0.0,0.0,0.0,0.0,0.0,0.0,0.0,0.0,0.0,0.0,0.0,0.0,4.1644,4.3329,0.0,4.8004,4.8955,0.0,0.0,0.0,5.4084,5.5371,5.6645,5.7932,5.9279,0.0,0.0,6.2151,6.2854,6.278,6.1569,6.1419,6.1419,6.1405,6.1972,6.2555,6.3168,6.3767,6.4381,6.5009,6.5727,6.661,6.7703,6.863,6.9034,6.9153,6.9273,6.9243,6.9453,6.9858,7.026,7.0247,7.0679,7.0679,6.9482,6.9678,6.9887,6.9379,6.9722,7.0217,4.0594,4.0887,4.0433,3.9808,3.9132,3.9245,3.9295,3.9295,3.9183,3.8881,3.8492,3.8479,3.8404,3.8341,3.8743,3.9208,3.9709,3.9873,4.0198,4.0725,4.0988,4.1102,4.1113,4.1239,4.1289,4.1314,4.1756,4.1984,4.2034,4.2811,4.3212,4.3198,4.3349,4.2546,4.0839,4.1443,4.1569,4.1127,4.2094,4.283,4.3297,4.3847,4.4769,4.612,4.6904,4.7298,4.7298,4.7149,4.6969,4.68,4.5704,4.4766,4.4167,4.2112,0.0,0.0,0.0,0.0,0.0,0.0,0.0,0.0,0.0,4.2138,4.2138,0.0,4.4673,0.0,4.6307,4.8692,5.0956,5.27,0.0,0.0,5.6166,5.7261,5.8082,5.9338,6.0685,6.1986,6.269,6.3378,6.4201,6.4441,6.4441,6.4097,6.4067,6.4067,6.4082,6.4201,6.4351,6.456,6.5099,6.5772,6.649,6.7537,6.8375,6.8704,6.9333,6.9901,7.038,7.0889,7.1368,7.183,7.2086,7.2206,7.2176,7.2339,7.2099,7.1368,7.0949,7.0649,7.05,7.0949,7.1444,4.1289,4.1289,4.1289,4.0951,4.0412,4.0412,4.0399,4.0412,4.0412,4.0236,3.9973,3.996,3.996,3.9998,4.0287,4.0575,4.0851,4.0851,4.1026,4.1314,4.1567,4.1692,4.1731,4.1957,4.2169,4.242,4.2749,4.3039,4.3302,4.3851,4.4152,4.4152,4.4453,4.3987,4.2833,4.2861,4.2624,4.2082,4.3041,4.4014,4.4984,4.517,4.5868,4.7182,4.7269,4.7298,4.7298,4.7298,4.7298,4.7268,4.6591,4.5933,4.5315,4.3668,4.2262,0.0,0.0,0.0,0.0,0.0,0.0,0.0,0.0,0.0,0.0,0.0,4.8283,4.8832,5.0484,5.2381,5.4452,5.6208,5.7633,5.871,5.9967,6.097,6.1658,6.2376,6.3124,6.3857,6.4246,6.4575,6.4964,6.5547,6.5877,6.5906,6.6415,6.6355,6.5233,6.4994,6.5174,6.5787,6.6221,6.6939,6.8122,6.896,6.9542,6.9842,7.038,7.0965,7.1294,7.1906,7.2475,7.2834,7.2924,7.2924,7.2924,7.2924,7.2774,7.2445,7.2056,7.1727,7.1398,7.1876,7.2355,4.1565,4.1528,4.1528,4.1528,4.1528,4.1528,4.1439,4.1289,4.1289,4.1289,4.1289,4.1289,4.1289,4.1289,4.1289,4.1339,4.1403,4.1428,4.1439,4.1553,4.206,4.2324,4.2425,4.2889,4.3377,4.389,4.3915,4.4152,4.4589,4.4679,4.4715,4.4729,4.479,4.4805,4.4704,4.4267,4.3664,4.3028,4.3825,4.4911,4.618,4.6461,4.717,4.832,4.7799,4.7388,4.7298,4.7298,4.7298,4.7298,4.7399,4.685,4.5633,4.5084,4.4287,0.0,4.2693,0.0,0.0,0.0,0.0,0.0,0.0,0.0,0.0,5.0087,5.2001,5.4267,5.5134,5.6323,5.8224,5.9593,6.0941,6.2332,6.3468,6.4395,6.5024,6.5054,6.5054,6.5233,6.5263,6.5278,6.5488,6.649,6.7268,6.7328,6.8106,6.7986,6.6116,6.5667,6.6101,6.7119,6.7343,6.8092,6.9468,6.9977,7.0336,7.0919,7.1427,7.1953,7.2162,7.2654,7.3073,7.3146,7.3253,7.3223,7.3163,7.3176,7.3146,7.3057,7.3057,7.2894,7.2265,7.2565,7.2997,4.3062,4.266,4.2674,4.2674,4.2674,4.266,4.2144,4.1289,4.1289,4.1289,4.1289,4.1289,4.1289,4.1289,4.1289,4.1567,4.2021,4.2034,4.2247,4.266,4.2799,4.3076,4.3489,4.3603,4.394,4.4428,4.4453,4.4503,4.4589,4.5095,4.5321,4.5361,4.5759,4.5773,4.5361,0.0,0.0,0.0,4.4036,4.5368,4.685,4.7313,4.8043,4.903,4.8457,0.0,4.7339,4.7298,4.7298,4.7309,4.7829,0.0,0.0,0.0,0.0,0.0,0.0,0.0,0.0,0.0,0.0,0.0,5.3569,5.3379,5.2143,5.4148,5.6262,5.7929,5.902,6.0273,6.1916,6.3246,6.4142,6.4426,6.4665,6.5069,6.5697,6.5368,6.5383,6.649,6.661,6.6819,6.7343,6.8136,6.8615,6.8645,6.8854,6.8794,6.8375,6.8166,6.8315,6.8615,6.899,6.9528,6.9963,7.044,7.1009,7.1564,7.1773,7.2342,7.3223,7.3552,7.3941,7.4347,7.4527,7.4497,7.4467,7.4527,7.4287,7.3821,7.4138,7.4168,7.3013,7.3236,7.3702,4.4041,0.0,4.379,4.379,0.0,4.379,4.3463,4.2894,4.237,4.2144,4.2144,4.2119,4.2158,4.2158,4.2144,4.2283,4.2601,4.2864,4.314,4.3388,4.3678,4.394,4.4177,4.4202,4.4478,4.5045,4.5031,4.5181,4.5457,4.6024,4.6286,4.6311,4.6813,4.6828,4.6286,4.5748,4.5287,4.4948,4.6151,4.7519,4.9013,4.9337,4.9728,5.0189,0.0,0.0,0.0,0.0,0.0,0.0,0.0,0.0,0.0,0.0,0.0,4.9763,5.0451,5.1363,5.2442,5.3525,5.4726,5.6149,5.7901,5.822,5.6562,5.828,6.0008,6.1389,6.2322,6.3293,6.4411,6.5413,6.6131,6.646,6.6774,6.7133,6.7388,6.7193,6.7268,6.7807,6.7986,6.8122,6.8451,6.9363,6.9901,6.9991,7.053,7.0889,7.0799,6.9782,6.9093,6.9453,7.0336,7.0935,7.0979,7.1457,7.1966,7.2355,7.2671,7.315,7.3762,7.4197,7.4527,7.4826,7.4886,7.4886,7.4886,7.4886,7.4766,7.4527,7.4663,7.4753,7.4018,7.4168,7.4407,4.4704,4.4589,4.4589,4.4589,4.4589,4.4589,4.4589,4.4514,0.0,0.0,0.0,4.3065,4.3065,4.3126,4.314,4.3215,4.3327,4.3725,4.394,4.3951,4.4389,4.4654,4.474,4.4855,4.5206,4.5773,4.5874,4.615,4.6602,4.7023,4.7249,4.7274,4.7707,4.7691,4.7199,4.6376,4.6444,4.7451,4.8096,4.9183,5.0643,5.0962,5.1191,5.1355,5.0373,4.9756,4.9636,4.9636,4.9684,4.9816,5.0391,5.0787,5.0925,5.2175,5.2947,5.3102,5.3993,5.4994,5.6004,5.7,5.8004,5.9058,6.1283,6.2151,6.1044,6.1986,6.3109,6.4276,6.4859,6.5488,6.6265,6.6835,6.7433,6.8092,6.8675,6.9004,6.9123,6.9064,6.8944,6.9153,6.9169,6.9213,6.9393,7.035,7.1158,7.1368,7.2069,7.2924,7.2638,7.1112,7.0111,7.059,7.1457,7.2026,7.2116,7.2445,7.2907,7.3057,7.3522,7.3911,7.4138,7.4527,7.4856,7.4886,7.4886,7.4886,7.4886,7.4886,7.4886,7.4886,7.4886,7.4886,7.4886,7.4886,7.4856,4.5095,4.4589,4.4589,4.4589,4.4589,4.4589,4.4589,4.4554,4.394,4.3689,4.3664,4.3201,4.3251,4.3689,4.3689,4.394,4.4378,4.4439,4.4478,0.0,4.4564,4.488,4.5386,4.5834,4.6336,4.6888,4.7315,4.7591,4.7682,4.7741,4.7792,4.7792,4.7842,4.7883,4.7767,4.7657,4.8263,4.9657,4.7705,4.7482,4.9156,5.0169,5.1137,5.2013,5.1887,5.1528,5.096,5.096,5.1187,5.178,5.2438,5.3037,5.3641,5.4892,5.588,5.6376,5.7102,5.8072,5.9322,6.0075,6.1257,6.3005,6.4037,6.4486,6.4351,6.45,6.4919,6.5652,6.5817,6.637,6.7523,6.7808,6.8167,6.8764,6.8944,6.9213,6.9768,6.9409,6.9319,6.9828,6.9858,7.0081,7.062,7.1324,7.1996,7.2488,7.2877,7.2984,7.2967,7.2608,7.2398,7.2458,7.2608,7.2757,7.2804,7.2817,7.3223,7.3672,7.3851,7.4138,7.4587,7.4796,7.4886,7.4886,7.4886,7.4886,7.4886,7.4886,7.4886,7.4886,7.4886,7.4886,7.4886,7.4886,7.4886,4.5773,4.5533,4.5547,4.5518,4.5533,4.5533,4.5533,4.5457,4.4945,4.4543,4.4227,4.3966,4.4001,4.4227,4.4227,4.4364,4.4629,4.493,4.5081,4.5131,4.5708,4.611,4.6396,4.6913,4.7305,4.7525,4.7767,4.7908,4.7933,4.8209,4.84,4.84,4.84,4.8385,4.8375,4.8058,4.8224,4.8927,4.8596,4.9599,5.2017,5.2244,5.2985,5.4304,5.4024,5.3683,5.3384,5.3384,5.3683,5.4354,5.4952,5.5628,5.6303,5.7586,5.8437,5.8753,6.004,6.1088,6.1687,6.266,6.3752,6.4994,6.5368,6.5697,6.6056,6.5757,6.5817,6.649,6.6864,6.7493,6.8451,6.887,6.9349,6.9961,7.0021,7.0171,7.038,7.026,7.0306,7.0889,7.1025,7.1278,7.1906,7.2565,7.3043,7.3432,7.3702,7.3941,7.3941,7.3941,7.3702,7.3086,7.3193,7.3432,7.3462,7.3762,7.4078,7.4437,7.4437,7.4557,7.4856,7.4886,7.4886,7.4886,7.4886,7.4886,7.4886,7.4886,7.4886,7.4886,7.4886,7.4886,7.4886,7.4886,7.4886,4.6677,4.6662,4.6662,4.6662,4.6662,4.6662,4.6677,4.6627,4.621,4.5708,4.5181,4.479,4.4679,4.4805,4.4805,4.493,4.5206,4.5648,4.5924,4.6125,4.6888,4.7274,4.735,4.7857,4.8159,4.8269,4.841,4.852,4.8711,4.9154,4.9355,4.933,4.9229,4.9154,4.9154,4.8601,4.8284,4.8363,4.9461,5.1261,5.3641,5.3564,5.435,5.5939,5.5939,5.5927,5.606,5.6077,5.6389,5.7017,5.7526,5.8141,5.8966,6.0116,6.0819,6.1118,6.2584,6.3512,6.3602,6.459,6.5503,6.6161,6.637,6.6729,6.7313,6.6999,6.6789,6.7224,6.7658,6.8271,6.9139,6.9782,7.0456,7.1038,7.1278,7.1351,7.1351,7.1368,7.1547,7.2026,7.2132,7.2355,7.3013,7.3582,7.3911,7.4121,7.4587,7.4856,7.4886,7.4886,7.4407,7.3821,7.3791,7.4108,7.4151,7.4497,7.4796,7.4886,7.4856,7.4856,7.4886,7.4886,7.4886,7.4886,7.4886,7.4886,7.4886,7.4886,7.4886,7.4886,7.4886,7.4886,7.4886,7.4886,7.4886,4.7757,4.7741,4.7707,4.7757,4.7707,4.7732,4.7707,4.7707,4.7682,4.739,4.6697,4.5267,4.4955,4.5372,4.5422,4.5934,4.6813,4.6938,4.7174,4.7581,4.7767,4.7817,4.7908,4.8451,4.8978,4.9439,4.9875,5.0343,5.0761,5.0937,5.1038,5.1013,5.0519,5.0226,5.0176,4.9715,4.9455,4.9439,4.9584,4.9959,5.0628,5.1906,5.3627,5.5766,5.7135,5.8128,5.8513,5.8726,5.9039,5.9681,5.9771,6.0386,6.1583,6.2405,6.3078,6.3588,6.4381,6.4829,6.4889,6.5518,6.6251,6.6849,6.7463,6.8032,6.8675,6.8704,6.8451,6.8122,6.7987,6.8646,6.9738,7.0456,7.1068,7.1653,7.2265,7.2744,7.2608,7.2727,7.2757,7.2787,7.2804,7.3073,7.3672,7.3911,7.4168,7.4646,7.4796,7.4886,7.4886,7.4886,7.4886,7.4676,7.4766,7.4736,7.4766,7.4826,7.4886,7.4886,7.4886,7.4886,7.4886,7.4886,7.4886,7.4886,7.4886,7.4886,7.4886,7.4886,7.4886,7.4886,7.4886,7.4886,7.4886,7.4946,7.4976,4.7908,4.7908,4.7908,4.7908,4.7908,4.7908,4.7908,4.7908,4.7908,4.7767,4.7516,4.6838,4.6512,4.6436,4.6436,4.6863,4.7541,4.755,4.7666,4.7933,4.8259,4.8586,4.8937,4.949,5.0042,5.0586,5.0837,5.1063,5.1264,5.1289,5.1289,5.1289,5.1021,5.0937,5.0921,5.0695,5.0611,5.0594,5.0611,5.0702,5.0944,5.2029,5.3548,5.5423,5.7311,5.8441,5.8818,5.9709,6.0595,6.1208,6.1297,6.1852,6.3153,6.3468,6.3917,6.459,6.5607,6.6535,6.7328,6.7612,6.7897,6.8166,6.8405,6.872,6.8944,6.9004,6.9004,6.9169,6.9169,6.9439,7.0007,7.0905,7.1577,7.1936,7.2505,7.2924,7.2924,7.2924,7.3043,7.3386,7.3492,7.3732,7.4317,7.4497,7.4616,7.4856,7.4886,7.4886,7.4886,7.4886,7.4886,7.4886,7.4886,7.4886,7.4886,7.4886,7.4886,7.4886,7.4886,7.4886,7.4886,7.4886,7.4886,7.4886,7.4886,7.4886,7.4886,7.4886,7.4886,7.4946,7.4916,7.4886,7.4886,7.5215,7.5437,4.836,4.836,4.8344,4.8344,4.836,4.836,4.8344,4.8385,4.836,4.8284,4.8159,4.8159,4.7917,4.7566,4.7415,4.7616,4.8109,4.8309,4.846,4.8636,4.9204,4.9681,5.0108,5.0469,5.0946,5.144,5.1515,5.1599,5.1699,5.1724,5.1741,5.1724,5.159,5.1498,5.1515,5.1389,5.1289,5.1289,5.1289,5.1522,5.2022,5.2837,5.407,5.5749,5.7708,5.9071,5.9772,6.0972,6.1882,6.2331,6.251,6.3019,6.3917,6.4515,6.5203,6.6056,6.6999,6.7956,6.8944,6.9004,6.9064,6.9259,6.9273,6.9379,6.9467,6.9512,6.9722,7.0157,7.0396,7.0516,7.0636,7.1517,7.2192,7.2432,7.3043,7.3462,7.3492,7.3432,7.3672,7.4078,7.4168,7.4347,7.4766,7.4856,7.4856,7.4886,7.4886,7.4886,7.4886,7.4886,7.4886,7.4886,7.4886,7.4886,7.4886,7.4886,7.4886,7.4886,7.4886,7.4886,7.4886,7.4886,7.4886,7.4886,7.4886,7.4916,7.4976,7.4946,7.5245,7.5305,7.5215,7.5095,7.5215,7.5497,7.5647,4.9515,4.949,4.9515,4.949,4.9515,4.9515,4.9531,4.9531,4.949,4.9254,4.8843,4.8768,4.8743,4.8677,4.8209,4.8209,4.8818,4.928,4.9741,5.0201,5.0812,5.1163,5.1239,5.1264,5.154,5.2026,5.2076,5.2285,5.2737,5.277,5.282,5.277,5.2285,5.2051,5.1983,5.1641,5.1339,5.144,5.1414,5.2101,5.3515,5.42,5.5301,5.711,5.8648,6.0456,6.2361,6.2901,6.3003,6.3078,6.3528,6.3917,6.4186,6.5832,6.7403,6.8555,6.8824,6.8914,6.9064,6.9153,6.9363,6.9858,7.0007,7.0201,7.0679,7.0739,7.0799,7.0889,7.1444,7.1743,7.1893,7.2445,7.3073,7.3629,7.4317,7.4646,7.4736,7.4587,7.4766,7.4796,7.4766,7.4766,7.4886,7.4886,7.4886,7.4886,7.4886,7.4886,7.4886,7.4886,7.4886,7.4886,7.4886,7.4886,7.4886,7.4886,7.4886,7.4886,7.4886,7.4886,7.4886,7.4886,7.4886,7.4886,7.4886,7.4946,7.5035,7.5365,7.5826,7.5886,7.5514,7.5425,7.5557,7.5245,7.5557,4.959,4.964,4.9992,5.0101,5.0151,5.0519,5.0686,5.0661,5.0252,5.0001,4.9766,4.948,4.949,4.9816,4.9599,4.9599,4.9841,5.0042,5.0419,5.0962,5.1214,5.149,5.18,5.1816,5.2101,5.2561,5.2611,5.2711,5.287,5.2895,5.2895,5.287,5.2719,5.2611,5.2586,5.241,5.231,5.231,5.231,5.3129,5.4688,5.504,5.6407,5.912,5.9833,6.052,6.1407,6.2497,6.3273,6.3662,6.3901,6.4575,6.5892,6.7388,6.869,6.9498,6.9648,6.9812,7.0201,7.0636,7.0755,7.059,7.0979,7.1264,7.1487,7.1564,7.1697,7.2099,7.2355,7.2684,7.312,7.3419,7.3642,7.3911,7.4497,7.4886,7.4886,7.4886,7.4886,7.4886,7.4886,7.4886,7.4886,7.4886,7.4886,7.4886,7.4886,7.4886,7.4886,7.4886,7.4886,7.4886,7.4886,7.4886,7.4886,7.4886,7.4886,7.4886,7.4886,7.4886,7.4886,7.4886,7.4886,7.4886,7.4886,7.5035,7.5155,7.5514,7.6036,7.5886,7.5544,7.5707,7.5916,7.5916,7.6425,4.9967,5.0167,5.0343,5.0528,5.0745,5.1113,5.1289,5.1239,5.087,5.0695,5.0619,5.0293,5.0368,5.067,5.0678,5.0804,5.0929,5.0971,5.1172,5.1565,5.1741,5.2026,5.231,5.236,5.2536,5.2845,5.2895,5.2895,5.2895,5.2895,5.2895,5.2895,5.2895,5.2895,5.2895,5.2895,5.2895,5.2964,5.341,5.4524,5.6059,5.6779,5.8359,6.0884,6.1508,6.1624,6.1639,6.2794,6.3677,6.4276,6.4725,6.5877,6.7822,6.884,6.9738,7.0456,7.0636,7.0905,7.1487,7.1966,7.1996,7.1591,7.1936,7.2222,7.2206,7.2235,7.2475,7.2787,7.3116,7.3432,7.3791,7.4078,7.4227,7.4257,7.4646,7.4886,7.4886,7.4886,7.4886,7.4886,7.4886,7.4886,7.4886,7.4886,7.4886,7.4886,7.4886,7.4886,7.4886,7.4886,7.4886,7.4886,7.4886,7.4886,7.4886,7.4886,7.4886,7.4886,7.4886,7.4886,7.4886,7.4886,7.4886,7.4886,7.4976,7.5155,7.5395,7.5707,7.5766,7.5724,7.5796,7.5988,7.6347,7.6826,7.7185,5.0745,5.1113,5.067,5.082,5.1289,5.1414,5.1364,5.1398,5.1339,5.1289,5.1264,5.1239,5.1163,5.1272,5.1289,5.1574,5.1975,5.2009,5.2009,5.2151,5.2561,5.277,5.282,5.2795,5.282,5.2895,5.2895,5.2895,5.2895,5.2895,5.2895,5.2895,5.2895,5.2895,5.2895,5.2895,5.2895,5.3196,5.4349,5.6076,5.7941,5.9274,6.09,6.2775,6.3427,6.3726,6.3859,6.3962,6.4366,6.5099,6.6191,6.7882,6.9409,6.9947,7.0546,7.1504,7.1803,7.2176,7.2698,7.2847,7.2894,7.2698,7.2847,7.2894,7.2924,7.2877,7.2967,7.3176,7.3582,7.3941,7.4078,7.4467,7.4796,7.4903,7.4886,7.4886,7.4886,7.4886,7.4886,7.4886,7.4886,7.4886,7.4886,7.4886,7.4886,7.4886,7.4886,7.4886,7.4886,7.4886,7.4886,7.4886,7.4886,7.4886,7.4886,7.4886,7.4886,7.4886,7.4886,7.4886,7.4886,7.4886,7.4886,7.4886,7.4886,7.5095,7.6036,7.6317,7.6395,7.6365,7.6347,7.6347,7.6647,7.7065,7.7484,5.1138,5.1322,5.1523,5.1674,5.19,5.2234,5.2385,5.2335,5.2009,5.1867,5.1774,5.1465,5.1498,5.18,5.185,5.2151,5.2636,5.2661,5.2636,5.2686,5.2837,5.2895,5.2895,5.2895,5.2895,5.2895,5.2895,5.2895,5.2895,5.2895,5.2895,5.2895,5.2895,5.2895,5.292,5.2895,5.2895,5.3093,5.4541,5.6228,5.7973,5.9657,6.1377,6.2935,6.3692,6.4201,6.465,6.471,6.5248,6.6311,6.6775,6.7912,6.9618,7.0396,7.1009,7.1773,7.1893,7.2176,7.2864,7.3343,7.3386,7.3116,7.3313,7.3582,7.3582,7.3582,7.3791,7.4151,7.4467,7.4587,7.4646,7.4753,7.4886,7.4886,7.4886,7.4916,7.4946,7.4916,7.4886,7.4886,7.4886,7.4886,7.4916,7.4916,7.4916,7.5006,7.4976,7.4946,7.4916,7.4976,7.4886,7.4886,7.4886,7.4886,7.4886,7.4886,7.4886,7.4976,7.5006,7.5095,7.5065,7.5035,7.5006,7.5035,7.5006,7.5467,7.6377,7.6736,7.6736,7.6993,7.7053,7.7006,7.6946,7.7365,7.8023,5.1699,5.19,5.2051,5.2226,5.241,5.2787,5.2895,5.2845,5.2561,5.2385,5.231,5.2051,5.2076,5.2335,5.2385,5.2586,5.287,5.2895,5.2895,5.2895,5.2895,5.2895,5.2895,5.2895,5.2895,5.2945,5.3113,5.3071,5.2937,5.3088,5.3088,5.2945,5.3113,5.3213,5.3239,5.3414,5.3457,5.3567,5.575,5.7478,5.8705,6.087,6.269,6.374,6.4425,6.5039,6.5697,6.5966,6.649,6.7313,6.7822,6.896,7.0546,7.1115,7.1667,7.2461,7.2701,7.2954,7.3582,7.4061,7.4121,7.3791,7.4031,7.4257,7.4287,7.427,7.4497,7.4796,7.4886,7.4886,7.4886,7.4886,7.4886,7.4886,7.4886,7.5006,7.5155,7.5275,7.5305,7.5288,7.5305,7.5275,7.5275,7.5006,7.5155,7.5425,7.5425,7.5275,7.5275,7.5305,7.5215,7.5035,7.4886,7.4886,7.4886,7.4886,7.4886,7.5035,7.5185,7.5335,7.5437,7.5437,7.5407,7.5557,7.5587,7.6215,7.7065,7.6886,7.6826,7.7215,7.7652,7.7532,7.7514,7.8412,7.904,5.2435,5.282,5.236,5.2435,5.282,5.2895,5.2895,5.2895,5.287,5.2837,5.2845,5.277,5.2795,5.287,5.2795,5.2845,5.2895,5.2895,5.2895,5.292,5.2945,5.2995,5.2895,5.2895,5.2945,5.3071,5.3439,5.3439,5.3213,5.3557,5.3576,5.3551,5.3748,5.389,5.4122,5.4462,5.4228,5.433,5.7591,5.9316,5.9272,6.2787,6.486,6.4994,6.5607,6.6281,6.6909,6.7703,6.8137,6.8287,6.9349,7.0516,7.1593,7.1923,7.2505,7.3612,7.3851,7.4121,7.4646,7.4736,7.4766,7.4706,7.4826,7.4933,7.4826,7.4976,7.5095,7.5095,7.5125,7.5125,7.5155,7.5155,7.5155,7.5065,7.5125,7.5335,7.5766,7.5869,7.5946,7.5929,7.5946,7.5946,7.5946,7.5484,7.5736,7.6198,7.6198,7.5988,7.5946,7.5856,7.5617,7.5467,7.5395,7.5407,7.5587,7.5587,7.5617,7.5736,7.5844,7.5933,7.5916,7.5856,7.6096,7.6245,7.6258,7.6946,7.7394,7.7305,7.7365,7.7783,7.7981,7.7891,7.837,7.9189,7.9716,5.2787,5.2887,5.2737,5.2787,5.2895,5.2895,5.2895,5.2895,5.2895,5.2895,5.2895,5.2895,5.2895,5.2895,5.2895,5.2895,5.2895,5.2895,5.2895,5.297,5.3339,5.3213,5.297,5.292,5.3138,5.3464,5.3683,5.3833,5.4127,5.4278,5.4869,5.6061,5.4799,5.504,5.6064,5.5156,5.4557,5.4863,5.7933,5.9789,6.0213,6.3183,6.5189,6.5757,6.64,6.7104,6.7822,6.9319,6.9887,6.9588,7.0696,7.1504,7.1983,7.2385,7.3043,7.3732,7.3941,7.4197,7.4766,7.4916,7.4916,7.4946,7.5377,7.5407,7.4976,7.5766,7.5976,7.5856,7.5988,7.6258,7.6258,7.6245,7.6275,7.6228,7.5916,7.5766,7.6006,7.6288,7.6557,7.6569,7.6587,7.6587,7.6527,7.6425,7.6425,7.6736,7.6736,7.6569,7.6587,7.6557,7.6377,7.6425,7.6395,7.6347,7.6347,7.6347,7.6407,7.6557,7.6664,7.6754,7.6604,7.6347,7.6814,7.7203,7.6796,7.7185,7.7753,7.8011,7.825,7.834,7.8519,7.8579,7.907,7.9758,8.0135,5.2895,5.2895,5.2895,5.2895,5.2895,5.2895,5.2895,5.2895,5.2895,5.2895,5.2895,5.2895,5.2895,5.2895,5.2895,5.2895,5.2895,5.2895,5.302,5.3339,5.3808,5.3884,5.3632,5.3414,5.3515,5.4009,5.4059,5.4253,5.4572,5.4805,5.5446,5.575,5.5365,5.552,5.618,5.5827,5.515,5.5657,5.8501,6.048,6.0509,6.419,6.6172,6.6909,6.7508,6.8241,6.9259,7.059,7.1009,7.0769,7.1577,7.2461,7.2761,7.3073,7.3642,7.4257,7.4317,7.4616,7.5185,7.5335,7.5455,7.5677,7.6108,7.6048,7.5916,7.6437,7.6587,7.6377,7.6647,7.6766,7.6826,7.6826,7.6826,7.6736,7.6736,7.6694,7.6676,7.6766,7.6928,7.7108,7.7215,7.7245,7.7215,7.7006,7.7155,7.7424,7.7424,7.7305,7.7215,7.7215,7.7155,7.7065,7.6976,7.6826,7.6826,7.6826,7.6976,7.7125,7.7454,7.7562,7.7412,7.7125,7.7424,7.7753,7.7424,7.7454,7.8172,7.8639,7.8519,7.8651,7.8998,7.9537,8.0027,8.0476,8.0794,5.2895,5.2895,5.2895,5.2895,5.2895,5.2895,5.2895,5.2895,5.2895,5.2895,5.2895,5.2895,5.2895,5.2895,5.2895,5.2895,5.2895,5.2895,5.3314,5.3783,5.4353,5.4672,5.4705,5.4059,5.4177,5.4579,5.4672,5.4773,5.4981,5.5333,5.5498,5.5789,5.5836,5.5775,5.6405,5.6309,5.6051,5.6678,5.9668,6.1625,6.2357,6.5619,6.7819,6.8271,6.9034,6.9901,7.0889,7.1773,7.1923,7.1278,7.2368,7.3193,7.3778,7.3898,7.4257,7.4736,7.4946,7.5275,7.5766,7.5916,7.6168,7.6557,7.6766,7.6838,7.6779,7.7048,7.7287,7.6946,7.7095,7.7544,7.7574,7.7365,7.7365,7.7466,7.7724,7.7831,7.7801,7.7365,7.7245,7.7783,7.7921,7.7921,7.7771,7.7514,7.7454,7.81,7.8071,7.7981,7.7921,7.7921,7.7694,7.7424,7.7305,7.7137,7.7215,7.7275,7.7437,7.7646,7.8112,7.8292,7.834,7.819,7.825,7.8292,7.8322,7.8561,7.9058,7.9178,7.9058,7.9537,8.0195,8.0674,8.1074,8.1471,8.18,5.2895,5.2895,5.2895,5.2895,5.2895,5.2895,5.292,5.292,5.292,5.2995,5.292,5.292,5.2945,5.2945,5.2995,5.2895,5.2995,5.3071,5.3414,5.4429,5.4956,5.5483,5.5541,5.4881,5.4755,5.5107,5.5232,5.5458,5.5792,5.6077,5.6931,5.8144,5.7041,5.7335,5.8288,5.7265,5.7368,5.8427,6.0987,6.2973,6.4487,6.6995,6.9049,6.9558,7.0636,7.1577,7.2415,7.3133,7.3373,7.3373,7.3522,7.3881,7.4091,7.4467,7.4796,7.5065,7.5467,7.5766,7.5976,7.6377,7.6659,7.6898,7.7394,7.7365,7.6958,7.8322,7.8471,7.8202,7.8968,7.9597,7.9597,7.9369,7.91,7.895,7.8789,7.8639,7.8579,7.8448,7.831,7.8519,7.8579,7.8597,7.8627,7.8519,7.8519,7.8777,7.8699,7.8579,7.8579,7.8579,7.8519,7.8292,7.8352,7.8352,7.8382,7.8382,7.8352,7.8412,7.8741,7.913,7.9148,7.9118,7.9118,7.9267,7.9429,7.9716,7.9866,8.0195,8.0165,8.0823,8.1422,8.1931,8.232,8.2578,8.2806,5.3457,5.3658,5.3406,5.3457,5.3683,5.3683,5.3683,5.3683,5.3708,5.3708,5.3708,5.3683,5.3683,5.3708,5.3683,5.3708,5.3783,5.3984,5.4386,5.5031,5.5534,5.5917,5.6068,5.5717,5.5534,5.5767,5.5767,5.6093,5.6477,5.6902,5.7567,5.8701,5.7864,5.7801,5.8679,5.7975,5.835,5.9799,6.1832,6.3886,6.5857,6.8173,6.9991,7.0845,7.1846,7.2684,7.3343,7.3642,7.4031,7.4347,7.4629,7.4839,7.4869,7.5168,7.5437,7.5826,7.6066,7.6497,7.6796,7.7095,7.7394,7.7724,7.8352,7.8442,7.8531,7.9567,7.9848,7.9578,8.0075,8.0794,8.0794,8.0554,8.0296,8.0207,7.9956,7.9716,7.9597,7.8968,7.8669,7.9028,7.9267,7.9477,7.9567,7.9387,7.9297,7.9387,7.8897,7.8789,7.9267,7.9327,7.9548,7.9548,7.9668,7.9716,7.9716,7.9627,7.9429,7.9369,7.9369,7.9806,8.0045,7.9986,7.9896,8.0105,8.0285,8.0315,8.0524,8.0853,8.1362,8.189,8.2458,8.3098,8.3576,8.3756,8.3906,5.4127,5.4572,5.4052,5.4127,5.4547,5.4572,5.4547,5.4547,5.4597,5.4471,5.4597,5.4597,5.4446,5.4547,5.4522,5.4572,5.4697,5.5031,5.5239,5.534,5.5867,5.6219,5.6301,5.6319,5.6369,5.6426,5.6351,5.6627,5.7154,5.7606,5.7932,5.807,5.8083,5.8152,5.8102,5.8521,5.9485,6.1256,6.3263,6.521,6.7053,6.923,7.09,7.2102,7.2684,7.3373,7.3898,7.4168,7.4377,7.5006,7.5587,7.5946,7.6155,7.6078,7.6228,7.6766,7.6976,7.7412,7.7831,7.819,7.8609,7.9136,7.9567,7.9878,8.0027,8.0434,8.0764,8.0943,8.1183,8.1422,8.1362,8.1482,8.1332,8.1183,8.1123,8.1063,8.0644,7.9327,7.9189,7.9638,7.9956,8.0105,8.0225,8.0195,8.0057,7.9848,7.9327,7.9166,7.9656,7.9907,8.0057,8.0266,8.0315,8.0584,8.0662,8.0662,8.0494,8.0345,8.0225,8.0494,8.0883,8.1111,8.1081,8.0962,8.1051,8.1201,8.1542,8.2091,8.2559,8.2937,8.3416,8.4055,8.4504,8.4874,8.5073,5.4522,5.4597,5.4479,5.4522,5.4597,5.4622,5.4672,5.4597,5.4697,5.4622,5.4647,5.4622,5.4697,5.4672,5.4622,5.4622,5.4856,5.5257,5.5465,5.5541,5.6018,5.6426,5.6734,5.6878,5.7104,5.7355,5.7204,5.7255,5.7606,5.7876,5.8278,5.851,5.856,5.856,5.9028,6.0052,6.1372,6.3082,6.5235,6.7321,6.9234,7.0761,7.2086,7.327,7.3582,7.4061,7.4587,7.4766,7.5065,7.5677,7.5809,7.6467,7.7113,7.7006,7.6898,7.7185,7.7921,7.8489,7.8759,7.9627,8.0165,8.0494,8.0614,8.0674,8.0823,8.1272,8.183,8.1919,8.2309,8.2847,8.3916,8.3318,8.2918,8.2668,8.2428,8.2279,8.171,8.1063,8.0416,8.0835,8.0853,8.0794,8.1063,8.1063,8.0734,8.0446,8.0016,8.0016,8.0464,8.0434,8.0296,8.0524,8.0734,8.1123,8.1471,8.153,8.1471,8.1272,8.1212,8.1272,8.171,8.2189,8.2279,8.2069,8.2159,8.2458,8.2858,8.3258,8.3876,8.4344,8.4684,8.4953,8.5492,8.597,8.627,5.5182,5.539,5.5132,5.5182,5.539,5.5415,5.5415,5.5433,5.5415,5.5433,5.5433,5.5433,5.5433,5.5433,5.5415,5.5433,5.5534,5.5641,5.5817,5.5942,5.6351,5.6709,5.7085,5.7286,5.7782,5.8083,5.8033,5.7983,5.8309,5.8629,5.8805,5.9012,5.9112,5.9131,5.9541,6.0957,6.2963,6.487,6.7107,6.9324,7.1294,7.2461,7.3329,7.3748,7.4287,7.4766,7.5275,7.5425,7.5736,7.6288,7.6706,7.7394,7.8011,7.8352,7.8334,7.8471,7.898,7.9507,7.9746,8.0524,8.0734,8.0853,8.1362,8.18,8.2099,8.2649,8.3217,8.3367,8.3457,8.3995,8.4515,8.4425,8.4096,8.3876,8.3805,8.3655,8.3307,8.2978,8.2649,8.2211,8.1781,8.1811,8.2271,8.2032,8.1482,8.1063,8.0704,8.0943,8.1381,8.1242,8.1044,8.1601,8.1931,8.205,8.2398,8.2368,8.2398,8.2249,8.1979,8.2069,8.238,8.2877,8.3038,8.2978,8.3247,8.3596,8.3636,8.3827,8.4754,8.5551,8.5492,8.5611,8.6449,8.7048,8.7197,5.5974,5.6326,5.6018,5.6068,5.6326,5.6351,5.6326,5.6351,5.6219,5.6143,5.6219,5.6194,5.6219,5.6369,5.6477,5.6527,5.6527,5.6552,5.6595,5.6652,5.6979,5.723,5.7487,5.7807,5.8309,5.8761,5.883,5.888,5.8911,5.9182,5.9408,5.9508,5.9533,6.0001,6.0705,6.2692,6.4625,6.6781,6.8859,7.1047,7.2691,7.3612,7.4018,7.4108,7.4616,7.5185,7.5736,7.5826,7.6258,7.6886,7.7484,7.813,7.8908,7.9489,7.9967,8.0296,8.0285,8.0524,8.0853,8.1422,8.1673,8.1762,8.2608,8.3027,8.3495,8.4194,8.5043,8.5132,8.5312,8.5252,8.5372,8.5312,8.5252,8.5162,8.5252,8.5233,8.5043,8.4773,8.4504,8.3906,8.2978,8.2649,8.2918,8.2769,8.211,8.22,8.1871,8.22,8.2548,8.238,8.2391,8.3038,8.3367,8.3277,8.3307,8.3266,8.3236,8.3128,8.2728,8.2488,8.2948,8.3457,8.3557,8.3707,8.4175,8.4444,8.4395,8.4574,8.5462,8.599,8.591,8.6359,8.7317,8.7646,8.7706,5.6835,5.6935,5.738,5.7349,5.6953,5.6885,5.691,5.6853,5.6477,5.6219,5.6369,5.6294,5.6552,5.6928,5.7405,5.7625,5.7625,5.7549,5.7499,5.7499,5.77,5.7983,5.8384,5.8535,5.8905,5.9307,5.9427,5.9408,5.9357,5.9433,5.9533,5.9608,6.0096,6.0997,6.2619,6.4632,6.7533,6.9525,7.1434,7.2818,7.3604,7.3911,7.4257,7.4616,7.4916,7.5305,7.5946,7.6125,7.6617,7.7634,7.7813,7.8471,7.9429,7.9728,8.0853,8.168,8.1998,8.162,8.1979,8.26,8.3138,8.3198,8.3965,8.4384,8.4893,8.5661,8.6469,8.6499,8.6918,8.6928,8.6678,8.6978,8.6928,8.6838,8.6808,8.6738,8.6529,8.6,8.5821,8.5312,8.4344,8.3506,8.3236,8.3027,8.2817,8.2978,8.3187,8.3487,8.3666,8.3576,8.3348,8.3906,8.4534,8.4534,8.4235,8.4175,8.4085,8.4025,8.3547,8.3117,8.3576,8.4066,8.4215,8.4455,8.4953,8.5312,8.5372,8.5671,8.6289,8.6559,8.6708,8.7397,8.8295,8.8384,8.8325,5.7782,5.7549,5.7801,5.775,5.7531,5.7506,5.7506,5.7455,5.7255,5.7173,5.7173,5.7173,5.7323,5.7556,5.7826,5.7876,5.7901,5.7951,5.7901,5.8033,5.8208,5.8485,5.8786,5.9263,5.9709,5.9659,6.003,6.0004,5.9804,5.9603,5.9608,5.994,6.0367,6.1491,6.4028,6.5999,6.8231,7.0473,7.2646,7.4083,7.4407,7.4497,7.4616,7.4933,7.5245,7.5766,7.6335,7.6856,7.7604,7.8651,7.8938,7.9567,8.0674,8.1332,8.2129,8.3019,8.3427,8.3457,8.3576,8.4006,8.4215,8.4455,8.4953,8.5551,8.6299,8.7167,8.7816,8.7846,8.8065,8.8035,8.7876,8.8115,8.8035,8.8035,8.8125,8.7756,8.7457,8.7137,8.6748,8.621,8.5721,8.5002,8.4374,8.4265,8.4145,8.3965,8.4235,8.4594,8.4803,8.4893,8.4654,8.4504,8.5162,8.5721,8.5342,8.5073,8.4972,8.4833,8.4384,8.4115,8.4384,8.4694,8.4844,8.5222,8.5731,8.605,8.6259,8.6469,8.6768,8.7157,8.7546,8.8115,8.8684,8.9163,8.9163,5.866,5.8303,5.8303,5.8227,5.8102,5.8102,5.8083,5.8102,5.7901,5.7876,5.7951,5.8001,5.8077,5.8177,5.8278,5.8403,5.8353,5.8303,5.8303,5.8459,5.8786,5.9112,5.9463,6.0016,6.0311,5.9929,6.0683,6.0683,6.0236,6.001,6.0186,6.0401,6.1532,6.2993,6.5127,6.7506,6.987,7.2181,7.385,7.4715,7.4826,7.4856,7.4976,7.5245,7.5677,7.6258,7.7006,7.7664,7.8639,7.9429,7.9907,8.0494,8.153,8.2189,8.2967,8.3906,8.4564,8.5252,8.5192,8.5263,8.5103,8.5402,8.606,8.7067,8.7975,8.8693,8.8953,8.8863,8.8893,8.8863,8.8774,8.8774,8.8893,8.8953,8.9082,8.8604,8.8185,8.8035,8.7676,8.7077,8.6718,8.6659,8.615,8.594,8.5611,8.5132,8.5282,8.5701,8.6,8.627,8.627,8.609,8.6449,8.7038,8.6738,8.6359,8.614,8.5641,8.5192,8.5103,8.5372,8.5462,8.5521,8.597,8.6409,8.6678,8.6838,8.7008,8.7187,8.7516,8.7826,8.8355,8.8893,8.9462,8.9881,5.9433,5.9382,5.9377,5.9056,5.866,5.8616,5.866,5.861,5.8152,5.8001,5.8127,5.8409,5.8635,5.8736,5.9031,5.9276,5.9357,5.9382,5.9382,5.9558,5.9865,6.0085,6.0362,6.0688,6.1065,6.0964,6.1336,6.1311,6.1203,6.1438,6.0975,6.0684,6.2871,6.5422,6.7735,6.9852,7.1968,7.3744,7.4753,7.4852,7.4916,7.5006,7.5228,7.5677,7.5946,7.6455,7.7682,7.837,7.9178,7.9997,8.0596,8.1164,8.2099,8.2877,8.3775,8.4773,8.5821,8.6539,8.6838,8.6449,8.614,8.6738,8.7606,8.8474,8.9133,8.9462,8.9632,8.9612,8.9612,8.9372,8.9222,8.9193,8.9552,8.9671,8.9681,8.9382,8.9112,8.9133,8.8714,8.8025,8.7676,8.7556,8.7756,8.7437,8.6748,8.621,8.6659,8.7097,8.7556,8.7856,8.8055,8.8085,8.8185,8.8384,8.8265,8.7906,8.7337,8.6768,8.621,8.621,8.6359,8.6329,8.606,8.6289,8.6619,8.7038,8.7377,8.7407,8.7496,8.7766,8.8155,8.8663,8.9292,8.995,9.0259,5.9527,5.9527,5.9527,5.9382,5.9187,5.9182,5.9182,5.9162,5.8981,5.8899,5.8855,5.9106,5.9207,5.9257,5.9357,5.9709,5.996,6.001,6.0186,6.0487,6.0738,6.0839,6.1065,6.1291,6.1517,6.1441,6.1743,6.1718,6.1295,6.259,6.3492,6.3941,6.4635,6.6285,6.8706,7.1765,7.3852,7.4542,7.4916,7.4916,7.4976,7.5335,7.5647,7.5856,7.6874,7.7442,7.837,7.9058,7.9956,8.0853,8.1572,8.223,8.2948,8.3865,8.4853,8.5761,8.6828,8.7586,8.8155,8.7796,8.7726,8.7945,8.8744,8.9432,8.9791,9.001,9.0219,9.0259,9.0219,8.993,9.0049,9.01,9.0279,9.0339,9.0219,8.996,8.9801,8.9731,8.9432,8.8594,8.8424,8.8394,8.8684,8.8923,8.8085,8.7377,8.7915,8.8444,8.8813,8.9082,8.9112,8.9142,8.9202,8.9082,8.8933,8.8684,8.8414,8.7846,8.7197,8.7077,8.6988,8.6678,8.6499,8.6678,8.6798,8.7107,8.7407,8.7616,8.7975,8.8484,8.8753,8.9023,8.969,9.0378,9.0507,5.9583,5.9709,5.9583,5.9527,5.9527,5.9527,5.9527,5.9527,5.9502,5.9527,5.9527,5.9633,5.9653,5.9608,5.9935,6.001,6.0317,6.0468,6.0814,6.1065,6.1285,6.1391,6.1617,6.1868,6.2119,6.1943,6.2225,6.23,6.1949,6.3923,6.4559,6.4997,6.6036,6.7747,7.0058,7.2923,7.4976,7.5155,7.5185,7.5335,7.5527,7.5916,7.6395,7.6544,7.7352,7.816,7.8968,7.9776,8.0584,8.159,8.2458,8.3187,8.4055,8.5013,8.611,8.6858,8.7646,8.8454,8.8813,8.8983,8.8983,8.9013,8.9531,8.9911,9.01,9.0378,9.0477,9.0537,9.0567,9.0597,9.0597,9.0558,9.0528,9.0498,9.0498,9.0319,9.001,8.9851,8.9552,8.9133,8.9202,8.9412,8.9352,8.9642,8.9292,8.8604,8.8774,8.9202,8.9561,8.975,8.9801,8.9801,8.9801,8.9621,8.9412,8.9222,8.9013,8.8684,8.8095,8.7616,8.7407,8.7097,8.6768,8.6738,8.6888,8.7197,8.7526,8.7915,8.8604,8.9402,8.9561,8.966,8.996,9.0537,9.0537,5.9809,6.0191,5.9709,5.9508,5.9578,5.9527,5.9527,5.9508,5.9558,5.9608,5.9734,6.0111,6.006,5.9935,6.0582,6.0763,6.0668,6.0989,6.1285,6.1512,6.1843,6.1969,6.2124,6.24,6.2551,6.2752,6.2777,6.2727,6.2626,6.3583,6.4414,6.6454,6.8277,7.007,7.1938,7.3842,7.5193,7.5766,7.5796,7.6138,7.6437,7.6736,7.7233,7.7592,7.81,7.892,8.0045,8.0494,8.1302,8.2338,8.3217,8.3767,8.4156,8.5761,8.6708,8.7008,8.8594,8.9432,8.9642,8.9692,8.9671,8.9681,9.016,9.0378,9.0507,9.0597,9.0597,9.0597,9.0597,9.0597,9.0597,9.0597,9.0597,9.0597,9.0597,9.0537,9.0229,9.01,8.989,8.9741,9.0169,9.0477,9.0289,9.019,9.016,8.995,8.9851,8.998,9.0199,9.0259,9.0229,9.0229,9.0199,9.0139,8.996,8.9801,8.9612,8.9342,8.8983,8.8484,8.7975,8.7606,8.7277,8.6948,8.7277,8.7796,8.8065,8.8274,8.9043,8.9761,9.0199,9.0388,9.0567,9.0597,9.0597,5.9834,6.0242,5.9734,5.9709,5.994,5.9633,5.9527,5.9558,5.9885,6.0261,6.0588,6.0839,6.0839,6.0839,6.0964,6.1291,6.1466,6.1522,6.1818,6.227,6.2446,6.2501,6.2601,6.2651,6.2802,6.2802,6.2802,6.2802,6.2752,6.3801,6.587,6.8092,7.1062,7.3444,7.4095,7.5073,7.5719,7.5929,7.6228,7.6599,7.6898,7.7604,7.822,7.8519,7.9208,8.0225,8.1411,8.156,8.2129,8.3277,8.4186,8.4485,8.5023,8.6539,8.7516,8.7965,8.9282,8.9881,9.016,9.0289,9.0309,9.0378,9.0438,9.0597,9.0597,9.0597,9.0597,9.0597,9.0597,9.0597,9.0597,9.0597,9.0597,9.0597,9.0597,9.0597,9.0438,9.0468,9.0408,9.0348,9.0567,9.0597,9.0498,9.0408,9.0408,9.0289,9.01,9.019,9.0378,9.0447,9.0477,9.0477,9.0477,9.0537,9.0477,9.0229,9.016,8.998,8.9731,8.9342,8.8803,8.8205,8.8025,8.7876,8.8175,8.8484,8.8843,8.9202,8.9522,9.001,9.0378,9.0567,9.0597,9.0597,9.0597,6.0091,6.0512,5.9809,5.9935,6.0462,6.001,5.9885,6.0111,6.0462,6.0864,6.1185,6.1361,6.1316,6.1316,6.1617,6.1667,6.2069,6.2225,6.2325,6.2802,6.2802,6.2752,6.2777,6.2802,6.2802,6.2802,6.2802,6.2802,6.2904,6.483,6.7215,7.0238,7.3808,7.4872,7.5423,7.5804,7.6377,7.6647,7.7035,7.7335,7.7783,7.843,7.9088,7.9447,8.0165,8.1302,8.2249,8.2698,8.2918,8.4265,8.4933,8.5203,8.6,8.7107,8.8125,8.8774,8.9561,9.013,9.0498,9.0567,9.0528,9.0567,9.0597,9.0597,9.0597,9.0597,9.0597,9.0597,9.0597,9.0597,9.0597,9.0597,9.0597,9.0597,9.0597,9.0597,9.0627,9.0677,9.0767,9.0717,9.0776,9.0767,9.0648,9.0597,9.0537,9.0438,9.0289,9.0408,9.0507,9.0567,9.0597,9.0597,9.0597,9.0597,9.0597,9.0537,9.0528,9.0588,9.0249,8.9821,8.9402,8.8774,8.8774,8.8753,8.8923,8.9202,8.9801,9.019,9.019,9.0229,9.0408,9.0537,9.0597,9.0657,9.0687,6.0688,6.1009,6.001,6.0211,6.1034,6.0693,6.0763,6.121,6.121,6.124,6.1336,6.1868,6.1843,6.1612,6.232,6.245,6.2225,6.2551,6.2701,6.2777,6.2802,6.2802,6.2802,6.2802,6.2802,6.2802,6.2802,6.2843,6.3067,6.5437,6.8351,7.1288,7.4386,7.5697,7.6245,7.6724,7.7185,7.7442,7.7921,7.8232,7.8729,7.9489,7.9956,8.0345,8.1003,8.1991,8.2758,8.3147,8.3775,8.4654,8.5342,8.5641,8.6389,8.7646,8.8334,8.9112,9.0049,9.0408,9.0597,9.0597,9.0597,9.0597,9.0597,9.0597,9.0597,9.0597,9.0597,9.0597,9.0597,9.0597,9.0597,9.0597,9.0597,9.0597,9.0597,9.0657,9.0717,9.0806,9.0956,9.1036,9.1126,9.1066,9.0687,9.0597,9.0597,9.0537,9.0468,9.0477,9.0567,9.0567,9.0597,9.0597,9.0597,9.0597,9.0597,9.0597,9.0597,9.0597,9.0339,8.9941,8.9582,8.9462,8.9412,8.9441,8.9552,8.983,9.0249,9.0438,9.0507,9.0567,9.0507,9.0537,9.0597,9.0806,9.0887,6.1285,6.1667,6.1009,6.1115,6.1743,6.1974,6.1974,6.1793,6.1793,6.1943,6.235,6.2501,6.2395,6.24,6.2656,6.2651,6.2676,6.2701,6.2777,6.2802,6.2802,6.2802,6.2802,6.2802,6.2802,6.2802,6.2802,6.2888,6.367,6.5975,6.8403,7.0623,7.4785,7.6347,7.7293,7.7891,7.8011,7.822,7.8759,7.9118,7.9716,8.0494,8.0883,8.1332,8.2121,8.3068,8.3786,8.4055,8.4773,8.5821,8.5761,8.6,8.7227,8.8155,8.8873,8.9989,9.0447,9.0597,9.0597,9.0597,9.0597,9.0597,9.0597,9.0597,9.0597,9.0597,9.0597,9.0597,9.0687,9.0746,9.0717,9.0687,9.0657,9.0627,9.0687,9.0806,9.0926,9.1246,9.1336,9.1096,9.1186,9.1066,9.0717,9.0597,9.0597,9.0597,9.0597,9.0597,9.0597,9.0597,9.0597,9.0597,9.0597,9.0597,9.0597,9.0597,9.0597,9.0567,9.0319,9.0219,9.0169,9.0079,9.0049,9.007,9.007,9.0229,9.0498,9.0597,9.0597,9.0597,9.0567,9.0597,9.0657,9.0836,9.1186,6.1718,6.1918,6.1436,6.1512,6.2044,6.2576,6.2601,6.2325,6.23,6.2526,6.2777,6.2802,6.2802,6.2752,6.2777,6.2802,6.2802,6.2777,6.2802,6.2802,6.2802,6.2802,6.2802,6.2802,6.2802,6.2802,6.2852,6.2973,6.4284,6.7453,7.0281,7.3125,7.6189,7.7212,7.8142,7.8759,7.9118,7.9267,7.9507,7.9758,8.0345,8.1153,8.174,8.235,8.3288,8.4126,8.4983,8.5103,8.5731,8.6529,8.62,8.6589,8.7706,8.8544,8.9441,9.0378,9.0567,9.0597,9.0597,9.0597,9.0597,9.0627,9.0627,9.0597,9.0597,9.0597,9.0597,9.0627,9.0806,9.0956,9.0866,9.0776,9.0717,9.0627,9.0806,9.1007,9.1336,9.1665,9.1485,9.1156,9.1016,9.0896,9.0746,9.0657,9.0597,9.0597,9.0597,9.0597,9.0597,9.0597,9.0597,9.0597,9.0597,9.0597,9.0597,9.0597,9.0597,9.0597,9.0537,9.0498,9.0597,9.0537,9.0378,9.0438,9.0537,9.0597,9.0597,9.0597,9.0597,9.0597,9.0627,9.0627,9.0657,9.0717,9.1186,6.2069,6.2044,6.1517,6.1667,6.2094,6.2601,6.2802,6.2802,6.2752,6.2802,6.2802,6.2802,6.2802,6.2802,6.2802,6.2802,6.2802,6.2802,6.2802,6.2802,6.2802,6.2802,6.2802,6.2802,6.2802,6.2822,6.3321,6.4192,6.5531,6.8423,7.2226,7.6485,7.7473,7.822,7.8878,7.9537,7.9937,8.0207,8.0225,8.0315,8.0554,8.1291,8.2249,8.2877,8.3666,8.4485,8.5462,8.593,8.615,8.6619,8.6978,8.7307,8.8145,8.9082,9.001,9.0348,9.0597,9.0597,9.0597,9.0597,9.0597,9.0627,9.0627,9.0776,9.0866,9.0657,9.0597,9.0627,9.0806,9.1016,9.1016,9.1186,9.1186,9.1306,9.1515,9.1635,9.1814,9.1985,9.1784,9.1455,9.1105,9.0986,9.0717,9.0597,9.0597,9.0597,9.0597,9.0597,9.0597,9.0597,9.0597,9.0597,9.0597,9.0597,9.0597,9.0597,9.0597,9.0597,9.0597,9.0597,9.0597,9.0597,9.0597,9.0597,9.0597,9.0597,9.0597,9.0597,9.0597,9.0597,9.0627,9.0657,9.0687,9.0746,9.1126,6.2601,6.2601,6.2476,6.2501,6.2601,6.2752,6.2802,6.2802,6.2802,6.2802,6.2802,6.2802,6.2802,6.2802,6.2802,6.2802,6.2802,6.2802,6.2802,6.2802,6.2802,6.2802,6.2802,6.2802,6.2827,6.3367,6.43,6.6088,6.7997,7.0184,7.23,7.5396,7.7259,7.8908,7.9656,8.0326,8.0823,8.1164,8.1422,8.1392,8.1601,8.242,8.3408,8.3827,8.4425,8.5402,8.6319,8.6948,8.7496,8.8085,8.8205,8.8594,8.9243,8.998,9.0378,9.0567,9.0597,9.0597,9.0597,9.0597,9.0597,9.0806,9.0926,9.1246,9.1225,9.0836,9.0657,9.0717,9.0917,9.1156,9.1306,9.1515,9.1695,9.1904,9.2173,9.2254,9.2344,9.2254,9.2135,9.1695,9.1336,9.1016,9.0746,9.0597,9.0597,9.0597,9.0597,9.0597,9.0597,9.0597,9.0597,9.0597,9.0597,9.0597,9.0597,9.0597,9.0597,9.0597,9.0597,9.0597,9.0597,9.0597,9.0597,9.0597,9.0597,9.0597,9.0597,9.0597,9.0597,9.0597,9.0627,9.0657,9.0806,9.0896,9.1186,6.2802,6.2802,6.2802,6.2802,6.2802,6.2802,6.2802,6.2802,6.2802,6.2802,6.2802,6.2802,6.2802,6.2802,6.2802,6.2802,6.2802,6.2802,6.2802,6.2802,6.2802,6.2802,6.2802,6.2827,6.3078,6.3676,6.5952,6.8111,7.043,7.2508,7.4448,7.6672,7.8736,7.9746,8.0584,8.1321,8.1811,8.217,8.2698,8.2937,8.2858,8.3337,8.3767,8.4205,8.4904,8.594,8.6898,8.7556,8.8025,8.8624,8.8893,8.9163,8.9671,9.019,9.0507,9.0597,9.0597,9.0597,9.0597,9.0597,9.0597,9.0806,9.1216,9.1485,9.1605,9.1336,9.1665,9.1784,9.2254,9.2524,9.1844,9.1814,9.1784,9.1904,9.2314,9.2554,9.2823,9.2972,9.2464,9.1695,9.1366,9.1105,9.0836,9.0597,9.0597,9.0597,9.0597,9.0597,9.0597,9.0597,9.0597,9.0597,9.0597,9.0597,9.0597,9.0597,9.0597,9.0597,9.0597,9.0597,9.0597,9.0597,9.0597,9.0597,9.0597,9.0597,9.0597,9.0597,9.0597,9.0597,9.0657,9.0687,9.0836,9.0926,9.1016,6.2802,6.2802,6.2802,6.2802,6.2802,6.2802,6.2802,6.2802,6.2802,6.2802,6.2802,6.2802,6.2802,6.2802,6.2802,6.2802,6.2802,6.2802,6.2802,6.2802,6.2802,6.2952,6.2952,6.2902,6.3757,6.4914,6.6733,6.9633,7.2443,7.3927,7.5755,7.9008,8.0266,8.0764,8.18,8.2638,8.3206,8.3557,8.4006,8.4425,8.4175,8.3775,8.4164,8.4564,8.5143,8.604,8.7257,8.8035,8.8355,8.8903,8.9531,8.9741,8.995,9.0348,9.0477,9.0597,9.0597,9.0597,9.0597,9.0597,9.0597,9.0776,9.1306,9.1605,9.1725,9.2135,9.2464,9.2793,9.3242,9.3032,9.2374,9.1994,9.1964,9.2143,9.2583,9.3002,9.3332,9.3503,9.2643,9.1814,9.1665,9.1425,9.1046,9.0776,9.0657,9.0657,9.0597,9.0597,9.0597,9.0597,9.0597,9.0597,9.0597,9.0597,9.0597,9.0597,9.0597,9.0597,9.0597,9.0597,9.0597,9.0597,9.0597,9.0597,9.0597,9.0597,9.0597,9.0597,9.0597,9.0597,9.0627,9.0657,9.0657,9.0746,9.0687,6.2802,6.2802,6.2802,6.2802,6.2802,6.2802,6.2802,6.2802,6.2802,6.2802,6.2802,6.2802,6.2802,6.2802,6.2802,6.2802,6.2827,6.2852,6.2827,6.2802,6.2902,6.3153,6.3439,6.3701,6.5465,6.6679,6.7883,7.0196,7.3349,7.4281,7.6023,7.9688,8.1549,8.2155,8.2589,8.3285,8.3644,8.403,8.4295,8.4533,8.4837,8.4776,8.5252,8.5851,8.6599,8.7496,8.8394,8.9013,8.9621,9.0079,9.0289,9.0319,9.0408,9.0498,9.0567,9.0597,9.0597,9.0597,9.0597,9.0597,9.0597,9.0657,9.1156,9.1575,9.1934,9.2643,9.2913,9.3122,9.3272,9.2913,9.2404,9.2314,9.2284,9.2733,9.3203,9.3601,9.399,9.3481,9.2733,9.2494,9.2434,9.1994,9.1425,9.1165,9.0926,9.0836,9.0627,9.0597,9.0597,9.0597,9.0597,9.0597,9.0627,9.0597,9.0597,9.0597,9.0597,9.0597,9.0597,9.0597,9.0597,9.0597,9.0597,9.0597,9.0597,9.0597,9.0597,9.0597,9.0597,9.0597,9.0597,9.0627,9.0597,9.0597,9.0597]}]]